     2              OBSERVATION DATA    GPS                 RINEX VERSION / TYPE
ASHTORIN MIT 25 - NOV - 96 15:29                            PGM / RUN BY / DATE
                                                            COMMENT
China Lake 1996 EXTP #2 Ashtech P-Code                      COMMENT
Original Marker Name: GS07                                  COMMENT
Campaign Name: China Lake Nov 1996                          COMMENT
4-Character Station Name: GS07                              COMMENT
6-Character Antenna Code: ASHP12                            COMMENT
Vertical Measurement Point: TGP                             COMMENT
Vertical Offset to Rinex Ref. Point: 0.0640                 COMMENT
Radial Measurement Point: RRP                               COMMENT
Radial Offset to Rinex Ref. Point: 0.0000                   COMMENT
Antenna Height from Field Measurement: 0.2540 m             COMMENT
Additional Antenna Identification Info.:                    COMMENT
Ashtech L1/L2 Revision B (700228DE)                         COMMENT
Original XYZ: -2358942.5400 -4594200.7800 3731779.2200      COMMENT
New XYZ position is based on association with SCEC monument COMMENT
E1F4P3G0+0011. Position of that monument is believed to be  COMMENT
valid to within 1 m horizontally; vertical accuracy         COMMENT
should be no worse than 3-times this value.                 COMMENT
                                                            COMMENT
Revised Rinex header created by UCSD GPS archive for        COMMENT
GSAC on 02-Aug-2000 (2000:215) 15:38:05 GMT                 COMMENT
For assistance contact dagnew@ucsd.edu                      COMMENT
or anderson@python.ucsd.edu                                 COMMENT
                                                            COMMENT
GO07 BCM                                                    MARKER NAME
gs07                                                        MARKER NUMBER
RES BMA                                                     OBSERVER / AGENCY
414 ASHTECH Z-XII3 1G001C7                                  REC # / TYPE / VERS
784 ASHTECH GEODETIC P                                      ANT # / TYPE
 -2358923.1421 -4594204.2963  3731821.0505                  APPROX POSITION XYZ
        0.1900        0.0000        0.0000                  ANTENNA: DELTA H/E/N
     1     1     0                                          WAVELENGTH FACT L1/2
     7    L1    L2    C1    P1    P2    D1    D2            # / TYPES OF OBSERV
    30                                                      INTERVAL
  1996    11    12    16    24   30.000000                  TIME OF FIRST OBS
  1996    11    12    22    30   60.000000                  TIME OF LAST OBS
                                                            END OF HEADER
 96 11 12 16 24 30.0000000  0  7  3 23 21  1  9 31 17                0.000033353
     -5042.010 9     -3572.62558  21488755.742    21488752.6965   21488756.8505
        14.055          10.952
     72725.114 9     50020.54255  21798228.251           0.0004          0.0005
      -772.072        -601.615
    -99928.160 9    -70568.10448  20719977.055    20719973.8445   20719977.9534
      1039.952         810.352
   -262930.475 9   -189736.12558  20822338.405    20822335.0555   20822339.5375
      2612.254        2035.523
    -77182.054 9    -56763.44457  23600926.770    23600924.1175   23600928.4785
       710.874         553.928
   -231291.997 9   -168272.59357  23020503.449    23020499.2235   23020503.0425
      2312.236        1801.742
    178239.050 9    125631.88947  22447858.936    22447855.7305   22447861.4904
     -1883.670       -1467.795
 96 11 12 16 25  0.0000000  0  7  3 23 21  1  9 31 17                0.000018174
     -5170.767 9     -3672.97448  21488730.934    21488728.1724   21488732.4314
        -5.687          -4.431
     95951.177 9     14364.75758  21802647.950           0.0005   21802649.1965
      -776.384        -604.975
   -131040.117 9    -94811.19058  20714057.630    20714053.4875   20714057.5825
      1033.961         805.684
   -341057.465 9   -250614.29148  20807470.800    20807468.0314   20807472.4654
      2596.107        2022.941
    -98239.179 9    -73171.54847  23596920.114    23596917.1064   23596921.4664
       692.832         539.869
   -300400.300 9   -222123.24147  23007353.006    23007348.3694   23007352.2034
      2294.721        1788.094
    234912.734 9    169793.14057  22458660.102    22458640.4745   22458646.2255
     -1894.496       -1476.231
 96 11 12 16 25 30.0000000  0  7  3 23 21  1  9 31 17                0.000002981
     -4695.643 9     -3302.76648  21488821.232    21488818.6254   21488822.8714
       -25.855         -20.147
    119309.946 9     32566.37048  21807092.895    21807090.1885   21807094.2034
      -780.917        -608.507
   -161963.031 9   -118906.97448  20708172.313    20708168.9784   20708173.1944
      1027.395         800.567
   -418693.741 9   -311110.07848  20792696.993    20792694.3854   20792698.7814
      2579.751        2010.196
   -118749.336 9    -89153.43846  23593016.905    23593014.1514   23593018.4784
       674.607         525.668
   -368970.013 9   -275554.17447  22994304.121    22994299.9664   22994304.0754
      2276.628        1773.996
    291913.747 9    214209.44547  22469498.544    22469487.5624   22469493.1804
     -1905.550       -1484.844
 96 11 12 16 26  0.0000000  0  7  3 23 21  1  9 31 17               -0.000012180
     -3620.688 9     -2465.15748  21489025.678    21489023.2164   21489027.4534
       -45.780         -35.673
    142809.628 9     50877.78148  21811564.758    21811562.0254   21811566.0914
      -785.530        -612.101
   -192675.670 9   -142838.89748  20702327.696    20702324.6054   20702328.7634
      1020.133         794.909
   -495833.536 9   -371218.99648  20778017.855    20778015.2194   20778019.6334
      2562.888        1997.056
   -138702.818 9   -104701.59446  23589219.889    23589217.1334   23589221.4884
       655.701         510.936
   -436989.384 9   -328556.30247  22981359.964    22981356.2964   22981360.4274
      2257.987        1759.470
    349248.970 9    258886.17347  22480406.288    22480398.2044   22480403.7814
     -1916.753       -1493.574
 96 11 12 16 26 29.9990000  0  7  3 23 21  1  9 31 17               -0.000027307
     -1943.270 9     -1158.09248  21489344.672    21489342.4434   21489346.6654
       -66.469         -51.794
    166446.875 9     69296.39848  21816062.820    21816060.0694   21816064.1324
      -790.703        -616.132
   -223163.668 9   -166595.78048  20696525.964    20696522.9654   20696527.0744
      1011.949         788.532
   -572450.456 9   -430920.48148  20763438.160    20763435.5204   20763440.0024
      2544.610        1982.813
   -158079.935 9   -119800.61546  23585532.484    23585529.8534   23585534.1274
       635.898         495.505
   -504443.750 9   -381118.14947  22968523.886    22968520.2404   22968524.4124
      2238.656        1744.407
    406927.111 9    303830.12247  22491380.665    22491373.9774   22491379.6564
     -1928.875       -1503.019
 96 11 12 16 26 59.9990000  0  7  3 23 21  1  9 31 17               -0.000042394
       364.888 9       640.45148  21489784.037    21489781.6944   21489785.8934
       -87.570         -68.236
    190244.059 9     87839.65148  21820591.206    21820588.5284   21820592.5114
      -795.975        -620.240
   -253388.820 9   -190147.85048  20690774.224    20690771.3214   20690775.4284
      1002.769         781.378
   -648517.243 9   -490193.28948  20748963.167    20748960.5554   20748964.9744
      2526.442        1968.656
   -176866.367 9   -134439.37046  23581957.538    23581954.9774   23581959.1614
       616.250         480.195
   -571304.166 9   -433217.18047  22955801.397    22955797.2324   22955801.3944
      2218.588        1728.770
    464967.813 9    349056.57447  22502424.330    22502418.7624   22502424.5194
     -1940.628       -1512.178
 96 11 12 16 27 29.9990000  0  7  3 23 21  1  9 31 17               -0.000057471
      3284.478 9      2915.43948  21490339.575    21490337.3054   21490341.5174
      -107.424         -83.707
    214197.210 9    106504.42848  21825149.430    21825146.7204   21825150.6884
      -801.445        -624.503
   -283339.124 9   -213485.75548  20685074.805    20685071.9584   20685076.0694
       993.427         774.099
   -724051.682 9   -549051.28248  20734589.480    20734586.8944   20734591.2634
      2508.745        1954.866
   -195072.499 9   -148625.93746  23578492.960    23578490.4524   23578494.6004
       597.008         465.201
   -637575.441 9   -484857.15947  22943189.542    22943186.3444   22943190.3424
      2199.016        1713.519
    523351.558 9    394550.33347  22513533.723    22513528.9324   22513534.6484
     -1952.252       -1521.235
 96 11 12 16 27 59.9990000  0  7  3 23 21  1  9 31 17               -0.000072539
      6795.827 9      5651.53748  21491007.735    21491005.4984   21491009.7484
      -127.220         -99.132
    238320.967 9    125302.12348  21829740.020    21829737.3514   21829741.4124
      -807.261        -629.034
   -313008.280 9   -236604.58048  20679428.894    20679426.1404   20679430.2874
       984.213         766.919
   -799049.285 9   -607490.96348  20720317.834    20720315.3084   20720319.6464
      2490.562        1940.698
   -212696.316 9   -162358.77846  23575139.173    23575136.7694   23575140.8214
       577.524         450.019
   -703258.669 9   -536038.89947  22930690.394    22930687.2744   22930691.4784
      2179.229        1698.101
    582089.816 9    440320.34547  22524710.716    22524706.5114   22524712.2614
     -1964.160       -1530.514
 96 11 12 16 28 29.9990000  0  7  3 23 21  1  9 31 17               -0.000087594
     10903.397 9      8852.22048  21491789.526    21491787.2474   21491791.4864
      -147.298        -114.778
    262622.124 9    144238.07448  21834364.346    21834361.7454   21834365.8244
      -813.470        -633.873
   -342403.858 9   -259510.22648  20673835.103    20673832.3794   20673836.5074
       974.902         759.664
   -873507.010 9   -665509.95648  20706148.857    20706146.4684   20706150.7994
      2472.637        1926.730
   -229740.410 9   -175639.87046  23571895.845    23571893.4324   23571897.4114
       558.130         434.906
   -768353.810 9   -586762.39247  22918303.206    22918300.0964   22918304.2564
      2159.726        1682.903
    641186.535 9    486369.67047  22535956.020    22535952.3554   22535958.0154
     -1976.063       -1539.789
 96 11 12 16 28 59.9990000  0  7  3 23 21  1  9 31 17               -0.000102630
     15623.964 9     12530.56748  21492687.971    21492685.5904   21492689.8274
      -167.574        -130.577
    287124.949 9    163331.17348  21839027.101    21839024.5374   21839028.5504
      -820.090        -639.031
   -371515.506 9   -282194.63548  20668295.231    20668292.6264   20668296.8424
       965.887         752.639
   -947418.294 9   -723103.15148  20692084.133    20692081.6624   20692085.9844
      2454.611        1912.684
   -246191.097 9   -188458.56646  23568765.407    23568763.0164   23568767.0134
       538.289         419.446
   -832851.479 9   -637020.33047  22906029.796    22906026.5604   22906030.6914
      2139.894        1667.450
    700642.713 9    532699.10147  22547270.085    22547266.6394   22547272.1074
     -1987.950       -1549.052
 96 11 12 16 29 29.9990000  0  7  3 23 21  1  9 31 17               -0.000117632
     20956.297 9     16685.61548  21493702.567    21493700.3004   21493704.5544
      -187.837        -146.366
    311825.090 9    182578.01348  21843727.431    21843724.8444   21843728.8484
      -826.270        -643.847
   -400363.323 9   -304673.45648  20662805.807    20662803.1434   20662807.3734
       957.512         746.113
  -1020781.130 9   -780268.98448  20678123.777    20678121.2154   20678125.5394
      2436.377        1898.476
   -262034.750 9   -200804.27246  23565750.355    23565748.0314   23565752.1154
       518.157         403.759
   -896751.241 9   -686812.35847  22893869.739    22893866.8974   22893871.0824
      2120.066        1651.999
    760465.871 9    579314.49347  22558653.863    22558650.6554   22558656.2344
     -1999.926       -1558.384
 96 11 12 16 29 59.9990000  0  7  3 23 21  1  9 31 17               -0.000132582
     26913.472 9     21327.55848  21494836.119    21494833.9274   21494838.1714
      -209.083        -162.922
    336713.357 9    201971.44548  21848463.552    21848460.9214   21848464.9634
      -832.617        -648.792
   -428954.062 9   -326951.94948  20657365.130    20657362.4834   20657366.7354
       948.763         739.296
  -1093584.201 9   -836998.63548  20664269.824    20664267.2624   20664271.6494
      2417.400        1883.688
   -277259.166 9   -212667.44546  23562853.319    23562850.9394   23562854.9934
       497.036         387.301
   -960035.898 9   -736125.07647  22881826.611    22881824.2644   22881828.5294
      2099.080        1635.647
    820641.870 9    626204.83347  22570104.788    22570101.8054   22570107.4734
     -2011.526       -1567.423
 96 11 12 16 30 29.9990000  0  7  3 23 21  1  9 31 17               -0.000147478
     33506.010 9     26464.58648  21496090.659    21496088.4814   21496092.7494
      -230.570        -179.665
    361780.682 9    221504.41048  21853233.717    21853231.1164   21853235.1694
      -838.595        -653.451
   -457283.209 9   -349026.61148  20651974.196    20651971.6474   20651975.8944
       939.691         732.227
  -1165826.809 9   -893291.56648  20650522.418    20650519.9444   20650524.3464
      2398.586        1869.028
   -291855.951 9   -224041.57946  23560075.676    23560073.2954   23560077.3394
       475.882         370.817
  -1022701.672 9   -784955.55147  22869902.349    22869899.4514   22869903.6634
      2078.338        1619.484
    881160.035 9    673361.79747  22581620.984    22581618.0634   22581623.7884
     -2023.117       -1576.455
 96 11 12 16 30 59.9990000  0  7  3 23 21  1  9 31 17               -0.000162318
     40735.120 9     32097.64348  21497466.261    21497464.1834   21497468.4224
      -251.623        -196.070
    387011.154 9    241164.51948  21858034.930    21858032.3724   21858036.3874
      -843.648        -657.388
   -485354.248 9   -370900.15448  20646632.543    20646629.9074   20646634.2214
       931.293         725.683
  -1237515.012 9   -949152.49048  20636880.653    20636878.1244   20636882.5274
      2380.456        1854.901
   -305830.711 9   -234931.01046  23557416.369    23557414.0074   23557418.0314
       455.525         354.954
  -1084745.629 9   -833301.49647  22858096.544    22858092.8984   22858097.0604
      2057.563        1603.296
    942019.123 9    720784.42147  22593201.892    22593199.2294   22593204.9464
     -2034.548       -1585.362
 96 11 12 16 31 29.9990000  0  7  3 23 21  1  9 31 17               -0.000177093
     48613.963 9     38236.97648  21498965.780    21498963.5384   21498967.7214
      -273.276        -212.942
    412407.987 9    260954.24748  21862867.876    21862865.3004   21862869.2824
      -849.162        -661.685
   -513143.540 9   -392554.15548  20641344.445    20641341.7904   20641346.0504
       921.623         718.148
  -1308646.674 9  -1004579.75348  20623344.679    20623342.2264   20623346.6074
      2362.027        1840.541
   -319177.698 9   -245331.27846  23554876.487    23554874.1334   23554878.1864
       434.668         338.702
  -1146145.356 9   -881145.45447  22846412.569    22846408.9084   22846412.9934
      2036.033        1586.519
   1003239.260 9    768488.36547  22604851.997    22604849.0864   22604854.8404
     -2046.296       -1594.516
 96 11 12 16 31 59.9990000  0  7  3 23 21  1  9 31 17               -0.000191823
     57129.421 9     44872.37348  21500586.374    21500584.0054   21500588.2164
      -295.020        -229.886
    437957.785 9    280863.16048  21867730.057    21867727.3674   21867731.3174
      -854.817        -666.091
   -540656.420 9   -413992.76748  20636108.934    20636106.2334   20636110.5164
       911.970         710.626
  -1379240.937 9  -1059588.25848  20609911.109    20609908.6204   20609912.9564
      2343.616        1826.194
   -331917.536 9   -255258.44146  23552452.126    23552449.8004   23552453.8764
       414.139         322.706
  -1206916.015 9   -928499.21847  22834847.593    22834844.6004   22834848.7914
      2014.973        1570.109
   1064794.495 9    816453.42547  22616565.290    22616562.6834   22616568.4604
     -2058.225       -1603.812
 96 11 12 16 32 29.9990000  0  7  3 23 21  1  9 31 17               -0.000206503
     66295.089 9     52014.43548  21502330.362    21502328.1304   21502332.4094
      -316.045        -246.269
    463674.590 9    300902.20848  21872623.759    21872621.1484   21872625.1124
      -859.752        -669.937
   -567886.279 9   -435210.84248  20630927.317    20630924.6254   20630928.8674
       903.333         703.896
  -1449287.008 9  -1114169.60348  20596581.849    20596579.2864   20596583.6924
      2325.970        1812.444
   -344054.278 9   -264715.65546  23550142.547    23550140.2824   23550144.3474
       394.876         307.696
  -1267071.083 9   -975373.31147  22823400.454    22823397.5344   22823401.6974
      1995.286        1554.768
   1126714.501 9    864702.69747  22628348.128    22628345.7554   22628351.5704
     -2069.817       -1612.844
 96 11 12 16 32 59.9990000  0  7  3 23 21  1  9 31 17               -0.000221144
     76099.167 9     59653.94948  21504196.019    21504193.8244   21504198.0814
      -337.259        -262.799
    489561.057 9    321073.46648  21877549.872    21877547.2224   21877551.1504
      -865.772        -674.628
   -594844.450 9   -456217.21148  20625797.302    20625794.6494   20625798.9254
       894.024         696.642
  -1518784.627 9  -1168323.58248  20583356.988    20583354.3344   20583358.7954
      2307.415        1797.986
   -355600.227 9   -273712.50346  23547945.419    23547943.2044   23547947.2024
       374.979         292.191
  -1326622.297 9  -1021776.85347  22812067.424    22812065.2084   22812069.4244
      1975.130        1539.062
   1188993.332 9    913231.58147  22640199.733    22640197.1554   22640202.9564
     -2081.861       -1622.229
 96 11 12 16 33 29.9990000  0  7  3 23 21  1  9 31 17               -0.000235754
     86533.587 9     67784.64048  21506181.784    21506179.5304   21506183.7454
      -358.018        -278.975
    515623.883 9    341382.14948  21882509.421    21882506.7564   21882510.7244
      -871.294        -678.930
   -621521.660 9   -477004.65148  20620720.849    20620718.1574   20620722.4104
       884.929         689.555
  -1587721.978 9  -1222040.99048  20570238.495    20570235.9464   20570240.4454
      2288.652        1783.365
   -366540.470 9   -282237.38446  23545863.765    23545861.3214   23545865.3774
       354.724         276.408
  -1385581.515 9  -1067719.11247  22800847.998    22800845.6274   22800849.9504
      1955.827        1524.021
   1251626.867 9    962036.82747  22652118.579    22652116.0084   22652121.8114
     -2093.177       -1631.047
 96 11 12 16 33 59.9990000  0  7  3 23 21  1  9 31 17               -0.000250348
     97587.254 9     76397.86048  21508285.245    21508282.9894   21508287.2484
      -379.518        -295.728
    541845.908 9    361814.86548  21887499.124    21887496.5284   21887500.5884
      -877.533        -683.792
   -647936.235 9   -497587.44848  20615694.270    20615691.6254   20615695.8284
       875.304         682.055
  -1656095.832 9  -1275319.30748  20557227.473    20557224.8364   20557229.2954
      2269.003        1768.054
   -376883.269 9   -290296.71346  23543895.645    23543893.2154   23543897.2704
       334.109         260.345
  -1443971.505 9  -1113217.81747  22789737.148    22789734.4974   22789738.6734
      1936.084        1508.637
   1314596.686 9   1011104.13147  22664101.543    22664098.8554   22664104.6054
     -2105.484       -1640.637
 96 11 12 16 34 29.9990000  0  7  3 23 21  1  9 31 17               -0.000264905
    109287.258 9     85514.72148  21510511.521    21510509.4004   21510513.7414
      -400.119        -311.781
    568269.206 9    382404.43048  21892527.408    21892524.7414   21892528.8474
      -883.695        -688.594
   -674048.993 9   -517935.05748  20610725.355    20610722.6374   20610726.7724
       865.893         674.722
  -1723873.441 9  -1328133.01648  20544329.913    20544327.2484   20544331.6744
      2249.893        1753.163
   -386592.890 9   -297862.66147  23542047.967    23542045.5424   23542049.6734
       313.558         244.331
  -1501752.200 9  -1158241.72547  22778742.053    22778739.2074   22778743.4554
      1916.113        1493.075
   1377947.856 9   1060468.58547  22676156.951    22676154.3064   22676159.9344
     -2117.464       -1649.972
 96 11 12 16 34 59.9990000  0  7  3 23 21  1  9 31 17               -0.000279429
    121609.613 9     95116.53348  21512856.325    21512854.3034   21512858.6804
      -421.151        -328.170
    594876.593 9    403137.45648  21897590.653    21897588.0534   21897592.1174
      -889.738        -693.302
   -699871.258 9   -538056.31148  20605811.513    20605808.8144   20605812.9824
       855.909         666.942
  -1791079.028 9  -1380500.99148  20531540.998    20531538.4614   20531542.8834
      2230.963        1738.413
   -395683.066 9   -304945.90247  23540318.091    23540315.6844   23540319.9024
       292.844         228.190
  -1558923.380 9  -1202790.71547  22767862.069    22767860.0274   22767864.0584
      1895.571        1477.068
   1441661.102 9   1110115.20547  22688281.238    22688278.5674   22688284.1844
     -2129.757       -1659.551
 96 11 12 16 35 29.9990000  0  7  3 23 21  1  9 31 17               -0.000293900
    134575.128 9    105219.50448  21515323.739    21515321.6204   21515325.9534
      -442.377        -344.709
    621667.368 9    424013.38448  21902688.819    21902686.2124   21902690.2264
      -895.698        -697.946
   -725389.344 9   -557940.54348  20600955.600    20600952.9044   20600957.1084
       846.172         659.355
  -1857720.353 9  -1432429.28848  20518859.593    20518857.0484   20518861.4734
      2212.527        1724.047
   -404151.321 9   -311544.54447  23538706.518    23538704.2184   23538708.4504
       272.536         212.366
  -1615464.221 9  -1246848.51647  22757102.434    22757100.6454   22757104.7744
      1874.402        1460.573
   1505748.934 9   1160053.69247  22700476.826    22700474.1004   22700479.7624
     -2142.000       -1669.091
 96 11 12 16 35 59.9990000  0  7  3 23 21  1  9 31 17               -0.000308319
    148153.905 9    115800.34148  21517907.829    21517905.6234   21517909.9464
      -462.523        -360.408
    648635.856 9    445027.78048  21907820.661    21907818.0944   21907822.2024
      -902.009        -702.864
   -750634.686 9   -577612.24348  20596151.564    20596148.8834   20596153.0604
       837.171         652.341
  -1923827.134 9  -1483941.05148  20506279.864    20506277.3394   20506281.7684
      2194.855        1710.277
   -412032.294 9   -317685.55747  23537206.808    23537204.5294   23537208.8184
       252.935         197.092
  -1671373.261 9  -1290414.01247  22746462.929    22746461.4744   22746465.5774
      1853.066        1443.947
   1570195.421 9   1210271.68447  22712740.632    22712737.9674   22712743.6594
     -2154.191       -1678.590
 96 11 12 16 36 29.9990000  0  7  3 23 21  1  9 31 17               -0.000322658
    162356.986 9    126867.64948  21520610.604    21520608.3944   21520612.7644
      -484.624        -377.629
    675817.966 9    466208.63148  21912993.300    21912990.7004   21912994.8804
      -910.190        -709.239
   -775589.782 9   -597057.78748  20591402.681    20591400.0184   20591404.2564
       826.336         643.898
  -1989373.721 9  -1535016.30248  20493806.725    20493804.2364   20493808.6544
      2174.606        1694.498
   -419293.520 9   -323343.66147  23535825.118    23535822.8124   23535826.9604
       231.037         180.029
  -1726606.144 9  -1333452.63647  22735952.427    22735951.0604   22735955.1904
      1829.129        1425.295
   1635028.033 9   1260790.52647  22725078.011    22725075.3144   22725081.0264
     -2168.083       -1689.415
 96 11 12 16 36 59.9990000  0  7  3 23 21  1  9 31 17               -0.000336923
    177186.225 9    138422.87548  21523432.498    21523430.3664   21523434.7314
      -504.318        -392.975
    703194.429 9    487540.92648  21918202.962    21918200.3544   21918204.5574
      -915.341        -713.253
   -800261.803 9   -616282.74948  20586707.745    20586705.1324   20586709.3104
       818.063         637.452
  -2054342.077 9  -1585640.98048  20481443.698    20481441.1864   20481445.5974
      2156.134        1680.104
   -425934.237 9   -328518.23747  23534561.430    23534559.1624   23534563.3074
       211.149         164.532
  -1781164.783 9  -1375965.86447  22725570.036    22725568.9054   22725573.0314
      1807.670        1408.574
   1700234.903 9   1311600.99147  22737486.824    22737483.9084   22737489.6194
     -2179.404       -1698.237
 96 11 12 16 37 29.9990000  0  7  3 23 21  1  9 31 17               -0.000351114
    192624.888 9    150452.97248  21526370.363    21526368.2484   21526372.6244
      -524.756        -408.901
    730766.222 9    509025.41348  21923449.681    21923447.1504   21923451.4124
      -922.747        -719.024
   -824654.064 9   -635289.70348  20582066.086    20582063.4864   20582067.5684
       808.299         629.843
  -2118711.808 9  -1635799.20148  20469194.406    20469192.0414   20469196.4764
      2135.108        1663.721
   -431931.021 9   -333191.04647  23533420.338    23533418.0404   23533422.2444
       188.761         147.086
  -1835039.451 9  -1417946.13647  22715318.178    22715316.9474   22715321.1404
      1784.114        1390.219
   1765812.175 9   1362700.09347  22749965.733    22749962.9064   22749968.6344
     -2192.310       -1708.293
 96 11 12 16 37 59.9990000  0  7  3 23 21  1  9 31 17               -0.000365236
    208667.199 9    162953.44948  21529423.021    21529420.9934   21529425.3474
      -544.306        -424.135
    758549.186 9    530674.44848  21928736.615    21928734.1024   21928738.4074
      -928.712        -723.672
   -848763.398 9   -654076.20148  20577478.170    20577475.5854   20577479.7724
       799.472         622.965
  -2182447.467 9  -1685463.33248  20457065.996    20457063.5584   20457067.9974
      2114.587        1647.730
   -437258.548 9   -337342.35847  23532406.541    23532404.2754   23532408.4914
       166.973         130.109
  -1888226.306 9  -1459390.45147  22705197.420    22705195.8844   22705200.0364
      1762.231        1373.167
   1831766.833 9   1414093.25447  22762516.159    22762513.6344   22762519.3894
     -2204.023       -1717.421
 96 11 12 16 38 29.9990000  0  7  3 23 21  1  9 31 17               -0.000379288
    225340.468 9    175945.57948  21532595.817    21532593.8644   21532598.1474
      -566.124        -441.136
    786532.603 9    552479.69748  21934061.853    21934059.2734   21934063.4794
      -935.772        -729.173
   -872568.938 9   -672625.98448  20572948.152    20572945.5844   20572949.8244
       788.641         614.525
  -2245530.623 9  -1734619.02548  20445061.659    20445059.2394   20445063.6354
      2092.017        1630.143
   -441895.631 9   -340955.66047  23531524.102    23531521.8954   23531526.0874
       143.380         111.725
  -1940726.315 9  -1500299.56247  22695206.792    22695205.4514   22695209.5834
      1738.986        1355.054
   1898101.947 9   1465782.89747  22775139.561    22775136.8664   22775142.6284
     -2217.304       -1727.769
 96 11 12 16 38 59.9990000  0  7  3 23 21  1  9 31 17               -0.000393283
    242637.447 9    189423.71548  21535887.498    21535885.4284   21535889.6654
      -586.590        -457.083
    814702.510 9    574430.27948  21939422.427    21939419.8384   21939423.9474
      -941.981        -734.011
   -896072.798 9   -690940.67748  20568475.663    20568472.9924   20568477.1724
       778.651         606.741
  -2307972.349 9  -1783274.89448  20433179.355    20433177.0034   20433181.3684
      2071.352        1614.041
   -445847.606 9   -344035.11047  23530772.121    23530769.8534   23530774.0094
       120.544          93.930
  -1992568.237 9  -1540695.86047  22685342.071    22685340.2484   22685344.4414
      1717.352        1338.196
   1964810.015 9   1517763.10747  22787833.574    22787831.0924   22787836.8354
     -2229.498       -1737.271
 96 11 12 16 39 29.9990000  0  7  3 23 21  1  9 31 17               -0.000407225
    260548.913 9    203380.68248  21539295.637    21539293.8484   21539298.1894
      -607.750        -473.571
    843063.154 9    596529.47648  21944819.157    21944816.6744   21944820.7684
      -948.753        -739.288
   -919286.713 9   -709029.44648  20564058.053    20564055.4744   20564059.7244
       768.858         599.110
  -2369812.106 9  -1831461.70448  20421411.453    20421409.2694   20421413.6764
      2051.320        1598.431
   -449132.141 9   -346594.47447  23530147.123    23530144.8264   23530148.9704
        98.627          76.852
  -2043771.846 9  -1580594.78147  22675598.718    22675596.4414   22675600.7324
      1696.165        1321.687
   2031880.711 9   1570025.89047  22800596.791    22800594.3014   22800600.1074
     -2241.996       -1747.010
 96 11 12 16 39 59.9990000  0  7  3 23 21  1  9 31 17               -0.000421118
    279093.591 9    217831.04948  21542824.693    21542822.7994   21542827.1544
      -629.000        -490.130
    871601.974 9    618767.49548  21950250.016    21950247.4084   21950251.5144
      -954.226        -743.553
   -942218.306 9   -726898.22148  20559694.296    20559691.6984   20559696.0344
       759.258         591.630
  -2431077.422 9  -1879200.89048  20409753.225    20409750.9124   20409755.2594
      2032.605        1583.848
   -451783.123 9   -348660.17247  23529642.620    23529640.3364   23529644.5074
        77.583          60.454
  -2094365.535 9  -1620018.44147  22665970.908    22665968.8804   22665973.1444
      1676.028        1305.996
   2099310.230 9   1622568.28547  22813428.056    22813425.7004   22813431.5564
     -2253.838       -1756.237
 96 11 12 16 40 29.9990000  0  7  3 23 21  1  9 31 17               -0.000434950
    298283.142 9    232783.92448  21546476.352    21546474.5184   21546478.8554
      -650.464        -506.855
    900323.223 9    641147.67248  21955715.538    21955712.9294   21955717.0294
      -960.908        -748.759
   -964845.328 9   -744529.67048  20555388.399    20555385.9014   20555390.2434
       749.089         583.706
  -2491769.874 9  -1926493.69148  20398203.695    20398201.5114   20398205.9094
      2013.182        1568.713
   -453791.812 9   -350225.36147  23529260.252    23529258.0784   23529262.2604
        56.082          43.700
  -2144336.993 9  -1658957.25147  22656461.575    22656459.6494   22656463.9194
      1655.012        1289.620
   2167118.791 9   1675406.07047  22826331.626    22826329.2924   22826335.1834
     -2267.079       -1766.555
 96 11 12 16 40 59.9990000  0  7  3 23 21  1  9 31 17               -0.000448710
    318115.513 9    248237.69348  21550250.267    21550248.5214   21550252.8944
      -671.554        -523.289
    929248.791 9    663687.05948  21961219.829    21961217.3334   21961221.5134
      -967.316        -753.753
   -987171.219 9   -761926.48648  20551139.744    20551137.3564   20551141.8324
       739.401         576.157
  -2551886.760 9  -1973338.00248  20386763.818    20386761.6184   20386766.0204
      1994.801        1554.390
   -455166.400 9   -351296.45047  23528998.580    23528996.5064   23529000.6734
        35.820          27.912
  -2193674.813 9  -1697402.30547  22647072.616    22647070.9454   22647075.2904
      1634.109        1273.332
   2235323.865 9   1728552.79347  22839310.711    22839308.3634   22839314.3444
     -2279.699       -1776.389
 96 11 12 16 41 29.9990000  0  7  3 23 21  1  9 31 17               -0.000462405
    338580.577 9    264184.47248  21554144.709    21554142.9404   21554147.2934
      -693.204        -540.159
    958363.311 9    686373.67748  21966760.170    21966757.7184   21966761.9834
      -974.097        -759.037
  -1009204.419 9   -779095.20648  20546946.981    20546944.6514   20546948.9474
       728.947         568.011
  -2611444.414 9  -2019746.54848  20375430.350    20375428.1334   20375432.5594
      1975.020        1538.977
   -455937.183 9   -351897.03947  23528851.922    23528849.8404   23528854.0134
        15.054          11.730
  -2242376.782 9  -1735351.90847  22637805.287    22637803.2864   22637807.6254
      1611.960        1256.073
   2303905.106 9   1781992.65747  22852361.558    22852359.0764   22852365.0934
     -2292.914       -1786.686
 96 11 12 16 41 59.9990000  0  7  3 23 21  1  9 31 17               -0.000476036
    359671.103 9    280618.62448  21558158.094    21558156.3464   21558160.7074
      -712.519        -555.210
    987672.675 9    709212.11848  21972337.610    21972335.1214   21972339.4234
      -979.640        -763.356
  -1030928.914 9   -796023.38548  20542812.969    20542810.6214   20542814.9174
       719.496         560.646
  -2670404.238 9  -2065689.25548  20364210.576    20364208.4104   20364212.8474
      1955.676        1523.903
   -456086.868 9   -352013.65047  23528823.322    23528821.3624   23528825.5354
        -4.834          -3.767
  -2290406.580 9  -1772777.71947  22628665.846    22628663.4834   22628667.8454
      1590.067        1239.013
   2372870.426 9   1835731.75647  22865485.301    22865482.7904   22865488.8414
     -2304.473       -1795.693
 96 11 12 16 42 29.9990000  0  7  3 23 21  1  9 31 17               -0.000489635
    381332.079 9    297497.28048  21562280.057    21562278.2824   21562282.7354
      -731.982        -570.375
   1017148.043 9    732179.91248  21977946.469    21977944.0734   21977948.3324
      -985.834        -768.182
  -1052379.888 9   -812738.43848  20538730.837    20538728.6104   20538733.0674
       710.118         553.339
  -2728779.004 9  -2111176.07148  20353102.224    20353100.0704   20353104.5064
      1935.568        1508.235
   -455656.007 9   -351677.87647  23528905.191    23528903.2594   23528907.4854
       -24.410         -19.021
  -2337778.958 9  -1809691.26847  22619651.207    22619648.7874   22619653.2214
      1567.614        1221.517
   2442173.249 9   1889733.87147  22878673.361    22878670.7664   22878676.7814
     -2315.964       -1804.647
 96 11 12 16 42 59.9990000  0  7  3 23 21  1  9 31 17               -0.000503197
    403577.034 9    314830.98948  21566513.047    21566511.3574   21566515.8974
      -750.399        -584.726
   1046804.042 9    755288.47248  21983589.800    21983587.4544   21983591.5964
      -990.605        -771.900
  -1073548.896 9   -829233.77748  20534702.425    20534700.2554   20534704.7344
       701.668         546.754
  -2786559.640 9  -2156199.92948  20342106.904    20342104.7724   20342109.2194
      1917.010        1493.774
   -454638.375 9   -350884.88547  23529098.886    23529096.8914   23529101.1334
       -42.998         -33.505
  -2384476.143 9  -1846078.70047  22610764.998    22610762.6554   22610766.8814
      1545.956        1204.641
   2511800.367 9   1943988.70247  22891922.440    22891920.3624   22891926.4844
     -2325.179       -1811.828
 96 11 12 16 43 29.9990000  0  7  3 23 21  1  9 31 17               -0.000516747
    426366.512 9    332588.99448  21570849.859    21570848.0864   21570852.6644
      -769.067        -599.273
   1076603.100 9    778508.50648  21989260.327    21989258.0544   21989262.1394
      -996.183        -776.246
  -1094465.433 9   -845532.37848  20530722.269    20530720.0774   20530724.4134
       692.708         539.772
  -2843770.905 9  -2200780.12448  20331219.964    20331217.8334   20331222.2914
      1897.022        1478.199
   -453050.733 9   -349647.72947  23529401.043    23529399.0064   23529403.2484
       -62.949         -49.051
  -2430526.826 9  -1881962.35947  22602001.990    22601999.5204   22602003.7854
      1523.911        1187.463
   2581707.343 9   1998461.58546  22905225.122    22905223.1324   22905229.4084
     -2335.450       -1819.831
 96 11 12 16 43 59.9990000  0  7  3 23 21  1  9 31 17               -0.000530262
    449733.928 9    350797.34648  21575296.454    21575294.7654   21575299.3554
      -789.136        -614.911
   1106594.664 9    801878.54248  21994967.633    21994965.3244   21994969.4084
     -1003.544        -781.982
  -1115101.336 9   -861612.31648  20526795.481    20526793.2614   20526797.5614
       682.660         531.943
  -2900368.934 9  -2244882.47348  20320449.584    20320447.5734   20320452.0584
      1876.079        1461.880
   -450852.707 9   -347934.94247  23529819.289    23529817.2454   23529821.5144
       -83.929         -65.399
  -2475906.444 9  -1917323.11747  22593366.258    22593364.1074   22593368.3304
      1501.333        1169.870
   2651938.780 9   2053187.32247  22918589.751    22918587.8374   22918594.1134
     -2346.943       -1828.787
 96 11 12 16 44 29.9990000  0  7  3 23 21  1  9 31 17               -0.000543730
    473700.361 9    369472.45948  21579857.249    21579855.4804   21579860.0064
      -808.763        -630.205
   1136792.263 9    825409.11648  22000714.120    22000711.8404   22000715.9474
     -1009.842        -786.890
  -1135450.100 9   -877468.51048  20522923.159    20522920.9864   20522925.3944
       673.676         524.942
  -2956364.352 9  -2288515.25748  20309794.101    20309792.0124   20309796.4734
      1856.930        1446.958
   -448033.008 9   -345737.74447  23530355.843    23530353.8554   23530358.0834
      -104.315         -81.284
  -2520633.592 9  -1952175.45347  22584854.710    22584852.7734   22584857.0164
      1480.312        1153.490
   2722505.231 9   2108174.09547  22932018.303    22932016.3094   22932022.5314
     -2357.595       -1837.087
 96 11 12 16 44 59.9990000  0  7  3 23 21  1  9 31 17               -0.000557151
    498258.070 9    388608.30948  21584530.567    21584528.7444   21584533.2124
      -828.285        -645.417
   1167190.684 9    849096.17448  22006498.843    22006496.5414   22006500.6824
     -1016.628        -792.178
  -1155518.018 9   -893105.85848  20519104.398    20519102.2444   20519106.6104
       664.234         517.585
  -3011785.346 9  -2331700.43448  20299247.904    20299245.7634   20299250.1324
      1837.876        1432.111
   -444590.443 9   -343055.19847  23531010.872    23531008.8794   23531013.1554
      -125.025         -97.422
  -2564727.870 9  -1986534.64147  22576463.717    22576461.9374   22576466.1554
      1459.358        1137.162
   2793400.647 9   2163417.19847  22945509.376    22945507.3744   22945513.6554
     -2368.908       -1845.902
 96 11 12 16 45 29.9990000  0  7  3 23 21  1  9 31 17               -0.000570535
    523384.235 9    408187.11948  21589311.959    21589310.0994   21589314.6104
      -847.351        -660.274
   1197779.299 9    872931.43648  22012319.618    22012317.3664   22012321.6024
     -1022.999        -797.142
  -1175317.484 9   -908534.02048  20515336.864    20515334.6084   20515338.8964
       655.269         510.599
  -3066644.900 9  -2374448.12448  20288808.537    20288806.3564   20288810.6994
      1819.122        1417.498
   -440544.734 9   -339902.66847  23531780.708    23531778.7154   23531783.0154
      -145.130        -113.088
  -2608218.112 9  -2020423.13847  22568187.838    22568185.9464   22568190.3304
      1439.445        1121.645
   2864637.286 9   2218926.17047  22959065.441    22959063.3684   22959069.6554
     -2380.572       -1854.991
 96 11 12 16 45 59.9990000  0  7  3 23 21  1  9 31 17               -0.000583868
    549101.787 9    428226.74848  21594205.877    21594203.9954   21594208.5254
      -867.710        -676.138
   1228568.414 9    896922.90748  22018178.604    22018176.2984   22018180.6334
     -1030.044        -802.632
  -1194827.792 9   -923736.87248  20511624.194    20511621.9664   20511626.2174
       644.905         502.523
  -3120937.340 9  -2416753.91348  20278476.988    20278474.8554   20278479.1814
      1799.904        1402.523
   -435879.049 9   -336267.05847  23532668.571    23532666.5294   23532670.8294
      -166.587        -129.808
  -2651096.956 9  -2053835.25647  22560028.147    22560026.4614   22560030.7094
      1418.530        1105.348
   2936231.244 9   2274713.59647  22972689.273    22972687.2524   22972693.6394
     -2392.741       -1864.474
 96 11 12 16 46 29.9990000  0  7  3 23 21  1  9 31 17               -0.000597142
    575423.569 9    448737.20548  21599214.527    21599212.8564   21599217.3864
      -886.890        -691.083
   1259552.588 9    921066.36948  22024074.630    22024072.3444   22024076.7254
     -1035.486        -806.872
  -1214036.897 9   -938705.01548  20507968.838    20507966.5884   20507970.7964
       635.893         495.501
  -3174659.460 9  -2458615.29648  20268253.940    20268251.8734   20268256.2204
      1781.674        1388.317
   -430565.125 9   -332126.32447  23533679.584    23533677.7014   23533682.0294
      -187.442        -146.059
  -2693352.021 9  -2086761.29247  22551987.353    22551985.6564   22551989.9244
      1398.430        1089.686
   3008178.896 9   2330776.61547  22986380.343    22986378.4304   22986384.9164
     -2403.543       -1872.891
 96 11 12 16 46 59.9990000  0  7  3 23 21  1  9 31 17               -0.000610373
    602311.737 9    469689.00848  21604331.134    21604329.5194   21604334.0894
      -905.729        -705.763
   1290696.620 9    945334.41748  22030001.156    22029998.8904   22030003.1574
     -1040.755        -810.978
  -1232979.502 9   -953465.49748  20504364.215    20504361.9804   20504366.1624
       627.058         488.617
  -3227833.604 9  -2500049.68748  20258135.175    20258133.1404   20258137.5054
      1763.178        1373.905
   -424628.311 9   -327500.23547  23534809.340    23534807.4304   23534811.7674
      -208.394        -162.385
  -2735005.436 9  -2119218.51647  22544061.283    22544059.3204   22544063.6184
      1378.308        1074.006
   3080446.371 9   2387088.83947  23000132.547    23000130.6384   23000137.1194
     -2414.417       -1881.364
 96 11 12 16 47 29.9990000  0  7  3 23 21  1  9 31 17               -0.000623559
    629767.481 9    491083.07348  21609555.824    21609554.2154   21609558.7624
      -924.624        -720.486
   1321981.174 9    969711.99048  22035954.452    22035952.2184   22035956.3094
     -1044.997        -814.283
  -1251668.069 9   -968028.01948  20500807.996    20500805.7374   20500809.8134
       618.890         482.252
  -3280458.456 9  -2541056.05548  20248121.109    20248118.9834   20248123.3404
      1745.021        1359.757
   -418058.768 9   -322381.11147  23536059.563    23536057.5514   23536061.9204
      -229.646        -178.945
  -2776059.080 9  -2151208.38247  22536248.842    22536247.0884   22536251.3884
      1358.327        1058.437
   3153028.263 9   2443646.14847  23013944.666    23013942.7664   23013949.0834
     -2424.283       -1889.052
 96 11 12 16 47 59.9990000  0  7  3 23 21  1  9 31 17               -0.000636694
    657789.570 9    512918.44548  21614888.262    21614886.6894   21614891.1414
      -943.387        -735.107
   1353396.647 9    994191.58148  22041932.695    22041930.4794   22041934.4174
     -1049.502        -817.794
  -1270106.380 9   -982395.54648  20497299.202    20497297.0114   20497301.1464
       610.425         475.656
  -3332529.985 9  -2581631.26548  20238212.264    20238210.1294   20238214.4554
      1726.277        1345.151
   -410845.817 9   -316760.63347  23537432.030    23537430.1224   23537434.5014
      -251.070        -195.639
  -2816492.393 9  -2182714.86847  22528554.765    22528552.8454   22528557.2914
      1337.147        1041.933
   3225905.991 9   2500433.91946  23027813.178    23027811.0414   23027817.3714
     -2434.321       -1896.874
 96 11 12 16 48 29.9990000  0  7  3 23 21  1  9 31 17               -0.000649785
    686355.152 9    535177.32048  21620324.349    21620322.5724   21620326.9904
      -960.642        -748.552
   1384939.243 9   1018770.23048  22047935.036    22047932.8654   22047936.7524
     -1052.994        -820.515
  -1288308.136 9   -996578.74248  20493835.452    20493833.2984   20493837.4874
       603.272         470.082
  -3384042.699 9  -2621771.03148  20228409.683    20228407.5834   20228411.8574
      1708.239        1331.095
   -403015.383 9   -310659.01547  23538922.124    23538920.2584   23538924.5614
      -270.508        -210.785
  -2856293.166 9  -2213728.47347  22520980.995    22520979.0894   22520983.4684
      1316.453        1025.808
   3299087.700 9   2557458.56946  23041738.974    23041737.0964   23041743.4554
     -2444.202       -1904.573
 96 11 12 16 48 59.9990000  0  7  3 23 21  1  9 31 17               -0.000662838
    715444.424 9    557844.26248  21625859.861    21625858.1154   21625862.5394
      -978.287        -762.302
   1416595.952 9   1043437.76748  22053958.993    22053956.8674   22053960.9264
     -1057.119        -823.729
  -1306276.927 9  -1010580.40648  20490416.064    20490413.9354   20490418.1984
       595.006         463.641
  -3435005.382 9  -2661482.20948  20218711.811    20218709.6894   20218713.9844
      1689.628        1316.593
   -394604.408 9   -304105.03547  23540522.563    23540520.7974   23540525.0914
      -289.764        -225.790
  -2895458.217 9  -2244246.71447  22513528.142    22513526.2064   22513530.5634
      1294.771        1008.912
   3372580.482 9   2614725.57946  23055724.190    23055722.2784   23055728.6634
     -2454.968       -1912.962
 96 11 12 16 49 29.9990000  0  7  3 23 21  1  9 31 17               -0.000675848
    745066.041 9    580926.01548  21631496.653    21631494.9584   21631499.3564
      -996.262        -776.308
   1448387.993 9   1068210.73148  22060008.701    22060006.6154   22060010.9044
     -1062.306        -827.771
  -1323994.905 9  -1024386.63248  20487044.590    20487042.3564   20487046.6334
       586.223         456.797
  -3485405.730 9  -2700755.20148  20209120.863    20209118.7704   20209123.1224
      1670.427        1301.631
   -385621.029 9   -297105.01947  23542232.109    23542230.3194   23542234.5624
      -308.908        -240.708
  -2933961.163 9  -2274249.02947  22506200.900    22506199.3664   22506203.7384
      1272.220         991.340
   3446402.643 9   2672249.25446  23069772.065    23069770.2514   23069776.6664
     -2466.349       -1921.830
 96 11 12 16 49 59.9990000  0  7  3 23 21  1  9 31 17               -0.000688810
    775228.228 9    604428.99848  21637236.396    21637234.6854   21637239.0874
     -1013.963        -790.101
   1480352.276 9   1093117.90648  22066091.302    22066089.1554   22066093.6224
     -1067.877        -832.112
  -1341434.016 9  -1037975.55248  20483726.126    20483723.8724   20483728.1734
       577.072         449.666
  -3535215.863 9  -2739568.28548  20199642.332    20199640.2054   20199644.5834
      1651.071        1286.549
   -376069.583 9   -289662.36447  23544049.673    23544047.9144   23544052.1104
      -327.170        -254.938
  -2971779.938 9  -2303718.21847  22499004.144    22499002.7344   22499007.0114
      1249.821         973.886
   3520571.453 9   2730043.07547  23083886.184    23083884.1164   23083890.6874
     -2477.465       -1930.492
 96 11 12 16 50 29.9990000  0  7  3 23 21  1  9 31 17               -0.000701757
    805898.015 9    628327.50848  21643072.776    21643070.9844   21643075.4214
     -1031.240        -803.564
   1512461.097 9   1118137.72548  22072201.460    22072199.3354   22072203.8524
     -1073.140        -836.213
  -1358628.158 9  -1051373.59448  20480454.089    20480451.8694   20480456.2084
       568.641         443.097
  -3584479.115 9  -2777955.22448  20190267.914    20190265.7884   20190270.1244
      1632.626        1272.176
   -365994.320 9   -281811.54147  23545966.942    23545965.1544   23545969.3554
      -345.146        -268.945
  -3008971.015 9  -2332698.28047  22491926.869    22491925.4444   22491929.9294
      1229.046         957.698
   3595041.442 9   2788071.50646  23098057.234    23098055.2984   23098061.9534
     -2487.416       -1938.246
 96 11 12 16 50 59.9990000  0  7  3 23 21  1  9 31 17               -0.000714671
    837110.456 9    652648.86048  21649012.248    21649010.5144   21649014.9594
     -1049.464        -817.764
   1544760.188 9   1143305.81248  22078347.895    22078345.7664   22078350.2724
     -1080.105        -841.640
  -1375545.315 9  -1064555.80248  20477234.829    20477232.6914   20477236.9834
       559.245         435.775
  -3633164.646 9  -2815892.00448  20181003.340    20181001.2454   20181005.5744
      1613.067        1256.935
   -355342.582 9   -273511.51547  23547993.900    23547992.1444   23547996.3794
      -364.973        -284.394
  -3045517.470 9  -2361176.06047  22484972.699    22484970.9524   22484975.3964
      1207.472         940.887
   3669820.271 9   2846340.66546  23112286.942    23112285.2214   23112291.8754
     -2497.736       -1946.288
 96 11 12 16 51 29.9990000  0  7  3 23 21  1  9 31 17               -0.000727563
    868847.995 9    677379.38248  21655051.720    21655049.9534   21655054.4254
     -1066.319        -830.898
   1577250.419 9   1168622.85048  22084530.682    22084528.5454   22084533.0144
     -1085.583        -845.909
  -1392200.407 9  -1077533.80048  20474065.508    20474063.3434   20474067.6204
       551.166         429.480
  -3681278.666 9  -2853383.44448  20171847.480    20171845.4024   20171849.8064
      1594.622        1242.562
   -344105.493 9   -264755.38147  23550132.244    23550130.5554   23550134.7694
      -384.115        -299.310
  -3081446.132 9  -2389172.43647  22478135.758    22478133.9534   22478138.3194
      1187.911         925.645
   3744883.888 9   2904831.67146  23126571.154    23126569.4394   23126576.1304
     -2506.331       -1952.985
 96 11 12 16 51 59.9990000  0  7  3 23 21  1  9 31 17               -0.000740453
    901090.490 9    702503.37548  21661187.145    21661185.4744   21661189.9924
     -1083.499        -844.285
   1609891.792 9   1194057.66848  22090742.199    22090740.1074   22090744.3824
     -1090.686        -849.885
  -1408615.050 9  -1090324.44648  20470941.889    20470939.7274   20470943.9904
       543.014         423.128
  -3728836.496 9  -2890441.49148  20162797.571    20162795.4774   20162799.8484
      1575.830        1227.919
   -332291.591 9   -255549.77647  23552380.418    23552378.7254   23552382.9094
      -403.802        -314.651
  -3116791.371 9  -2416714.20347  22471410.107    22471408.0334   22471412.3614
      1168.173         910.265
   3820203.387 9   2963522.13246  23140904.076    23140902.3274   23140908.9024
     -2515.174       -1959.876
 96 11 12 16 52 29.9990000  0  7  3 23 21  1  9 31 17               -0.000753316
    933861.905 9    728039.51048  21667423.347    21667421.7084   21667426.2264
     -1101.329        -858.178
   1642698.852 9   1219621.61747  22096985.248    22096983.1444   22096987.1804
     -1096.488        -854.406
  -1424778.998 9  -1102919.73648  20467866.054    20467863.8364   20467868.0434
       534.496         416.490
  -3775818.955 9  -2927051.18948  20153857.081    20153855.0524   20153859.3834
      1556.287        1212.691
   -319864.337 9   -245866.23447  23554745.338    23554743.6254   23554747.7624
      -424.587        -330.847
  -3151531.343 9  -2443784.32147  22464799.061    22464797.2394   22464801.6384
      1147.636         894.262
   3895809.615 9   3022436.04146  23155291.477    23155289.9014   23155296.1624
     -2525.269       -1967.742
 96 11 12 16 52 59.9990000  0  7  3 23 21  1  9 31 17               -0.000766145
    967162.318 9    753987.84248  21673760.587    21673758.6534   21673763.1114
     -1118.712        -871.724
   1675662.826 9   1245307.81548  22103258.078    22103255.9984   22103259.9414
     -1101.008        -857.928
  -1440692.808 9  -1115320.12148  20464837.686    20464835.5354   20464839.8074
       526.313         410.114
  -3822224.439 9  -2963211.30548  20145026.423    20145024.3704   20145028.7124
      1537.457        1198.018
   -306829.021 9   -235708.89447  23557225.950    23557224.2024   23557228.3214
      -444.290        -346.200
  -3185656.558 9  -2470375.42447  22458305.367    22458303.4944   22458307.8874
      1127.333         878.441
   3971714.335 9   3081582.48446  23169735.936    23169734.1504   23169740.4794
     -2535.172       -1975.459
 96 11 12 16 53 29.9990000  0  7  3 23 21  1  9 31 17               -0.000778952
   1000985.091 9    780343.21148  21680196.956    21680194.9654   21680199.3964
     -1136.393        -885.501
   1708746.948 9   1271087.61448  22109553.801    22109551.6954   22109555.7284
     -1104.690        -860.797
  -1456357.509 9  -1127526.38648  20461857.027    20461854.7684   20461858.9244
       518.026         403.657
  -3868071.036 9  -2998935.92248  20136302.218    20136300.0964   20136304.4174
      1519.015        1183.648
   -293213.561 9   -225099.46847  23559816.810    23559815.1864   23559819.2874
      -463.462        -361.139
  -3219175.018 9  -2496493.71447  22451927.129    22451925.0424   22451929.4514
      1106.929         862.542
   4047913.944 9   3140958.67146  23184236.110    23184234.4254   23184240.9234
     -2544.840       -1982.992
 96 11 12 16 53 59.9990000  0  7  3 23 21  1  9 31 17               -0.000791727
   1035331.954 9    807106.96548  21686732.832    21686730.9694   21686735.4104
     -1153.478        -898.814
   1741939.710 9   1296952.04248  22115870.067    22115868.0264   22115872.2374
     -1108.458        -863.734
  -1471790.006 9  -1139551.71748  20458920.453    20458918.0684   20458922.1984
       510.692         397.942
  -3913382.249 9  -3034243.36048  20127679.640    20127677.6404   20127681.9824
      1501.605        1170.082
   -279034.527 9   -214050.89447  23562514.965    23562513.3374   23562517.4654
      -481.873        -375.485
  -3252078.072 9  -2522132.47147  22445665.873    22445663.8114   22445668.2994
      1086.432         846.570
   4124386.080 9   3200547.29246  23198788.381    23198786.7674   23198793.2564
     -2553.522       -1989.757
 96 11 12 16 54 29.9990000  0  7  3 23 21  1  9 31 17               -0.000804469
   1070195.360 9    834273.21348  21693366.973    21693365.2674   21693369.7464
     -1171.020        -912.483
   1775259.021 9   1322915.08548  22122210.542    22122208.5194   22122212.8564
     -1113.157        -867.395
  -1486992.573 9  -1151397.89048  20456027.311    20456025.0894   20456029.3104
       502.306         391.407
  -3958165.739 9  -3069139.58648  20119157.607    20119155.6204   20119159.9534
      1483.492        1155.968
   -264299.733 9   -202569.24947  23565318.827    23565317.2794   23565321.4334
      -500.587        -390.068
  -3284363.388 9  -2547289.86847  22439522.312    22439520.0954   22439524.6804
      1065.466         830.233
   4201123.677 9   3260342.68246  23213391.235    23213389.5094   23213396.1114
     -2562.584       -1996.819
 96 11 12 16 54 59.9990000  0  7  3 23 21  1  9 31 17               -0.000817186
   1105574.191 9    861841.10048  21700099.199    21700097.6144   21700102.1494
     -1187.797        -925.556
   1808717.036 9   1348986.21848  22128577.470    22128575.4304   22128579.8434
     -1117.670        -870.912
  -1501941.891 9  -1163046.72448  20453182.550    20453180.3874   20453184.5604
       494.069         384.989
  -4002409.686 9  -3103615.38548  20110738.172    20110736.3204   20110740.6414
      1465.839        1142.212
   -249015.119 9   -190659.17047  23568227.405    23568225.8464   23568230.0404
      -518.812        -404.269
  -3316019.553 9  -2571957.03447  22433498.129    22433496.1124   22433500.7064
      1044.696         814.049
   4278121.980 9   3320341.27746  23228043.495    23228041.8984   23228048.5404
     -2571.027       -2003.398
 96 11 12 16 55 29.9990000  0  7  3 23 21  1  9 31 17               -0.000829879
   1141446.778 9    889793.72848  21706925.477    21706923.9244   21706928.5454
     -1204.401        -938.494
   1842315.434 9   1375166.75248  22134970.986    22134969.0004   22134973.4954
     -1122.953        -875.028
  -1516656.031 9  -1174512.29848  20450382.520    20450380.3814   20450384.5104
       486.288         378.926
  -4046130.658 9  -3137683.67748  20102418.414    20102416.5214   20102420.8484
      1448.223        1128.485
   -233187.954 9   -178326.32147  23571239.219    23571237.6264   23571241.8554
      -537.174        -418.577
  -3347057.095 9  -2596142.14747  22427591.943    22427589.8584   22427594.4304
      1023.763         797.737
   4355366.752 9   3380532.00146  23242742.846    23242741.2134   23242747.5534
     -2579.273       -2009.823
 96 11 12 16 55 59.9990000  0  7  3 23 21  1  9 31 17               -0.000842544
   1177808.309 9    918127.35348  21713845.010    21713843.3304   21713848.0084
     -1220.524        -951.058
   1876073.946 9   1401472.05548  22141395.014    22141393.0144   22141397.4904
     -1128.544        -879.385
  -1531146.302 9  -1185803.43048  20447625.075    20447622.9434   20447627.1144
       478.688         373.004
  -4089316.374 9  -3171334.88048  20094200.485    20094198.5344   20094202.8444
      1429.676        1114.033
   -216811.642 9   -165565.56047  23574355.443    23574353.8824   23574358.1844
      -555.563        -432.906
  -3377472.941 9  -2619842.82747  22421804.172    22421801.9104   22421806.3834
      1003.029         781.581
   4432862.134 9   3440917.86146  23257489.713    23257488.0374   23257494.6584
     -2588.261       -2016.827
 96 11 12 16 56 29.9990000  0  7  3 23 21  1  9 31 17               -0.000855192
   1214651.235 9    946836.09348  21720855.949    21720854.3404   21720859.0224
     -1235.760        -962.930
   1909995.104 9   1427904.10647  22147849.952    22147847.9734   22147852.3604
     -1132.776        -882.683
  -1545399.616 9  -1196909.93048  20444912.683    20444910.5984   20444914.8194
       471.436         367.353
  -4131929.588 9  -3204539.98348  20086091.245    20086089.4654   20086093.8054
      1411.296        1099.711
   -199881.576 9   -152373.30447  23577577.196    23577575.6384   23577579.8924
      -573.135        -446.599
  -3407271.779 9  -2643062.71247  22416133.786    22416131.3674   22416135.9244
       983.291         766.201
   4510636.399 9   3501521.09146  23272289.766    23272288.0724   23272294.8124
     -2596.621       -2023.341
 96 11 12 16 56 59.9990000  0  7  3 23 21  1  9 31 17               -0.000867830
   1251965.466 9    975912.08148  21727956.462    21727955.0074   21727959.6654
     -1251.372        -975.095
   1944049.323 9   1454439.84047  22154330.191    22154328.2714   22154332.5714
     -1136.900        -885.896
  -1559421.788 9  -1207836.30848  20442244.284    20442242.2534   20442246.4524
       463.998         361.557
  -4173988.564 9  -3237313.21348  20078087.742    20078085.9144   20078090.2754
      1393.279        1085.672
   -182403.661 9   -138754.15247  23580903.188    23580901.5694   23580905.8484
      -591.531        -460.933
  -3436459.999 9  -2665806.80047  22410579.448    22410577.0784   22410581.6564
       963.111         750.476
   4588677.442 9   3562332.21146  23287140.618    23287138.8054   23287145.6714
     -2605.509       -2030.267
 96 11 12 16 57 29.9990000  0  7  3 23 21  1  9 31 17               -0.000880452
   1289750.062 9   1005354.59148  21735146.668    21735145.1934   21735149.8794
     -1268.050        -988.091
   1978217.450 9   1481064.33448  22160832.181    22160830.2594   22160834.5324
     -1141.416        -889.415
  -1573223.960 9  -1218591.26548  20439617.754    20439615.7744   20439620.0194
       455.614         355.024
  -4215510.201 9  -3269667.73748  20070186.430    20070184.6294   20070188.9324
      1374.233        1070.831
   -164376.568 9   -124707.06447  23584333.614    23584332.0194   23584336.2554
      -610.833        -475.974
  -3465043.158 9  -2688079.41347  22405139.999    22405137.9304   22405142.3934
       941.879         733.932
   4666977.961 9   3623345.54146  23302040.615    23302038.8184   23302045.8644
     -2615.069       -2037.716
 96 11 12 16 57 59.9990000  0  7  3 23 21  1  9 31 17               -0.000893045
   1328026.202 9   1035180.12548  21742430.529    21742428.9334   21742433.6534
     -1283.895       -1000.438
   2012517.006 9   1507791.23848  22167359.284    22167357.3274   22167361.6074
     -1145.388        -892.510
  -1586773.129 9  -1229149.07048  20437039.464    20437037.5214   20437041.8124
       447.322         348.562
  -4256456.152 9  -3301573.66948  20062394.717    20062392.9274   20062397.2234
      1355.367        1056.130
   -145764.476 9   -110204.14147  23587875.394    23587873.8184   23587878.0444
      -630.151        -491.027
  -3492994.963 9  -2709860.05747  22399821.335    22399818.9554   22399823.4254
       921.300         717.896
   4745566.588 9   3684583.30846  23316995.657    23316993.9004   23317000.9934
     -2624.363       -2044.958
 96 11 12 16 58 29.9990000  0  7  3 23 21  1  9 31 17               -0.000905629
   1366770.132 9   1065370.17848  21749803.143    21749801.6644   21749806.4204
     -1299.342       -1012.474
   2046915.539 9   1534595.25448  22173905.109    22173903.1924   22173907.5174
     -1148.083        -894.610
  -1600077.860 9  -1239516.40248  20434507.650    20434505.7584   20434509.9804
       439.427         342.411
  -4296866.760 9  -3333062.45648  20054704.837    20054703.0034   20054707.3844
      1338.661        1043.112
   -126586.029 9    -95259.90547  23591524.945    23591523.3664   23591527.6264
      -648.554        -505.367
  -3520343.405 9  -2731170.54247  22394616.843    22394614.6834   22394619.2624
       901.659         702.591
   4824405.870 9   3746016.45346  23331998.228    23331996.5264   23332003.5274
     -2631.861       -2050.801
 96 11 12 16 58 59.9990000  0  7  3 23 21  1  9 31 17               -0.000918193
   1405986.243 9   1095928.15448  21757265.744    21757264.2774   21757269.0154
     -1314.878       -1024.580
   2081407.822 9   1561472.31648  22180468.867    22180466.9514   22180471.3134
     -1151.491        -897.266
  -1613140.760 9  -1249695.29848  20432021.984    20432020.0724   20432024.2254
       431.578         336.295
  -4336772.651 9  -3364157.95848  20047110.998    20047109.1734   20047113.5384
      1321.725        1029.916
   -106850.918 9    -79881.91147  23595280.416    23595278.8534   23595283.1224
      -667.000        -519.740
  -3547100.127 9  -2752019.96847  22389525.262    22389523.0614   22389527.5574
       882.261         687.476
   4903487.329 9   3807638.23146  23347047.107    23347045.2254   23347052.2694
     -2640.251       -2057.338
 96 11 12 16 59 29.9990000  0  7  3 23 21  1  9 31 17               -0.000930733
   1445677.532 9   1126856.40748  21764818.889    21764817.3394   21764822.0314
     -1330.527       -1036.774
   2116020.001 9   1588442.80648  22187055.450    22187053.5274   22187057.9504
     -1155.458        -900.357
  -1625955.112 9  -1259680.52548  20429583.528    20429581.6034   20429585.7794
       423.358         329.889
  -4376150.878 9  -3394842.29048  20039617.539    20039615.7694   20039620.0824
      1303.986        1016.093
    -86546.258 9    -64060.12047  23599144.196    23599142.6814   23599147.0024
      -685.947        -534.504
  -3573263.442 9  -2772406.97947  22384546.472    22384544.3524   22384548.8324
       862.712         672.243
   4982839.270 9   3869470.85346  23362147.249    23362145.5354   23362152.4664
     -2649.178       -2064.294
 96 11 12 16 59 59.9990000  0  7  3 23 21  1  9 31 17               -0.000943260
   1485832.402 9   1158145.88248  21772459.980    21772458.5974   21772463.3054
     -1347.183       -1049.753
   2150749.553 9   1615504.75548  22193664.241    22193662.3634   22193666.8904
     -1160.495        -904.282
  -1638527.809 9  -1269477.44148  20427191.106    20427189.1344   20427193.2624
       414.153         322.717
  -4414998.827 9  -3425113.41648  20032224.999    20032223.2664   20032227.5504
      1285.277        1001.514
    -65676.400 9    -47797.91447  23603115.637    23603114.1034   23603118.4154
      -705.823        -549.992
  -3598849.361 9  -2792344.08147  22379677.472    22379675.6064   22379680.1594
       842.448         656.453
   5062452.268 9   3931506.84246  23377297.179    23377295.4574   23377302.4754
     -2658.894       -2071.865
 96 11 12 17  0 29.9990000  0  8 25  3 23 21  1  9 31 17            -0.000955772
   -263510.37718   -190587.77155  24445141.900           0.0005          0.0005
      3928.734        3061.351
   1526461.029 9   1189804.52148  21780191.352    21780190.0024   21780194.6944
     -1362.443       -1061.644
   2185592.209 9   1642654.81747  22200294.582    22200292.6544   22200297.2754
     -1163.673        -906.758
  -1650855.238 9  -1279083.24848  20424845.094    20424843.2114   20424847.3994
       406.683         316.896
  -4453318.623 9  -3454973.00348  20024933.008    20024931.2074   20024935.5514
      1268.211         988.216
    -44255.500 9    -31106.33447  23607191.957    23607190.3844   23607194.6854
      -723.358        -563.656
  -3623860.308 9  -2811833.14447  22374918.071    22374916.2574   22374920.7994
       823.812         641.931
   5142327.432 9   3993747.13846  23392496.909    23392495.3244   23392502.3574
     -2667.274       -2078.395
 96 11 12 17  0 59.9990000  0  8 25  3 23 21  1  9 31 17            -0.000968269
   -381405.312 8   -282453.83555  24422708.996           0.0005   24422717.9185
      3930.461        3062.697
   1567551.924 9   1221823.36348  21788010.758    21788009.3664   21788014.0434
     -1377.255       -1073.186
   2220554.413 9   1669898.04247  22206947.523    22206945.6884   22206950.3084
     -1167.646        -909.854
  -1662948.490 9  -1288506.57748  20422543.735    20422541.9594   20422546.2284
       399.021         310.925
  -4491102.310 9  -3484414.83948  20017742.878    20017741.2244   20017745.5914
      1250.232         974.207
    -22290.263 9    -13990.59547  23611371.778    23611370.2534   23611374.5674
      -741.608        -577.876
  -3648292.667 9  -2830871.36247  22370268.749    22370266.9744   22370271.4884
       804.385         626.793
   5222479.134 8   4056202.90246  23407749.495    23407747.7334   23407754.8774
     -2676.392       -2085.500
 96 11 12 17  1 29.9990000  0  8 25  3 23 21  1  9 31 17            -0.000980745
   -499338.356 8   -374349.68855  24400269.987    24400266.4675   24400273.0255
      3932.201        3064.053
   1609100.674 9   1254198.98248  21795917.254    21795915.8264   21795920.5124
     -1392.345       -1084.944
   2255649.004 9   1697244.45547  22213625.855    22213624.0004   22213628.4464
     -1171.590        -912.927
  -1674792.908 9  -1297736.00648  20420289.995    20420288.0954   20420292.3094
       391.009         304.682
  -4528333.811 9  -3513426.39648  20010658.119    20010656.3604   20010660.6914
      1232.232         960.181
       244.126 9      3568.64447  23615659.922    23615658.4464   23615662.7694
      -760.330        -592.465
  -3672118.898 9  -2849437.27647  22365735.160    22365733.0204   22365737.4724
       784.352         611.183
   5302898.613 8   4118867.34846  23423053.076    23423051.2254   23423058.1664
     -2684.460       -2091.787
 96 11 12 17  1 59.9990000  0  8 25  3 23 21  1  9 31 17            -0.000993202
   -617320.741 8   -466283.94745  24377817.759    24377814.4645   24377821.6904
      3933.006        3064.680
   1651100.423 9   1286926.02148  21803909.349    21803908.1704   21803912.8024
     -1407.949       -1097.103
   2290862.487 9   1724683.53547  22220326.817    22220324.9824   22220329.2844
     -1176.318        -916.611
  -1686398.680 9  -1306779.47748  20418081.506    20418079.6144   20418083.7844
       382.409         297.981
  -4565024.673 9  -3542016.68048  20003675.954    20003674.3004   20003678.6394
      1213.634         945.689
     23336.780 9     21562.89447  23620054.268    23620052.8604   23620057.1534
      -779.465        -607.375
  -3695341.681 9  -2867532.96847  22361315.841    22361313.8484   22361318.3764
       763.373         594.836
   5383560.793 9   4181720.88646  23438402.505    23438400.7274   23438407.7794
     -2693.416       -2098.766
 96 11 12 17  2 29.9990000  0  8 25  3 23 21  1  9 31 17            -0.001005631
   -735342.826 8   -558249.18045  24355359.243    24355355.9824   24355362.9154
      3934.590        3065.914
   1693544.695 9   1319999.44848  21811986.430    21811985.0784   21811989.6644
     -1422.183       -1108.195
   2326205.749 9   1752223.74648  22227052.459    22227050.6774   22227054.9214
     -1180.531        -919.894
  -1697759.252 9  -1315631.89048  20415919.617    20415917.7764   20415922.0424
       374.459         291.786
  -4601176.456 9  -3570186.89448  19996796.456    19996794.8344   19996799.1314
      1196.063         931.997
     46982.014 9     39987.73247  23624553.692    23624552.3554   23624556.7204
      -797.395        -621.347
  -3717948.735 9  -2885148.87147  22357013.938    22357011.8834   22357016.4304
       743.200         579.117
   5464479.060 8   4244773.97446  23453800.640    23453799.0404   23453806.1194
     -2701.512       -2105.074
 96 11 12 17  2 59.9980000  0  8 25  3 23 21  1  9 31 17            -0.001018036
   -853402.479 9   -650243.62445  24332892.506    24332890.2314   24332896.9364
      3935.550        3066.662
   1736420.737 9   1353409.31148  21820145.298    21820144.1824   21820148.7344
     -1437.066       -1119.792
   2361690.555 9   1779874.22848  22233805.095    22233803.3014   22233807.5754
     -1185.915        -924.090
  -1708871.340 9  -1324290.68148  20413805.020    20413803.2104   20413807.5234
       365.576         284.864
  -4636791.391 9  -3597938.79648  19990019.150    19990017.5344   19990021.8434
      1177.607         917.616
     71178.851 9     58842.38947  23629158.282    23629156.9134   23629161.2454
      -816.459        -636.202
  -3739929.235 9  -2902276.55347  22352831.141    22352829.1604   22352833.6874
       721.482         562.194
   5545642.674 8   4308018.23545  23469245.568    23469243.9084   23469251.1474
     -2710.256       -2111.888
 96 11 12 17  3 29.9980000  0  8 25  3 23 21  1  9 31 17            -0.001030407
   -971503.435 8   -742270.33645  24310418.805    24310416.2324   24310423.2194
      3937.724        3068.356
   1779748.073 9   1387170.83148  21828390.458    21828389.1314   21828393.6974
     -1451.618       -1131.131
   2397335.456 9   1807649.44848  22240588.032    22240586.3224   22240590.6884
     -1190.545        -927.697
  -1719727.459 9  -1332750.00448  20411739.195    20411737.3954   20411741.6584
       358.069         279.015
  -4671857.451 9  -3625262.99348  19983346.393    19983344.7454   19983349.0124
      1160.016         903.909
     95938.050 9     78135.23947  23633869.779    23633868.4624   23633872.7664
      -834.145        -649.983
  -3761271.956 9  -2918907.25447  22348769.772    22348767.7704   22348772.3694
       701.274         546.447
   5627060.802 8   4371460.78146  23484739.256    23484737.3334   23484744.6164
     -2717.909       -2117.851
 96 11 12 17  3 59.9980000  0  8 25  3 23 21  1  9 31 17            -0.001042746
  -1089638.404 9   -834323.43146  24287938.576    24287935.9674   24287942.9374
      3938.696        3069.114
   1823541.949 9   1421295.89448  21836724.143    21836722.8604   21836727.4214
     -1467.188       -1143.263
   2433153.470 9   1835559.52148  22247403.896    22247402.1774   22247406.7264
     -1196.427        -932.281
  -1730331.077 9  -1341012.57048  20409721.386    20409719.5904   20409723.8774
       349.687         272.483
  -4706365.252 9  -3652152.18348  19976779.658    19976778.1214   19976782.4054
      1141.455         889.445
    121242.766 9     97853.19346  23638685.057    23638683.7864   23638688.1434
      -852.042        -663.929
  -3781987.157 9  -2935048.98747  22344827.828    22344825.8324   22344830.3884
       680.469         530.236
   5708746.183 8   4435111.62146  23500283.674    23500281.6274   23500288.9334
     -2726.865       -2124.830
 96 11 12 17  4 29.9980000  0  8 25  3 23 21  1  9 31 17            -0.001055071
  -1207834.772 9   -926424.44946  24265446.301    24265444.0074   24265451.0064
      3940.655        3070.640
   1867778.380 9   1455765.80548  21845141.943    21845140.7634   21845145.3664
     -1482.500       -1155.195
   2469128.830 9   1863592.18348  22254249.635    22254247.9334   22254252.7344
     -1202.224        -936.798
  -1740710.292 9  -1349100.28148  20407746.237    20407744.4774   20407748.7684
       341.865         266.388
  -4740343.502 9  -3678628.74048  19970313.754    19970312.2634   19970316.6034
      1123.366         875.350
    147059.299 9    117969.95346  23643597.859    23643596.4914   23643600.9194
      -869.493        -677.527
  -3802107.451 9  -2950727.15547  22340999.150    22340997.0374   22341001.7224
       660.354         514.562
   5790666.904 8   4498945.82146  23515872.712    23515870.6834   23515878.0374
     -2734.917       -2131.104
 96 11 12 17  4 59.9980000  0  8 25  3 23 21  1  9 31 17            -0.001067372
  -1326086.326 9  -1018568.40746  24242943.068    24242941.4154   24242948.3994
      3943.007        3072.473
   1912482.503 9   1490600.14848  21853648.812    21853647.6704   21853652.3224
     -1497.389       -1166.797
   2505274.325 9   1891757.45448  22261127.868    22261126.2014   22261131.0904
     -1207.006        -940.524
  -1750858.710 9  -1357008.15648  20405814.933    20405813.2394   20405817.5734
       334.978         261.022
  -4773775.307 9  -3704679.49848  19963951.947    19963950.4074   19963954.7424
      1105.785         861.651
    173409.845 9    138502.83746  23648612.186    23648610.8564   23648615.2804
      -886.866        -691.064
  -3821619.288 9  -2965931.20047  22337285.943    22337284.0144   22337288.6644
       640.886         499.392
   5872828.948 8   4562968.06546  23531508.007    23531505.7944   23531513.0864
     -2742.216       -2136.792
 96 11 12 17  5 29.9980000  0  8 25  3 23 21  1  9 31 17            -0.001079657
  -1444390.688 9  -1110753.56646  24220430.635    24220428.6944   24220435.8574
      3943.929        3073.191
   1957648.284 9   1525794.22248  21862243.692    21862242.4204   21862247.1764
     -1513.473       -1179.330
   2541565.143 9   1920036.00448  22268033.944    22268032.2514   22268036.9934
     -1212.262        -944.620
  -1760790.317 9  -1364747.08248  20403925.064    20403923.4224   20403927.6974
       327.112         254.892
  -4806671.202 9  -3730312.65948  19957692.021    19957690.4894   19957694.8194
      1087.458         847.370
    200290.130 9    159448.49346  23653727.341    23653725.9934   23653730.4664
      -904.991        -705.188
  -3840550.944 9  -2980683.16647  22333683.493    22333681.5054   22333686.0694
       621.034         483.923
   5955212.242 9   4627162.72846  23547184.885    23547182.8524   23547190.1504
     -2749.988       -2142.848
 96 11 12 17  5 59.9980000  0  8 25  3 23 21  1  9 31 17            -0.001091917
  -1562714.948 8  -1202954.25245  24197914.506    24197912.4374   24197919.4954
      3944.300        3073.481
   2003282.556 9   1561353.36348  21870927.468    21870926.3274   21870931.1814
     -1528.659       -1191.163
   2578001.444 9   1948427.94847  22274967.669    22274965.9904   22274970.3814
     -1216.649        -948.038
  -1770490.653 9  -1372305.80248  20402079.268    20402077.5364   20402081.8154
       319.586         249.028
  -4839030.986 9  -3755528.07548  19951534.152    19951532.5844   19951536.9344
      1069.970         833.743
    227707.071 9    180812.31946  23658944.647    23658943.3094   23658947.7564
      -922.877        -719.125
  -3858887.566 9  -2994971.45847  22330193.779    22330192.1414   22330196.6984
       601.182         468.454
   6037820.213 9   4691532.48646  23562904.966    23562902.7824   23562910.0154
     -2757.250       -2148.506
 96 11 12 17  6 29.9980000  0  8 25  3 23 21  1  9 31 17            -0.001104137
  -1681036.298 8  -1295152.59345  24175399.015    24175396.5984   24175403.5874
      3944.371        3073.536
   2049385.569 9   1597277.75548  21879700.509    21879699.4344   21879704.3494
     -1544.073       -1203.174
   2614578.765 9   1976929.79247  22281928.178    22281926.4964   22281930.6844
     -1221.021        -951.445
  -1779946.985 9  -1379674.37348  20400279.925    20400278.1714   20400282.2764
       311.545         242.762
  -4870851.107 9  -3780322.97448  19945479.088    19945477.4624   19945481.8334
      1052.131         819.842
    255679.599 9    202609.08146  23664267.552    23664266.3254   23664270.7724
      -941.107        -733.330
  -3876604.863 9  -3008777.16547  22326822.605    22326820.6454   22326825.2854
       580.703         452.496
   6120665.783 9   4756087.35746  23578669.901    23578667.8114   23578675.0894
     -2765.094       -2154.619
 96 11 12 17  6 59.9980000  0  9 25  3 15 23 21  1  9 31 17         -0.001116323
  -1799340.390 9  -1387337.56146  24152886.195    24152884.0794   24152891.0234
      3943.167        3072.598
   2095949.165 9   1633561.03948  21888561.349    21888560.2364   21888565.1044
     -1559.347       -1215.076
  -2416682.44119   -267770.13255  24633362.936    24633276.3985   24633361.1005
      4227.980        3294.530
   2651279.871 9   2005528.06047  22288912.130    22288910.4864   22288914.7174
     -1225.224        -954.720
  -1789154.555 9  -1386849.11948  20398527.737    20398525.9934   20398530.1184
       302.793         235.943
  -4902136.460 9  -3804701.17148  19939525.662    19939524.0674   19939528.4584
      1034.174         805.850
    284197.953 9    224831.14746  23669694.402    23669693.1864   23669697.6344
      -959.489        -747.654
  -3893708.896 9  -3022104.99147  22323567.575    22323565.8254   22323570.6124
       560.234         436.546
   6203752.106 9   4820829.81746  23594480.748    23594478.7754   23594486.0804
     -2773.349       -2161.051
 96 11 12 17  7 29.9980000  0  9 25  3 15 23 21  1  9 31 17         -0.001128479
  -1917617.887 9  -1479501.81145  24130378.375    24130376.3604   24130383.5754
      3941.773        3071.511
   2142952.411 9   1670186.89448  21897505.913    21897504.6994   21897509.5244
     -1574.567       -1226.935
  -2543510.856 9   -366597.60655  24609227.185    24609142.1524   24609224.3245
      4226.667        3293.507
   2688098.077 9   2034217.52947  22295918.249    22295916.6464   22295921.0934
     -1229.771        -958.263
  -1798109.080 9  -1393826.69148  20396823.695    20396822.0014   20396826.1624
       293.832         228.960
  -4932899.721 9  -3828672.54948  19933671.691    19933669.9834   19933674.4304
      1016.249         791.882
    313250.285 9    247469.30146  23675222.843    23675221.6494   23675226.0804
      -977.735        -761.871
  -3910214.902 9  -3034966.83447  22320426.596    22320424.8654   22320429.6104
       539.600         420.468
   6287075.827 9   4885757.36146  23610336.801    23610334.7834   23610341.9964
     -2782.079       -2167.854
 96 11 12 17  7 59.9980000  0  9 25  3 15 23 21  1  9 31 17         -0.001140586
  -2035847.469 9  -1571628.70845  24107879.957    24107878.1254   24107885.0094
      3939.949        3070.090
   2190413.362 9   1707169.41848  21906537.189    21906536.2284   21906541.0334
     -1589.978       -1238.944
  -2670293.829 9   -465389.50745  24585100.445    24585093.4355   24585099.2324
      4224.952        3292.170
   2725063.254 9   2063021.49647  22302952.366    22302950.8334   22302955.4394
     -1234.969        -962.314
  -1806784.394 9  -1400586.68948  20395172.845    20395171.1744   20395175.3694
       284.133         221.402
  -4963113.132 9  -3852215.46548  19927922.060    19927920.5584   19927924.9924
       997.480         777.257
    342864.237 9    270545.07946  23680858.180    23680857.0294   23680861.4734
      -997.057        -776.928
  -3926092.744 9  -3047339.19547  22317405.123    22317403.4424   22317408.1054
       518.636         404.132
   6370680.980 9   4950904.07746  23626246.452    23626244.3814   23626251.6774
     -2792.023       -2175.602
 96 11 12 17  8 29.9980000  0  9 25  3 15 23 21  1  9 31 17         -0.001152649
  -2154036.095 9  -1663723.71146  24085388.890    24085387.6934   24085394.4014
      3939.631        3069.842
   2238331.700 9   1744508.33648  21915656.209    21915654.8084   21915659.6334
     -1604.197       -1250.024
  -2797021.205 8   -564138.09545  24560983.521    24560978.4144   24560984.7094
      4224.089        3291.498
   2762181.243 9   2091944.53948  22310015.841    22310014.1884   22310018.8364
     -1239.261        -965.658
  -1815169.145 9  -1407120.27048  20393577.291    20393575.6084   20393579.7794
       275.251         214.481
  -4992764.086 9  -3875320.11148  19922279.655    19922278.1564   19922282.5684
       979.559         763.293
    373057.839 9    294072.53346  23686603.823    23686602.7264   23686607.1764
     -1015.430        -791.244
  -3941355.083 9  -3059231.93947  22314500.749    22314499.1524   22314503.7554
       499.221         389.003
   6454581.031 9   5016280.69446  23642212.128    23642210.1204   23642217.5194
     -2800.801       -2182.442
 96 11 12 17  8 59.9980000  0  9 25  3 15 23 21  1  9 31 17         -0.001164697
  -2272221.314 9  -1755816.05646  24062899.339    24062897.8014   24062904.3914
      3939.225        3069.526
   2286660.614 9   1782167.18848  21924852.821    21924851.4784   21924856.3644
     -1618.047       -1260.816
  -2923720.254 8   -662864.57146  24536873.186    24536868.6324   24536875.0384
      4222.292        3290.098
   2799421.035 9   2120962.52648  22317102.365    22317100.7184   22317105.4414
     -1243.897        -969.270
  -1823297.823 9  -1413454.31748  20392030.454    20392028.8104   20392033.0034
       266.389         207.576
  -5021882.490 9  -3898009.77948  19916738.631    19916737.0884   19916741.5244
       961.247         749.024
    403798.432 9    318026.20746  23692453.663    23692452.5384   23692456.9054
     -1034.338        -805.978
  -3956046.828 9  -3070680.07647  22311705.326    22311703.4174   22311707.9894
       479.573         373.693
   6538733.285 9   5081853.72846  23658225.715    23658223.8634   23658231.2424
     -2809.647       -2189.335
 96 11 12 17  9 29.9980000  0  9 25  3 15 23 21  1  9 31 17         -0.001176728
  -2390419.383 9  -1847918.42746  24040406.623    24040405.4934   24040412.0954
      3939.923        3070.070
   2335389.141 9   1820137.43448  21934125.371    21934124.2284   21934129.1494
     -1631.302       -1271.144
  -3050386.353 8   -761565.44345  24512769.327    24512765.4274   24512771.3204
      4221.436        3289.431
   2836788.953 9   2150080.35948  22324213.246    22324211.6684   22324216.4064
     -1248.026        -972.488
  -1831183.653 9  -1419599.12448  20390529.861    20390528.2464   20390532.4344
       258.573         201.485
  -5050465.670 9  -3920282.38848  19911299.440    19911297.9334   19911302.3914
       943.423         735.135
    435089.958 9    342409.18946  23698408.144    23698407.0914   23698411.5624
     -1052.431        -820.076
  -3970152.075 9  -3081671.18947  22309020.881    22309019.2614   22309023.8574
       459.766         358.259
   6623134.502 9   5147620.83946  23674286.713    23674285.0484   23674292.3854
     -2817.914       -2195.777
 96 11 12 17  9 59.9980000  0  9 25  3 15 23 21  1  9 31 17         -0.001188736
  -2508625.538 9  -1940027.03846  24017912.726    24017911.5064   24017918.1784
      3940.023        3070.148
   2384518.641 9   1858420.11348  21943474.471    21943473.3074   21943478.2354
     -1644.478       -1281.411
  -3177013.274 8   -860235.81645  24488672.638    24488668.5354   24488674.6034
      4219.893        3288.228
   2874297.394 9   2179307.69248  22331350.929    22331349.3684   22331354.1074
     -1253.013        -976.374
  -1838824.386 9  -1425552.95448  20389075.769    20389074.2124   20389078.3994
       250.391         195.110
  -5078496.122 9  -3942124.30648  19905965.408    19905963.8954   19905968.4494
       924.891         720.694
    466937.206 9    367225.20346  23704468.505    23704467.4054   23704471.8994
     -1070.944        -834.502
  -3983649.782 9  -3092188.90447  22306452.418    22306450.7994   22306455.3964
       439.534         342.494
   6707792.559 8   5213588.02645  23690396.712    23690394.9964   23690402.4884
     -2826.467       -2202.442
 96 11 12 17 10 29.9980000  0  9 25  3 15 23 21  1  9 31 17         -0.001200725
  -2626839.843 9  -2032142.02246  23995417.071    23995415.9784   23995422.7684
      3940.701        3070.676
   2434038.093 9   1897006.66048  21952897.852    21952896.5974   21952901.5544
     -1657.014       -1291.180
  -3303609.587 9   -958882.27245  24464581.984    24464578.2874   24464584.3654
      4219.490        3287.914
   2911954.852 9   2208651.13847  22338516.950    22338515.3924   22338520.1334
     -1257.599        -979.947
  -1846229.145 9  -1431322.89948  20387666.686    20387665.1764   20387669.2754
       243.015         189.362
  -5105977.618 9  -3963538.46548  19900735.838    19900734.3204   19900738.8414
       907.008         706.759
    499316.596 9    392455.86646  23710630.118    23710629.1134   23710633.4864
     -1087.821        -847.653
  -3996537.147 9  -3102231.02447  22304000.074    22303998.3774   22304003.1114
       419.340         326.758
   6792691.33817   5279742.78054  23706552.746    23706550.9405          0.0005
     -2833.670       -2208.055
 96 11 12 17 10 59.9980000  0  9 25  3 15 23 21  1  9 31 17         -0.001212690
  -2745044.203 9  -2124249.27546  23972923.228    23972922.5514   23972929.2394
      3939.860        3070.021
   2483957.877 9   1935905.14148  21962397.519    21962396.1244   21962401.0424
     -1670.802       -1301.924
  -3430159.429 9  -1057492.55345  24440500.307    24440497.1184   24440503.0464
      4217.428        3286.308
   2949776.147 9   2238122.24947  22345714.027    22345712.5074   22345717.3064
     -1263.638        -984.653
  -1853389.512 9  -1436902.41348  20386304.223    20386302.7024   20386306.7654
       234.351         182.611
  -5132895.099 9  -3984513.13048  19895613.556    19895612.1024   19895616.5454
       887.677         691.696
    532221.501 9    418096.02546  23716891.813    23716890.7194   23716895.1764
     -1105.765        -861.635
  -4008790.691 9  -3111779.26347  22301668.186    22301666.5864   22301671.3414
       397.729         309.919
   6877831.15517   5346085.36854  23722754.692    23722750.5585          0.0005
     -2842.084       -2214.611
 96 11 12 17 11 29.9980000  0  9 25  3 15 23 21  1  9 31 17         -0.001224623
  -2863230.717 9  -2216342.57846  23950433.055    23950432.3824   23950439.0474
      3939.333        3069.610
   2534295.911 9   1975129.53848  21971976.657    21971975.1794   21971980.1354
     -1684.931       -1312.933
  -3556652.262 8  -1156058.39945  24416429.357    24416426.4434   24416432.3554
      4215.594        3284.878
   2987774.249 9   2267731.13247  22352944.782    22352943.2964   22352948.0614
     -1269.303        -989.067
  -1860287.504 9  -1442277.48548  20384991.584    20384990.0734   20384994.2234
       225.628         175.814
  -5159237.736 9  -4005039.85748  19890600.723    19890599.2734   19890603.7364
       868.759         676.955
    565660.831 8    444152.64046  23723255.038    23723254.1404   23723258.5074
     -1123.360        -875.345
  -4020404.696 9  -3120829.15047  22299458.071    22299456.4944   22299461.2594
       376.829         293.633
   6963216.17217   5412619.05054  23739003.420           0.0005          0.0005
     -2849.814       -2220.634
 96 11 12 17 11 59.9980000  0  9 25  3 15 23 21  1  9 31 17         -0.001236524
  -2981385.217 9  -2308410.95446  23927948.581    23927948.2644   23927954.9884
      3938.244        3068.762
   2585065.830 9   2014690.47748  21981637.529    21981636.3424   21981641.3914
     -1699.393       -1324.202
  -3683082.379 8  -1254575.29545  24392369.827    24392367.2304   24392373.4504
      4213.397        3283.166
   3025945.552 9   2297474.98847  22360208.373    22360206.9344   22360211.7514
     -1274.897        -993.426
  -1866918.826 9  -1447444.76048  20383729.659    20383728.1494   20383732.3434
       216.879         168.997
  -5185015.407 9  -4025126.35648  19885695.259    19885693.9504   19885698.4404
       850.301         662.572
    599635.851 8    470626.67045  23729720.287    23729719.2684   23729723.6094
     -1141.156        -889.212
  -4031395.111 9  -3129393.12347  22297366.797    22297365.1154   22297369.8704
       356.416         277.727
   7048829.18416     37311.39352  23755294.418           0.0005          0.0005
     -2849.545       -2220.425
 96 11 12 17 12 29.9980000  0  8 25  3 15 23 21  1  9 31            -0.001248396
  -3099524.376 9  -2400467.37446  23905467.868    23905467.0804   23905473.8924
      3936.711        3067.567
   2636267.728 9   2054588.01548  21991381.002    21991379.7594   21991384.8524
     -1714.722       -1336.147
  -3809454.205 9  -1353046.86645  24368321.994    24368319.4464   24368325.3494
      4210.488        3280.900
   3064263.746 9   2327333.28847  22367500.053    22367498.6434   22367503.4544
     -1280.355        -997.679
  -1873297.214 9  -1452414.94848  20382515.741    20382514.3324   20382518.5664
       207.492         161.682
  -5210251.932 9  -4044791.18348  19880893.042    19880891.6214   19880896.1114
       831.360         647.813
    634135.681 8    497509.63745  23736285.503    23736284.3214   23736288.8654
     -1159.834        -903.767
  -4041780.902 9  -3137485.97247  22295390.468    22295388.9034   22295393.5644
       335.208         261.201
 96 11 12 17 12 59.9980000  0  8 25  3 15 23 21  1  9 31            -0.001260238
  -3217635.317 9  -2492501.79746  23882992.042    23882991.1284   23882998.0644
      3937.100        3067.870
   2687895.820 9   2094817.64548  22001205.262    22001204.2444   22001209.3794
     -1727.378       -1346.009
  -3935761.405 9  -1451468.10445  24344286.159    24344283.9294   24344290.0014
      4209.796        3280.361
   3102716.734 9   2357296.61348  22374817.522    22374816.1024   22374820.8634
     -1283.390       -1000.044
  -1879418.107 9  -1457184.48448  20381350.921    20381349.5444   20381353.8064
       200.363         156.127
  -5234953.276 9  -4064038.98448  19876192.382    19876191.1074   19876195.5344
       815.212         635.230
    669178.855 8    524815.99045  23742954.047    23742952.8494   23742957.2004
     -1176.689        -916.901
  -4051563.981 9  -3145109.16447  22293528.558    22293527.2784   22293532.0274
       316.641         246.733
 96 11 12 17 13 29.9980000  0  8 25  3 15 23 21  1  9 31            -0.001272043
  -3335721.168 9  -2584516.67646  23860521.116    23860520.1264   23860526.9174
      3934.955        3066.199
   2739934.351 9   2135367.10348  22011107.967    22011106.8874   22011112.0134
     -1742.024       -1357.421
  -4062017.305 8  -1549849.31245  24320259.925    24320258.1494   24320264.4404
      4207.012        3278.191
   3141288.268 9   2387352.32048  22382157.449    22382156.0984   22382160.8374
     -1288.231       -1003.816
  -1885297.576 9  -1461765.90448  20380231.997    20380230.6584   20380234.9824
       191.471         149.198
  -5259143.588 9  -4082888.57348  19871589.127    19871587.8674   19871592.2664
       797.268         621.248
    704756.776 8    552539.03245  23749724.091    23749723.0804   23749727.5864
     -1195.293        -931.397
  -4060748.076 9  -3152265.62347  22291781.059    22291779.6544   22291784.3974
       295.359         230.150
 96 11 12 17 13 59.9980000  0  8 25  3 15 23 21  1  9 31            -0.001283805
  -3453755.093 9  -2676491.09246  23838060.177    23838058.9894   23838065.6524
      3933.445        3065.022
   2792382.954 9   2176236.10748  22021088.256    22021087.5574   22021092.6884
     -1755.018       -1367.546
  -4188210.007 9  -1648181.21145  24296246.096    24296244.4024   24296250.8764
      4205.184        3276.767
   3179983.046 9   2417504.05948  22389520.926    22389519.5254   22389524.2914
     -1291.993       -1006.748
  -1890932.986 9  -1466157.14648  20379159.601    20379158.2784   20379162.5894
       183.642         143.098
  -5282809.651 9  -4101329.66048  19867085.608    19867084.3594   19867088.7834
       779.759         607.604
    740871.464 8    580680.33845  23756596.536    23756595.4284   23756599.8244
     -1212.904        -945.120
  -4069311.436 9  -3158938.39547  22290151.429    22290150.1044   22290154.7164
       275.046         214.322
 96 11 12 17 14 29.9980000  0  8 25  3 15 23 21  1  9 31            -0.001295535
  -3571735.165 9  -2768423.60146  23815608.751    23815608.1824   23815614.6604
      3931.598        3063.583
   2845228.027 9   2217414.03848  22031144.478    22031143.6534   22031148.8174
     -1768.088       -1377.731
  -4314340.924 9  -1746465.03346  24272244.659    24272242.8964   24272249.1014
      4203.337        3275.328
   3218801.476 9   2447752.16647  22396907.816    22396906.4664   22396911.2874
     -1296.184       -1010.014
  -1896318.800 9  -1470353.88848  20378134.675    20378133.4284   20378137.7254
       175.214         136.530
  -5305935.717 9  -4119349.96848  19862684.790    19862683.6224   19862688.0684
       761.830         593.634
    777525.693 8    609242.08445  23763571.557    23763570.5614   23763575.0214
     -1230.682        -958.973
  -4077259.295 9  -3165131.55547  22288638.900    22288637.6974   22288642.2174
       254.658         198.435
 96 11 12 17 14 59.9980000  0  8 25  3 15 23 21  1  9 31            -0.001307231
  -3689656.078 9  -2860310.00146  23793169.204    23793168.5344   23793175.1054
      3930.671        3062.861
   2898465.200 9   2258897.49748  22041275.285    22041274.3534   22041279.5664
     -1780.480       -1387.387
  -4440411.540 8  -1844701.85145  24248254.198    24248252.6144   24248258.4884
      4202.020        3274.301
   3257755.948 9   2478106.27447  22404320.648    22404319.2714   22404324.0584
     -1300.154       -1013.107
  -1901442.594 9  -1474346.47248  20377159.686    20377158.3914   20377162.7994
       167.240         130.317
  -5328525.136 9  -4136952.10848  19858386.319    19858385.0544   19858389.4834
       744.866         580.415
    814709.738 8    638216.63645  23770647.468    23770646.6494   23770650.9804
     -1247.427        -972.021
  -4084595.783 9  -3170848.31847  22287242.987    22287241.5984   22287246.2364
       235.229         183.295
 96 11 12 17 15 29.9980000  0  8 25  3 15 23 21  1  9 31            -0.001318908
  -3807541.025 9  -2952168.34446  23770736.505    23770735.8724   23770742.3904
      3928.966        3061.532
   2952094.145 9   2300686.24348  22051480.169    22051479.6494   22051484.8634
     -1794.198       -1398.076
  -4566431.548 9  -1942899.15745  24224272.338    24224271.4724   24224277.4914
      4199.792        3272.565
   3296841.925 9   2508562.83047  22411758.267    22411757.0424   22411761.8434
     -1305.057       -1016.928
  -1906316.317 9  -1478144.18748  20376232.196    20376230.9814   20376235.4174
       158.306         123.355
  -5350584.809 9  -4154141.47048  19854188.299    19854187.1364   19854191.6914
       726.429         566.048
    852398.644 8    667584.59845  23777819.250    23777818.7074   23777823.0004
     -1264.570        -985.379
  -4091342.158 9  -3176105.24147  22285958.787    22285957.7924   22285962.4744
       215.292         167.760
 96 11 12 17 15 59.9980000  0  8 25  3 15 23 21  1  9 31            -0.001330554
  -3925375.950 9  -3043987.74546  23748313.185    23748312.5834   23748319.1054
      3927.035        3060.027
   3006144.169 9   2342803.09848  22061765.710    22061765.0684   22061770.2434
     -1808.714       -1409.388
  -4692376.250 9  -2041037.94145  24200306.188    24200305.2604   24200310.5454
      4196.829        3270.256
   3336087.814 9   2539143.99847  22419226.408    22419225.2374   22419230.1054
     -1310.939       -1021.511
  -1910911.071 9  -1481724.52148  20375357.959    20375356.7424   20375361.1114
       148.403         115.639
  -5372089.112 9  -4170898.06648  19850096.104    19850095.0154   19850099.5324
       707.666         551.428
    890618.088 8    697365.96245  23785092.229    23785091.7164   23785096.0744
     -1282.926        -999.683
  -4097498.931 9  -3180902.75247  22284787.681    22284786.3074   22284790.9144
       195.534         152.364
 96 11 12 17 16 29.9980000  0  8 25  3 15 23 21  1  9 31            -0.001342156
  -4043154.424 9  -3135763.08946  23725900.479    23725899.9524   23725906.5484
      3925.434        3058.780
   3060636.646 9   2385264.71948  22072135.707    22072134.7224   22072139.7804
     -1823.291       -1420.746
  -4818228.947 9  -2139104.95445  24176357.536    24176356.2154   24176361.4904
      4193.999        3268.051
   3375515.155 9   2569866.57447  22426729.245    22426728.0584   22426732.9334
     -1316.922       -1026.173
  -1915200.015 9  -1485066.57248  20374541.772    20374540.6164   20374544.9724
       138.283         107.753
  -5393035.805 9  -4187220.16348  19846110.014    19846108.9874   19846113.4714
       689.554         537.315
    929385.705 8    727574.45645  23792469.391    23792469.0814   23792473.2484
     -1300.826       -1013.631
  -4103058.717 9  -3185235.06547  22283729.857    22283728.3214   22283733.0044
       175.530         136.777
 96 11 12 17 16 59.9980000  0  8 25  3 15 23 21  1  9 31            -0.001353727
  -4160903.436 9  -3227515.51346  23703493.953    23703492.8344   23703499.6434
      3925.068        3058.495
   3115534.351 9   2428042.10148  22082582.254    22082581.4364   22082586.4344
     -1835.896       -1430.568
  -4944014.754 8  -2237119.84245  24152420.956    24152419.5684   24152425.1484
      4192.430        3266.829
   3415099.081 9   2600711.14447  22434261.734    22434260.6144   22434265.5594
     -1321.268       -1029.559
  -1919218.731 9  -1488198.05248  20373777.057    20373775.9094   20373780.1864
       130.370         101.587
  -5413461.589 9  -4203136.36048  19842223.067    19842222.0784   19842226.5774
       672.716         524.194
    968661.821 8    758179.20845  23799943.542    23799942.8864   23799947.5364
     -1317.067       -1026.286
  -4108036.796 9  -3189114.11347  22282782.426    22282781.1214   22282785.7784
       156.925         122.279
 96 11 12 17 17 29.9980000  0  8 25  3 15 23 21  1  9 31            -0.001365267
  -4278604.525 9  -3319230.61046  23681096.015    23681094.9304   23681101.8614
      3922.626        3056.592
   3170836.172 9   2471134.37448  22093105.919    22093105.0954   22093110.0494
     -1849.741       -1441.357
  -5069723.083 9  -2335074.29646  24128499.100    24128497.9524   24128503.8504
      4189.196        3264.309
   3454837.188 9   2631675.86047  22441823.746    22441822.6044   22441827.5374
     -1326.897       -1033.946
  -1922973.513 9  -1491123.86348  20373062.637    20373061.4674   20373065.6514
       120.852          94.170
  -5433351.745 9  -4218635.18848  19838438.125    19838437.1094   19838441.6184
       654.326         509.864
   1008464.049 8    789193.90245  23807517.599    23807516.7434   23807521.6794
     -1335.347       -1040.530
  -4112430.959 9  -3192538.16047  22281946.361    22281944.9304   22281949.6324
       136.859         106.643
 96 11 12 17 17 59.9980000  0  8 25  3 15 23 21  1  9 31            -0.001376752
  -4396226.054 9  -3410883.68846  23658713.281    23658712.4364   23658719.2534
      3919.768        3054.365
   3226552.922 9   2514549.98248  22103708.266    22103707.7054   22103712.6294
     -1863.578       -1452.139
  -5195328.740 9  -2432948.83146  24104597.183    24104596.2714   24104602.0244
      4185.477        3261.411
   3494752.914 9   2662778.99947  22449419.502    22449418.3794   22449423.3154
     -1333.099       -1038.778
  -1926433.839 9  -1493820.24448  20372403.989    20372402.9024   20372407.1904
       110.788          86.328
  -5452692.408 9  -4233705.83148  19834757.702    19834756.7824   19834761.2704
       635.893         495.501
   1048821.906 8    820641.56645  23815197.465    23815196.3974   23815201.4174
     -1354.139       -1055.173
  -4116208.952 9  -3195482.07347  22281227.170    22281226.0134   22281230.6584
       115.935          90.339
 96 11 12 17 18 29.9980000  0  8 25  3 15 23 21  1  9 31            -0.001388204
  -4513794.435 9  -3502495.36346  23636340.939    23636339.9764   23636346.7244
      3917.836        3052.859
   3282639.320 9   2558253.62348  22114381.480    22114380.7274   22114385.5524
     -1875.719       -1461.599
  -5320860.724 9  -2530765.94945  24080709.309    24080708.4524   24080713.9574
      4182.998        3259.479
   3534814.182 9   2693995.53547  22457042.920    22457041.8134   22457046.7654
     -1337.939       -1042.550
  -1929635.748 9  -1496315.25848  20371794.735    20371793.6344   20371797.8934
       102.519          79.885
  -5471511.598 9  -4248370.13848  19831176.594    19831175.6194   19831180.0764
       618.554         481.990
   1089696.953 8    852492.22145  23822975.500    23822974.6764   23822979.5684
     -1371.031       -1068.336
  -4119389.084 9  -3197960.11747  22280621.734    22280620.8254   22280625.5154
        95.801          74.650
 96 11 12 17 18 59.9980000  0  8 25  3 15 23 21  1  9 31            -0.001399611
  -4631277.478 9  -3594040.57846  23613984.680    23613983.7634   23613990.3614
      3915.263        3050.854
   3339103.417 9   2602251.57248  22125126.413    22125125.5794   22125130.3284
     -1887.761       -1470.983
  -5446298.753 9  -2628509.82846  24056839.638    24056838.4684   24056844.0174
      4180.269        3257.352
   3575033.465 9   2725335.19847  22464696.353    22464695.2714   22464700.2874
     -1342.579       -1046.165
  -1932577.353 9  -1498607.42948  20371234.999    20371233.8934   20371238.0594
        94.291          73.474
  -5489791.901 9  -4262614.52948  19827697.939    19827697.0164   19827701.4304
       600.848         468.193
   1131100.298 8    884754.54945  23830854.348    23830853.1034   23830858.2344
     -1388.486       -1081.937
  -4121954.342 9  -3199959.04647  22280133.682    22280132.6564   22280137.3144
        76.017          59.234
 96 11 12 17 19 29.9980000  0  8 25  3 15 23 21  1  9 31            -0.001410976
  -4748673.351 9  -3685517.85646  23591645.291    23591644.0894   23591650.6154
      3911.792        3048.150
   3395943.564 9   2646542.55348  22135942.846    22135941.9194   22135946.7384
     -1900.918       -1481.235
  -5571640.907 9  -2726178.99346  24032987.837    24032986.7204   24032992.4244
      4176.506        3254.420
   3615409.868 9   2756797.31847  22472379.669    22472378.6864   22472383.6804
     -1348.646       -1050.893
  -1935251.565 9  -1500691.24248  20370726.164    20370725.0484   20370729.2314
        84.576          65.903
  -5507533.986 9  -4276439.53248  19824321.668    19824320.8004   19824325.2164
       582.474         453.876
   1173038.159 8    917433.38245  23838834.903    23838833.8754   23838838.5304
     -1406.613       -1096.062
  -4123916.419 9  -3201487.96247  22279760.480    22279759.3884   22279763.9514
        55.243          43.046
 96 11 12 17 19 59.9980000  0  8 25  3 15 23 21  1  9 31            -0.001422306
  -4865988.300 9  -3776932.06546  23569320.841    23569319.7544   23569326.2454
      3909.263        3046.179
   3453149.016 9   2691118.18647  22146828.388    22146827.7394   22146832.6934
     -1912.656       -1490.381
  -5696887.865 9  -2823774.00546  24009154.080    24009153.0314   24009158.7474
      4173.405        3252.004
   3655949.064 9   2788386.28647  22480094.013    22480093.0904   22480098.0474
     -1353.753       -1054.872
  -1937658.291 9  -1502566.63448  20370268.199    20370267.0944   20370271.3124
        75.989          59.212
  -5524737.486 9  -4289844.85548  19821047.931    19821047.0664   19821051.5444
       564.434         439.819
   1215492.296 8    950514.52545  23846913.052    23846912.4584   23846917.8994
     -1423.390       -1109.135
  -4125272.123 9  -3202544.38347  22279502.198    22279501.3574   22279505.9674
        35.200          27.428
 96 11 12 17 20 29.9980000  0  8 25  3 15 23 21  1  9 31            -0.001433621
  -4983205.487 9  -3868270.10946  23547015.021    23547013.9914   23547020.4634
      3905.647        3043.361
   3510718.493 9   2735977.47148  22157783.179    22157782.8334   22157787.8884
     -1924.973       -1499.979
  -5822026.909 9  -2921284.91346  23985340.716    23985339.7594   23985345.4254
      4169.485        3248.949
   3696654.910 9   2820105.10447  22487839.968    22487839.1014   22487844.1654
     -1359.639       -1059.459
  -1939792.423 9  -1504229.61448  20369862.043    20369860.9724   20369865.1874
        66.643          51.930
  -5541377.916 9  -4302811.42948  19817881.428    19817880.4914   19817885.0154
       545.414         424.998
   1258470.179 7    984003.73545  23855091.488    23855091.0134   23855096.7164
     -1441.343       -1123.124
  -4126013.680 9  -3203122.24547  22279361.168    22279360.2684   22279364.9504
        14.553          11.340
 96 11 12 17 20 59.9980000  0  8 25  3 15 23 21  1  9 31            -0.001444889
  -5100334.018 9  -3959539.03746  23524725.326    23524725.0694   23524731.6574
      3902.616        3040.999
   3568635.164 9   2781107.29748  22168804.516    22168804.0504   22168809.1384
     -1936.702       -1509.118
  -5947065.878 9  -3018717.86446  23961546.620    23961545.4264   23961551.1274
      4165.926        3246.176
   3737521.414 9   2851949.09847  22495616.580    22495615.7214   22495620.9084
     -1365.331       -1063.894
  -1941657.515 9  -1505682.94148  20369507.149    20369506.0914   20369510.2904
        57.176          44.553
  -5557460.539 9  -4315343.34048  19814820.929    19814820.1034   19814824.5834
       526.166         409.999
   1301963.674 8   1017894.76045  23863368.136    23863367.4284   23863373.2064
     -1458.850       -1136.766
  -4126158.946 9  -3203235.46247  22279333.593    22279332.6344   22279337.3494
        -5.416          -4.220
 96 11 12 17 21 29.9980000  0  8 25  3 15 23 21  1  9 31            -0.001456118
  -5217354.939 9  -4050724.13046  23502457.120    23502456.6394   23502463.2224
      3899.171        3038.315
   3626927.570 9   2826529.90347  22179897.172    22179896.7454   22179901.8804
     -1949.126       -1518.799
  -6071979.644 9  -3116053.19746  23937775.962    23937774.9264   23937780.8704
      4161.940        3243.070
   3778585.823 9   2883947.28247  22503430.894    22503430.0434   22503435.2804
     -1371.866       -1068.986
  -1943212.742 9  -1506894.81948  20369211.115    20369210.0834   20369214.2834
        47.009          36.630
  -5572943.948 9  -4327408.32948  19811874.618    19811873.7464   19811878.1814
       506.417         394.611
   1345998.337 7   1052207.45745  23871747.573    23871746.8824   23871752.8194
     -1476.408       -1150.448
  -4125686.057 9  -3202867.01547  22279423.561    22279422.6784   22279427.2684
       -25.942         -20.215
 96 11 12 17 21 59.9980000  0  8 25  3 15 23 21  1  9 31            -0.001467323
  -5334281.870 9  -4141835.91346  23480207.289    23480206.0724   23480212.8254
      3896.619        3036.326
   3685575.641 9   2872229.65447  22191057.104    22191057.1354   22191062.2694
     -1960.248       -1527.466
  -6196784.777 9  -3213303.95946  23914026.185    23914025.3614   23914031.1394
      4158.876        3240.683
   3819831.086 9   2916086.40547  22511279.723    22511278.8424   22511284.0624
     -1377.177       -1073.125
  -1944475.472 9  -1507878.77248  20368970.731    20368969.8434   20368974.0114
        37.791          29.448
  -5587834.179 9  -4339011.10148  19809040.985    19809040.2134   19809044.6514
       487.054         379.523
   1390548.050 7   1086921.46845  23880225.017    23880224.4784   23880229.4544
     -1493.081       -1163.440
  -4124600.257 9  -3202020.97047  22279630.264    22279629.3474   22279633.8664
       -45.977         -35.826
 96 11 12 17 22 29.9980000  0  8 25  3 15 23 21  1  9 31            -0.001478501
  -5451119.732 9  -4232878.33247  23457973.406    23457972.5674   23457979.3054
      3892.193        3032.878
   3744573.218 9   2918201.74247  22202284.405    22202284.0604   22202289.1834
     -1973.622       -1537.887
  -6321488.331 9  -3310475.55546  23890295.978    23890295.1584   23890300.8214
      4154.125        3236.981
   3861252.762 9   2948363.00348  22519162.125    22519161.2464   22519166.3854
     -1384.795       -1079.061
  -1945452.740 9  -1508640.29948  20368784.663    20368783.8274   20368788.1184
        26.911          20.970
  -5602149.661 9  -4350166.01648  19806316.733    19806316.0494   19806320.5084
       466.927         363.839
   1435610.478 7   1122035.02955  23888800.813    23888799.7194          0.0005
     -1511.518       -1177.806
  -4122905.337 9  -3200700.27747  22279952.716    22279951.8794   22279956.4464
       -67.631         -52.699
 96 11 12 17 22 59.9980000  0  8 25  3 15 23 21  1  9 31            -0.001489630
  -5567848.168 9  -4323835.47346  23435760.446    23435759.8574   23435766.6394
      3889.476        3030.761
   3803963.173 9   2964479.57847  22213586.214    22213585.6704   22213590.7674
     -1985.908       -1547.461
  -6446064.036 9  -3407547.46546  23866590.070    23866589.0734   23866594.8674
      4150.675        3234.292
   3902884.150 9   2980803.01048  22527084.380    22527083.5504   22527088.6384
     -1390.703       -1083.665
  -1946120.708 9  -1509160.81548  20368657.553    20368656.7294   20368661.0864
        17.478          13.619
  -5615882.612 9  -4360867.02248  19803703.446    19803702.6934   19803707.2614
       448.515         349.492
   1481199.65417   1157559.05455  23897476.098    23897475.0295          0.0005
     -1527.869       -1190.547
  -4120576.994 9  -3198886.01247  22280395.552    22280395.0114   22280399.6014
       -87.816         -68.428
 96 11 12 17 23 29.9980000  0  8 25  3 15 23 21  1  9 31            -0.001500727
  -5684507.333 9  -4414738.62247  23413560.870    23413560.3634   23413567.1764
      3886.987        3028.821
   3863717.267 9   3011041.18047  22224957.306    22224956.5954   22224961.6394
     -1998.393       -1557.189
  -6570547.163 9  -3504547.30046  23842901.939    23842900.8504   23842906.4964
      4147.341        3231.694
   3944675.747 9   3013367.85748  22535037.082    22535036.2974   22535041.3434
     -1396.091       -1087.863
  -1946518.796 9  -1509471.01848  20368581.847    20368581.0344   20368585.3284
         8.307           6.473
  -5629088.559 9  -4371157.36848  19801190.425    19801189.7044   19801194.2584
       431.263         336.049
   1527278.853 7   1193464.91455  23906244.294    23906243.3194   23906248.3625
     -1544.761       -1203.710
  -4117646.115 9  -3196602.24147  22280953.477    22280952.6884   22280957.3924
      -108.375         -84.448
 96 11 12 17 23 59.9980000  0  8 25  3 15 23 21  1  9 31            -0.001511773
  -5801088.987 9  -4505581.38946  23391376.053    23391375.5844   23391382.3804
      3884.885        3027.183
   3923849.223 9   3057897.19747  22236400.133    22236399.3734   22236404.4464
     -2010.745       -1566.814
  -6694918.496 9  -3601460.05445  23819234.515    23819233.6304   23819238.9834
      4143.878        3228.996
   3986626.590 9   3046056.78747  22543019.997    22543019.2874   22543024.3334
     -1400.852       -1091.573
  -1946637.525 9  -1509563.54648  20368559.290    20368558.4754   20368562.7414
        -0.660          -0.514
  -5641783.927 9  -4381049.86048  19798774.507    19798773.8664   19798778.3824
       415.041         323.409
   1573866.24017   1229766.70355  23915109.923           0.0005          0.0005
     -1561.267       -1216.572
  -4114093.357 9  -3193833.88847  22281629.561    22281628.8034   22281633.5324
      -128.584        -100.195
 96 11 12 17 24 29.9980000  0  8 25  3 15 23 21  1  9 31            -0.001522757
  -5917586.389 9  -4596358.50546  23369207.358    23369206.8324   23369213.5414
      3882.175        3025.071
   3984384.658 9   3105067.62147  22247919.651    22247918.8924   22247924.0324
     -2024.266       -1577.350
  -6819166.537 9  -3698276.63646  23795589.996    23795589.7554   23795595.4554
      4139.904        3225.899
   4028736.111 9   3078869.36547  22551033.152    22551032.4474   22551037.5724
     -1405.782       -1095.415
  -1946466.879 9  -1509430.59048  20368591.680    20368590.9064   20368595.2564
       -10.076          -7.851
  -5653986.912 9  -4390558.67948  19796452.174    19796451.6714   19796456.2144
       398.969         310.885
   1620974.82917   1266474.65855  23924074.190    23924072.3695          0.0005
     -1578.515       -1230.012
  -4109928.334 9  -3190588.44247  22282422.298    22282421.3634   22282426.1404
      -148.322        -115.576
 96 11 12 17 24 59.9980000  0  8 25  3 15 23 21  1  9 31            -0.001533691
  -6034009.116 9  -4687077.39946  23347053.002    23347052.2284   23347058.9354
      3878.849        3022.480
   4045313.572 9   3152544.65247  22259513.781    22259513.2844   22259518.4414
     -2037.794       -1587.891
  -6943298.545 9  -3795002.86846  23771968.812    23771968.5254   23771974.1284
      4135.278        3222.294
   4070974.326 9   3111782.21247  22559070.744    22559070.1414   22559075.3174
     -1410.348       -1098.972
  -1946015.698 9  -1509079.03848  20368677.432    20368676.7364   20368681.1254
       -20.270         -15.795
  -5665706.005 9  -4399690.44648  19794222.059    19794221.5924   19794226.1184
       381.898         297.583
   1668594.40517   1303580.79854  23933135.952    23933133.7355          0.0005
     -1596.453       -1243.989
  -4105183.959 9  -3186891.55947  22283324.977    22283324.2244   22283328.9844
      -168.201        -131.066
 96 11 12 17 25 29.9980000  0  8 25  3 15 23 21  1  9 31            -0.001544572
  -6150326.368 9  -4777714.12146  23324918.301    23324917.6674   23324924.2714
      3875.584        3019.936
   4106634.900 9   3200327.45947  22271183.028    22271182.3744   22271187.5244
     -2050.221       -1597.575
  -7067299.082 9  -3891626.63746  23748372.724    23748371.9844   23748377.5984
      4131.399        3219.272
   4113340.868 9   3144795.04147  22567132.806    22567132.1884   22567137.4594
     -1414.292       -1102.046
  -1945272.492 9  -1508499.93248  20368818.888    20368818.2504   20368822.5994
       -29.268         -22.806
  -5676921.556 9  -4408429.83848  19792087.906    19792087.4084   19792091.9184
       365.604         284.886
   1716748.02217     26033.00252  23942299.343           0.0005          0.0005
     -1613.397       -1257.192
  -4099859.359 9  -3182742.55947  22284338.432    22284337.5304   22284342.2714
      -186.878        -145.619
 96 11 12 17 25 59.9980000  0  8 25  3 15 23 21  1  9 31            -0.001555432
  -6266551.542 9  -4868279.09546  23302801.087    23302800.5294   23302807.1544
      3872.216        3017.311
   4168300.076 9   3248378.21547  22282917.206    22282916.8884   22282922.0684
     -2061.174       -1606.110
  -7191203.411 9  -3988175.45646  23724794.388    23724793.6584   23724799.0694
      4128.342        3216.890
   4155809.356 9   3177887.29747  22575214.179    22575213.6294   22575218.9324
     -1417.683       -1104.688
  -1944287.320 9  -1507732.27448  20369006.556    20369005.8164   20369010.0574
       -36.791         -28.668
  -5687653.654 9  -4416792.51248  19790045.722    19790045.1324   19790049.6734
       349.254         272.146
   1765383.89017     63984.61254  23951553.909           0.0005          0.0005
     -1629.271       -1269.562
  -4094005.024 9  -3178180.76347  22285452.275    22285451.4824   22285456.3004
      -203.954        -158.925
 96 11 12 17 26 29.9980000  0  8 25  3 15 23 21  1  9 31            -0.001566266
  -6382654.464 9  -4958748.80447  23280707.521    23280706.8204   23280713.4484
      3868.250        3014.221
   4230296.112 9   3296686.76647  22294714.700    22294714.3714   22294719.5884
     -2071.360       -1614.047
  -7315002.441 9  -4084642.22946  23701236.337    23701235.5104   23701240.9044
      4125.185        3214.430
   4198401.298 9   3211075.77547  22583319.268    22583318.7274   22583323.9224
     -1421.700       -1107.818
  -1943068.452 9  -1506782.52548  20369238.374    20369237.7154   20369242.0094
       -44.243         -34.475
  -5697869.929 9  -4424753.25548  19788101.427    19788100.9944   19788105.5964
       332.064         258.751
   1814504.34217    102323.25854  23960901.422           0.0005          0.0005
     -1644.850       -1281.701
  -4087630.133 9  -3173213.34047  22286665.427    22286664.5774   22286669.4614
      -220.863        -172.101
 96 11 12 17 26 59.9980000  0  8 25  3 15 23 21  1  9 31            -0.001577087
  -6498622.723 9  -5049113.60947  23258638.761    23258638.7504   23258645.3644
      3863.056        3010.174
   4292591.251 9   3345228.38647  22306568.980    22306568.8004   22306573.9874
     -2081.545       -1621.983
  -7438693.493 9  -4181024.80546  23677698.412    23677697.7304   23677703.4784
      4121.092        3211.241
   4241133.205 9   3244373.35047  22591450.997    22591450.4214   22591455.4864
     -1427.121       -1112.042
  -1941605.519 9  -1505642.59248  20369516.723    20369516.1244   20369520.3744
       -53.074         -41.356
  -5707556.045 9  -4432300.87748  19786258.260    19786257.8324   19786262.3844
       313.964         244.647
   1864104.73817     23595.58552  23970340.310           0.0005          0.0005
     -1661.089       -1294.355
  -4080730.234 9  -3167836.81647  22287978.354    22287977.6224   22287982.5124
      -239.129        -186.334
 96 11 12 17 27 29.9980000  0  8 25  3 15 23 21  1  9 31            -0.001587888
  -6614453.456 9  -5139371.23747  23236596.859    23236596.8604   23236603.4824
      3858.803        3006.859
   4355164.356 9   3393986.61047  22318476.391    22318476.1024   22318481.3004
     -2090.456       -1628.927
  -7562282.241 9  -4277327.69246  23654179.986    23654179.5054   23654185.2374
      4117.750        3208.636
   4284023.088 9   3277794.01347  22599612.737    22599612.1964   22599617.1694
     -1432.647       -1116.348
  -1939902.293 9  -1504315.41048  20369840.781    20369840.2734   20369844.3554
       -60.971         -47.510
  -5716723.963 9  -4439444.70848  19784513.606    19784513.2144   19784517.7564
       296.851         231.312
   1914169.34417     62692.03854  23979867.103           0.0005          0.0005
     -1676.502       -1306.365
  -4073295.087 9  -3162043.22247  22289393.095    22289392.5694   22289397.4204
      -257.067        -200.312
 96 11 12 17 27 59.9980000  0  8 25  3 15 23 21  1  9 31            -0.001598666
  -6730163.236 9  -5229534.60346  23214578.446    23214577.8834   23214584.6574
      3854.879        3003.802
   4418001.587 9   3442950.63947  22330433.923    22330433.6104   22330438.8744
     -2099.031       -1635.609
  -7685765.673 9  -4373548.58346  23630682.007    23630681.5854   23630686.8394
      4114.031        3205.738
   4327088.982 9   3311351.82247  22607807.986    22607807.4414   22607812.3654
     -1438.730       -1121.088
  -1937946.612 9  -1502791.50548  20370212.954    20370212.4504   20370216.5264
       -69.803         -54.392
  -5725378.651 9  -4446188.62348  19782866.456    19782866.2864   19782870.8994
       279.874         218.084
   1964691.86317    102171.18854  23989480.870           0.0005          0.0005
     -1692.122       -1318.537
  -4065314.089 9  -3155824.28447  22290911.693    22290911.3554   22290916.1654
      -275.404        -214.601
 96 11 12 17 28 29.9980000  0  8 25  3 15 23 21  1  9 31            -0.001609407
  -6845747.537 9  -5319600.19446  23192583.077    23192582.7654   23192589.6454
      3850.706        3000.550
   4481110.831 9   3492126.63247  22342443.153    22342442.8984   22342448.2174
     -2108.442       -1642.942
  -7809119.921 9  -4469668.75046  23607208.484    23607208.0164   23607213.4124
      4109.434        3202.156
   4370349.459 9   3345061.24947  22616040.248    22616039.7484   22616044.6354
     -1445.276       -1126.189
  -1935698.618 9  -1501039.84348  20370640.583    20370640.1574   20370644.4104
       -80.224         -62.512
  -5733517.942 9  -4452530.93648  19781317.522    19781317.4184   19781322.0644
       262.612         204.633
   2015696.53917     20944.73452  23999186.852           0.0005          0.0005
     -1708.348       -1331.180
  -4056756.405 9  -3149155.99247  22292540.631    22292539.8284   22292544.6514
      -295.443        -230.215
 96 11 12 17 28 59.9980000  0  8 25  3 15 23 21  1  9 31            -0.001620123
  -6961241.223 9  -5409595.20046  23170604.682    23170604.9664   23170611.8634
      3848.059        2998.488
   4544477.174 9   3541502.95847  22354500.858    22354501.0874   22354506.4704
     -2117.007       -1649.616
  -7932367.115 9  -4565705.46146  23583754.806    23583754.6004   23583760.4214
      4106.155        3199.601
   4413767.132 9   3378893.16048  22624302.304    22624301.9004   22624306.8624
     -1450.013       -1129.880
  -1933173.433 9  -1499072.17748  20371120.971    20371120.6434   20371125.0174
       -88.687         -69.107
  -5741177.458 9  -4458499.38848  19779859.960    19779859.8944   19779864.4844
       247.069         192.521
   2067156.95017     61039.62554  24008979.544           0.0005          0.0005
     -1722.984       -1342.585
  -4047622.231 9  -3142038.46747  22294278.237    22294277.9094   22294282.7944
      -314.472        -245.043
 96 11 12 17 29 29.9980000  0  8 25  3 15 23 21  1  9 31            -0.001630800
  -7076630.073 9  -5499508.56946  23148646.780    23148647.1764   23148654.0104
      3845.103        2996.184
   4608131.911 9   3591104.00747  22366613.807    22366614.2134   22366619.6004
     -2126.175       -1656.760
  -8055489.177 9  -4661644.72846  23560325.762    23560325.4754   23560331.0754
      4102.454        3196.717
   4457352.641 9   3412855.85048  22632596.356    22632595.9964   22632600.9494
     -1454.960       -1133.735
  -1930383.492 9  -1496898.21148  20371651.838    20371651.5594   20371656.0264
       -96.841         -75.461
  -5748334.810 9  -4464076.54348  19778497.986    19778497.9224   19778502.4964
       230.670         179.743
   2119088.25917    101499.46254  24018861.928           0.0005          0.0005
     -1738.230       -1354.465
  -4037888.893 9  -3134454.08147  22296130.760    22296130.2134   22296135.0874
      -333.838        -260.134
 96 11 12 17 29 59.9980000  0  8 25  3 15 23 21  1  9 31            -0.001641457
  -7191933.012 9  -5589354.97946  23126705.589    23126705.7094   23126712.4094
      3841.923        2993.706
   4672059.987 9   3640918.04947  22378779.284    22378779.3724   22378784.7564
     -2135.513       -1664.036
  -8178504.176 9  -4757500.56046  23536916.953    23536916.5274   23536922.0834
      4098.792        3193.864
   4501064.823 9   3446917.24447  22640914.435    22640914.2024   22640919.1464
     -1458.825       -1136.747
  -1927356.719 9  -1494539.69948  20372227.796    20372227.5654   20372232.0284
      -104.578         -81.489
  -5755012.695 9  -4469280.09848  19777227.206    19777227.1464   19777231.7304
       214.685         167.287
   2171474.17317     18117.35452  24028830.399           0.0005          0.0005
     -1753.351       -1366.248
  -4027585.075 9  -3126425.15247  22298091.238    22298090.9314   22298095.9204
      -352.837        -274.938
 96 11 12 17 30 29.9980000  0  8 25  3 15 23 21  1  9 31            -0.001652106
  -7307151.726 9  -5679135.75147  23104780.075    23104780.3664   23104786.9194
      3839.440        2991.771
   4736261.950 9   3690945.51547  22390996.299    22390996.6324   22391002.0344
     -2144.658       -1671.162
  -8301431.700 9  -4853288.17146  23513523.876    23513523.8824   23513529.8654
      4096.386        3191.989
   4544863.469 9   3481046.01147  22649249.003    22649248.7904   22649253.7994
     -1461.042       -1138.474
  -1924131.467 9  -1492026.51948  20372841.549    20372841.3814   20372845.7514
      -110.514         -86.115
  -5761226.034 9  -4474121.65648  19776044.747    19776044.7584   19776049.3254
       199.438         155.406
   2224299.71317     59227.60654  24038882.749           0.0005          0.0005
     -1767.989       -1377.654
  -4016730.507 9  -3117967.07947  22300156.758    22300156.5354   22300161.4744
      -370.841        -288.967
 96 11 12 17 30 59.9980000  0  8 25  3 15 23 21  1  9 31            -0.001662742
  -7422267.247 9  -5768836.13747  23082874.335    23082874.7034   23082881.0294
      3834.750        2988.117
   4800765.858 9   3741208.25247  22403270.932    22403271.3554   22403276.8214
     -2155.770       -1679.821
  -8424263.946 9  -4949001.59846  23490149.602    23490149.8164   23490155.5504
      4092.271        3188.783
   4588754.458 9   3515246.70847  22657601.112    22657600.9334   22657605.9984
     -1465.272       -1141.770
  -1920706.479 9  -1489357.70848  20373493.315    20373493.1474   20373497.4934
      -118.069         -92.002
  -5766956.017 9  -4478586.58148  19774954.221    19774954.3964   19774958.9744
       182.477         142.190
   2277574.99317    100653.42254  24049020.993           0.0005          0.0005
     -1783.597       -1389.816
  -4005322.735 9  -3109077.92647  22302327.456    22302327.3274   22302332.3224
      -389.626        -303.605
 96 11 12 17 31 29.9980000  0  8 25  3 15 23 21  1  9 31            -0.001673349
  -7537245.250 9  -5858429.32047  23060994.730    23060995.0744   23061001.4024
      3830.547        2984.842
   4865604.828 9   3791732.07447  22415609.563    22415609.8514   22415615.3484
     -2166.684       -1688.325
  -8546970.691 9  -5044617.23046  23466799.365    23466799.3604   23466804.8714
      4088.191        3185.603
   4632774.306 9   3549547.79747  22665977.833    22665977.6294   22665982.7574
     -1469.283       -1144.896
  -1917041.421 9  -1486501.83348  20374190.631    20374190.5414   20374194.9414
      -126.412         -98.503
  -5772177.008 9  -4482654.87948  19773960.808    19773960.9074   19773965.4684
       165.893         129.267
   2331314.78117     15088.65652  24059247.524           0.0005          0.0005
     -1798.545       -1401.464
  -3993358.751 9  -3099755.36547  22304603.821    22304603.9564   22304609.0584
      -407.887        -317.834
 96 11 12 17 31 59.9980000  0  8 25  3 15 23 21  1  9 31            -0.001683921
  -7652093.435 9  -5947921.35547  23039139.740    23039140.1164   23039146.5134
      3826.475        2981.669
   4930779.474 9   3842517.46447  22428011.998    22428012.2254   22428017.7564
     -2177.784       -1696.975
  -8669543.337 9  -5140128.33246  23443474.684    23443474.6024   23443480.0604
      4083.798        3182.180
   4676926.288 9   3583951.86747  22674379.566    22674379.4564   22674384.6214
     -1473.825       -1148.435
  -1913110.995 9  -1483439.17148  20374938.512    20374938.4834   20374942.8784
      -135.170        -105.327
  -5776900.672 9  -4486335.65848  19773061.839    19773061.9814   19773066.5804
       149.381         116.401
   2385521.20416     57336.08154  24069562.426           0.0005          0.0005
     -1814.351       -1413.780
  -3980836.510 9  -3089997.80047  22306986.728    22306986.9434   22306991.8854
      -426.481        -332.323
 96 11 12 17 32 29.9980000  0  8 25  3 15 23 21  1  9 31            -0.001694476
  -7766842.803 9  -6037336.41847  23017303.712    23017304.1324   23017310.3954
      3822.986        2978.950
   4996266.949 9   3893546.61047  22440474.017    22440474.1174   22440479.6174
     -2188.429       -1705.269
  -8792002.065 9  -5235550.66146  23420171.802    23420171.6264   23420177.0444
      4079.526        3178.851
   4721206.457 9   3618455.83947  22682805.911    22682805.7814   22682810.9114
     -1478.869       -1152.365
  -1908932.019 9  -1480182.83048  20375733.794    20375733.7474   20375738.0744
      -144.053        -112.249
  -5781143.310 9  -4489641.60248  19772254.500    19772254.6754   19772259.2054
       133.078         103.697
   2440159.19216     99927.78754  24079959.805           0.0005          0.0005
     -1828.539       -1424.836
  -3967780.114 9  -3079824.01147  22309471.264    22309471.5614   22309476.4504
      -444.518        -346.378
 96 11 12 17 32 59.9980000  0  8 25  3 15 23 21  1  9 31            -0.001704994
  -7881475.209 9  -6126660.33947  22995489.647    22995490.2304   22995496.5634
      3819.800        2976.468
   5062074.065 9   3944824.84347  22452996.872    22452996.8314   22453002.3334
     -2198.072       -1712.783
  -8914312.378 9  -5330857.37446  23396896.978    23396896.8604   23396902.1724
      4075.050        3175.364
   4765664.321 9   3653098.27347  22691265.923    22691265.8684   22691271.0494
     -1484.369       -1156.651
  -1904462.396 9  -1476700.01548  20376584.379    20376584.3284   20376588.6824
      -153.239        -119.407
  -5784885.964 9  -4492557.95148  19771542.371    19771542.5254   19771547.0414
       117.145          91.282
   2495249.93116     11880.64852  24090443.046           0.0005          0.0005
     -1842.943       -1436.059
  -3954177.658 9  -3069224.73247  22312060.127    22312060.0744   22312064.9584
      -461.797        -359.842
 96 11 12 17 33 29.9980000  0  8 25  3 15 23 21  1  9 31            -0.001715502
  -7996042.577 9  -6215933.58247  22973688.200    22973688.8374   22973695.1394
      3817.863        2974.958
   5128145.651 9   3996309.13547  22465569.668    22465569.8094   22465575.3524
     -2206.609       -1719.436
  -9036509.584 9  -5426075.98246  23373643.755    23373643.6514   23373648.6714
      4071.434        3172.546
   4810264.631 9   3687851.71847  22699753.035    22699753.0774   22699758.2914
     -1488.880       -1160.166
  -1899742.443 9  -1473022.14448  20377482.506    20377482.5154   20377486.9434
      -161.375        -125.747
  -5788173.855 9  -4495119.94848  19770916.721    19770916.8234   19770921.4034
       102.033          79.506
   2550751.04317     55097.20754  24101004.901           0.0005          0.0005
     -1857.366       -1447.298
  -3940070.985 9  -3058232.53347  22314744.089    22314744.4534   22314749.4224
      -478.784        -373.078
 96 11 12 17 33 59.9980000  0  8 25  3 15 23 21  1  9 31            -0.001725994
  -8110529.571 9  -6305144.20147  22951902.243    22951902.7094   22951908.9234
      3814.179        2972.088
   5194476.807 9   4047995.70947  22478191.780    22478192.2614   22478197.8034
     -2215.639       -1726.472
  -9158581.948 9  -5521197.26246  23350414.059    23350413.9274   23350419.1914
      4066.606        3168.784
   4855016.473 9   3722723.24247  22708269.022    22708269.1444   22708274.3324
     -1494.531       -1164.570
  -1894768.359 9  -1469146.24248  20378428.987    20378429.0414   20378433.4944
      -170.466        -132.831
  -5790990.698 9  -4497314.88248  19770380.642    19770380.7964   19770385.3624
        85.525          66.643
   2606683.72316     98609.43754  24111647.865           0.0005          0.0005
     -1872.333       -1458.961
  -3925442.402 9  -3046833.66747  22317528.094    22317528.1934   22317533.1394
      -496.621        -386.977
 96 11 12 17 34 29.9980000  0  8 25  3 15 23 21  1  9 31            -0.001736462
  -8224889.262 9  -6394255.59946  22930140.126    22930140.7574   22930146.9544
      3809.899        2968.752
   5261073.866 9   4099889.48247  22490865.018    22490865.2974   22490870.8204
     -2223.985       -1732.975
  -9280509.533 9  -5616205.71846  23327211.954    23327211.7304   23327217.2494
      4061.988        3165.185
   4899930.641 9   3757721.26347  22716815.913    22716816.0484   22716821.2214
     -1499.566       -1168.493
  -1889514.380 9  -1465052.25248  20379428.677    20379428.7914   20379433.3194
      -179.636        -139.976
  -5793312.366 9  -4499123.96948  19769938.726    19769939.0094   19769943.5224
        69.410          54.086
   2663059.50217      9214.96852  24122376.225           0.0005          0.0005
     -1886.569       -1470.054
  -3910285.402 9  -3035023.04047  22320412.371    22320412.4424   22320417.3864
      -513.817        -400.377
 96 11 12 17 34 59.9980000  0  8 25  3 15 23 21  1  9 31            -0.001746918
  -8339118.644 9  -6483265.43946  22908403.149    22908403.4024   22908409.7354
      3805.658        2965.448
   5327905.200 9   4151965.79647  22503582.784    22503582.9554   22503588.4084
     -2231.356       -1738.719
  -9402307.689 9  -5711113.35546  23304034.622    23304034.3634   23304039.7174
      4058.123        3162.174
   4944975.628 9   3792821.24147  22725387.670    22725387.8844   22725393.0094
     -1503.123       -1171.265
  -1883991.103 9  -1460748.41848  20380479.735    20380479.8654   20380484.4044
      -188.253        -146.691
  -5795156.061 9  -4500560.60848  19769587.791    19769588.1554   19769592.6394
        53.735          41.871
   2719858.69116     53419.31054  24133185.526           0.0005          0.0005
     -1900.063       -1480.569
  -3894620.027 9  -3022816.28047  22323393.467    22323393.4844   22323398.4364
      -530.412        -413.308
 96 11 12 17 35 29.9980000  0  8 25  3 15 23 21  1  9 31            -0.001757317
  -8453193.690 9  -6572155.03847  22886694.829    22886695.5654   22886701.9744
      3799.616        2960.740
   5394978.914 9   4204230.98347  22516346.327    22516346.7204   22516352.1774
     -2239.625       -1745.162
  -9523972.100 9  -5805916.75146  23280882.043    23280882.1594   23280887.5524
      4053.319        3158.430
   4990138.532 9   3828013.10147  22733981.903    22733982.1764   22733987.2154
     -1507.241       -1174.474
  -1878203.238 9  -1456238.40148  20381581.129    20381581.2854   20381585.7774
      -197.162        -153.633
  -5796513.260 9  -4501618.16248  19769329.507    19769329.8724   19769334.4114
        37.273          29.044
   2777083.22316     97860.14454  24144074.297           0.0005          0.0005
     -1914.643       -1491.930
  -3878432.986 9  -3010203.02947  22326473.612    22326473.8084   22326478.7304
      -548.241        -427.201
 96 11 12 17 35 59.9980000  0  7 25  3 15 23 21  1 31               -0.001767741
  -8567093.925 9  -6660908.40247  22865020.699    22865021.0834   22865027.5144
      3793.614        2956.063
   5462273.329 9   4256668.13947  22529152.116    22529152.4904   22529157.9884
     -2246.876       -1750.812
  -9645503.278 9  -5900616.38346  23257755.427    23257755.5434   23257760.7784
      4048.584        3154.741
   5035413.361 9   3863292.18647  22742597.449    22742597.7924   22742602.8704
     -1511.209       -1177.565
  -1872163.053 9  -1451531.78248  20382730.461    20382730.6694   20382735.2524
      -205.788        -160.354
  -5797392.951 9  -4502303.63948  19769162.044    19769162.4504   19769167.0494
        21.284          16.585
  -3861730.954 9  -2997188.49047  22329651.930    22329652.1404   22329657.0324
      -565.502        -440.651
 96 11 12 17 36 29.9980000  0  7 25  3 15 23 21  1 31               -0.001778151
  -8680816.107 9  -6749523.02747  22843379.862    22843380.4804   22843386.9134
      3788.161        2951.814
   5529785.408 9   4309274.90247  22541998.993    22541999.6674   22542005.1634
     -2253.871       -1756.263
  -9766891.870 9  -5995204.86046  23234655.792    23234655.9394   23234661.3154
      4044.056        3151.212
   5080810.625 9   3898666.66747  22751236.293    22751236.6304   22751241.7644
     -1515.278       -1180.736
  -1865871.269 9  -1446629.10948  20383927.757    20383928.0124   20383932.5784
      -213.522        -166.381
  -5797794.247 9  -4502616.33248  19769085.671    19769086.0684   19769090.6354
         5.598           4.362
  -3844513.628 9  -2983772.41747  22332928.344    22332928.5314   22332933.4864
      -582.390        -453.810
 96 11 12 17 36 59.9980000  0  7 25  3 15 23 21  1 31               -0.001788541
  -8794368.624 9  -6838005.47547  22821771.201    22821772.1674   22821778.4564
      3782.416        2947.337
   5597526.693 9   4362060.26847  22554889.736    22554890.4504   22554895.9294
     -2262.081       -1762.661
  -9888131.424 9  -6089677.19646  23211584.602    23211584.7914   23211590.2864
      4038.775        3147.097
   5126346.794 9   3934149.35747  22759901.575    22759901.9214   22759907.0814
     -1520.346       -1184.685
  -1859337.372 9  -1441537.76948  20385171.220    20385171.4664   20385175.9044
      -221.770        -172.808
  -5797711.923 9  -4502552.18148  19769101.260    19769101.7274   19769106.2624
       -10.751          -8.377
  -3826774.651 9  -2969949.86347  22336304.146    22336304.1744   22336309.1734
      -600.093        -467.605
 96 11 12 17 37 29.9980000  0  7 25  3 15 23 21  1 31               -0.001798906
  -8907762.510 9  -6926364.28947  22800192.977    22800193.9394   22800200.2764
      3777.540        2943.538
   5665503.680 9   4415029.28947  22567825.583    22567826.0904   22567831.5084
     -2269.516       -1768.454
 -10009217.890 9  -6184030.24746  23188542.652    23188542.8494   23188548.2614
      4033.877        3143.281
   5172034.876 9   3969750.40847  22768595.693    22768596.0594   22768601.2794
     -1525.368       -1188.598
  -1852570.866 9  -1436265.17448  20386458.859    20386459.1664   20386463.5104
      -229.304        -178.678
  -5797154.762 9  -4502118.02648  19769207.214    19769207.7704   19769212.2734
       -26.377         -20.553
  -3808509.126 9  -2955717.01347  22339779.688    22339780.0044   22339784.9834
      -617.389        -481.082
 96 11 12 17 37 59.9980000  0  7 25  3 15 23 21  1 31               -0.001809250
  -9021018.661 9  -7014615.77647  22778640.733    22778641.9104   22778648.2604
      3773.595        2940.464
   5733711.248 9   4468177.98247  22580805.201    22580805.6094   22580811.0054
     -2277.242       -1774.474
 -10130146.622 9  -6278260.44446  23165530.565    23165530.9234   23165536.2374
      4028.696        3139.244
   5217882.889 9   4005476.07047  22777320.279    22777320.6364   22777325.9104
     -1530.442       -1192.552
  -1845560.306 9  -1430802.40848  20387792.924    20387793.2804   20387797.5984
      -237.575        -185.123
  -5796110.673 9  -4501304.44648  19769405.935    19769406.4554   19769410.9754
       -42.595         -33.191
  -3789718.797 9  -2941075.22647  22343355.666    22343355.7064   22343360.6784
      -634.820        -494.665
 96 11 12 17 38 29.9980000  0  7 25  3 15 23 21  1 31               -0.001819580
  -9134154.499 9  -7102773.51847  22757112.097    22757112.8024   22757119.1934
      3767.966        2936.077
   5802165.289 9   4521518.74247  22593831.513    22593831.9974   22593837.4004
     -2287.160       -1782.203
 -10250921.742 9  -6372370.91046  23142547.653    23142548.1774   23142553.5344
      4022.187        3134.172
   5263880.759 9   4041318.50747  22786073.376    22786073.7854   22786079.1134
     -1536.774       -1197.486
  -1838293.840 9  -1425140.23848  20389175.705    20389176.0574   20389180.3944
      -247.539        -192.888
  -5794578.974 9  -4500110.91348  19769697.303    19769697.9384   19769702.4914
       -60.204         -46.912
  -3770402.559 9  -2926023.63847  22347031.462    22347031.5174   22347036.5484
      -653.758        -509.422
 96 11 12 17 38 59.9980000  0  7 25  3 15 23 21  1 31               -0.001829889
  -9247154.383 9  -7190825.33347  22735608.961    22735609.6124   22735615.9964
      3764.487        2933.366
   5870886.835 9   4575067.94447  22606908.975    22606909.3174   22606914.6894
     -2294.923       -1788.252
 -10371530.572 9  -6466351.78746  23119596.429    23119597.0174   23119602.4624
      4017.590        3130.590
   5310030.371 9   4077279.17847  22794855.427    22794855.8034   22794861.1694
     -1540.694       -1200.541
  -1830758.241 9  -1419268.35948  20390609.555    20390609.9964   20390614.3844
      -255.646        -199.205
  -5792552.179 9  -4498531.59948  19770082.964    19770083.6194   19770088.1384
       -75.599         -58.908
  -3750548.721 9  -2910553.14947  22350809.490    22350809.6504   22350814.6524
      -670.608        -522.552
 96 11 12 17 39 29.9980000  0  7 25  3 15 23 21  1 31               -0.001840180
  -9360014.608 9  -7278768.33247  22714132.356    22714133.0124   22714139.3674
      3759.840        2929.745
   5939864.914 9   4628817.04147  22620035.089    22620035.4194   22620040.8444
     -2303.154       -1794.665
 -10491972.188 9  -6560202.38946  23096676.940    23096677.6944   23096683.0214
      4012.233        3126.415
   5356320.370 9   4113349.18047  22803664.042    22803664.4964   22803669.9334
     -1544.897       -1203.816
  -1822949.530 9  -1413183.65248  20392095.449    20392095.9234   20392100.3514
      -264.729        -206.282
  -5790038.908 9  -4496573.20248  19770561.184    19770561.8924   19770566.3744
       -91.597         -71.374
  -3730165.124 9  -2894669.86147  22354688.520    22354688.6014   22354693.5364
      -687.782        -535.934
 96 11 12 17 39 59.9980000  0  7 25  3 15 23 21  1 31               -0.001850463
  -9472735.883 9  -7366603.03747  22692682.325    22692682.8464   22692689.1434
      3755.009        2925.981
   6009089.433 9   4682758.17347  22633207.834    22633208.4524   22633213.9514
     -2311.377       -1801.073
 -10612257.684 9  -6653931.32446  23073786.988    23073788.0074   23073793.3694
      4007.131        3122.440
   5402732.073 8   4149514.03647  22812495.833    22812496.3484   22812501.8474
     -1548.777       -1206.839
  -1814866.091 9  -1406884.87948  20393633.674    20393634.1894   20393638.6664
      -273.787        -213.341
  -5787052.885 9  -4494246.43548  19771129.476    19771130.1024   19771134.6224
      -106.874         -83.278
  -3709284.808 9  -2878399.51647  22358661.785    22358662.0304   22358666.9544
      -704.035        -548.599
 96 11 12 17 40 29.9980000  0  7 25  3 15 23 21  1 31               -0.001860725
  -9585294.519 9  -7454311.03847  22671262.654    22671263.6134   22671269.9504
      3748.227        2920.696
   6078557.906 9   4736889.40547  22646427.115    22646427.9294   22646433.4504
     -2320.350       -1808.065
 -10732389.274 9  -6747540.31546  23050926.898    23050927.7474   23050933.1074
      4001.007        3117.668
   5449263.101 9   4185771.87347  22821350.293    22821350.8584   22821356.4134
     -1553.880       -1210.816
  -1806513.407 9  -1400376.30048  20395223.169    20395223.6774   20395228.1974
      -283.535        -220.936
  -5783620.617 9  -4491571.94048  19771782.578    19771783.2354   19771787.7574
      -122.583         -95.519
  -3687921.711 9  -2861752.97647  22362727.101    22362727.2634   22362732.1924
      -720.840        -561.693
 96 11 12 17 40 59.9980000  0  7 25  3 15 23 21  1 31               -0.001870963
  -9697673.241 9  -7541878.84347  22649877.135    22649878.5914   22649884.9314
      3743.248        2916.817
   6148264.130 9   4791205.87747  22659691.995    22659692.6864   22659698.1924
     -2327.220       -1813.418
 -10852357.690 9  -6841022.17346  23028097.721    23028098.3954   23028103.8154
      3996.359        3114.046
   5495923.457 9   4222130.50147  22830229.433    22830230.0414   22830235.6224
     -1557.357       -1213.525
  -1797891.565 9  -1393657.99848  20396863.747    20396864.3414   20396868.9984
      -291.896        -227.451
  -5779741.058 9  -4488548.91448  19772520.740    19772521.5044   19772526.0184
      -136.564        -106.413
  -3666083.674 9  -2844736.35547  22366882.367    22366882.9174   22366887.9184
      -735.645        -573.230
 96 11 12 17 41 29.9980000  0  7 25  3 15 23 21  1 31               -0.001881176
  -9809884.923 9  -7629316.49147  22628524.478    22628525.4074   22628531.5994
      3736.340        2911.434
   6218191.158 9   4845694.41847  22672998.536    22672999.4394   22673004.9364
     -2335.615       -1819.960
 -10972172.327 9  -6934384.21846  23005297.555    23005298.3694   23005303.6974
      3990.136        3109.197
   5542705.816 9   4258584.22447  22839131.890    22839132.4984   22839138.0314
     -1562.663       -1217.659
  -1788997.610 9  -1386727.65348  20398556.156    20398556.8054   20398561.4614
      -302.155        -235.445
  -5775432.577 9  -4485191.65748  19773340.703    19773341.4244   19773345.9134
      -151.988        -118.432
  -3643774.339 9  -2827352.48747  22371127.899    22371128.2374   22371133.3094
      -752.837        -586.626
 96 11 12 17 41 59.9980000  0  7 25  3 15 23 21  1 31               -0.001891347
  -9921896.662 9  -7716598.34847  22607208.929    22607210.2384   22607216.3854
      3730.942        2907.227
   6288354.601 9   4900367.16247  22686350.281    22686351.1614   22686356.6894
     -2341.963       -1824.906
 -11091805.895 9  -7027605.16846  22982531.947    22982532.9924   22982538.1334
      3985.257        3105.395
   5589645.390 9   4295160.45747  22848064.187    22848064.8804   22848070.3654
     -1566.749       -1220.843
  -1779807.219 9  -1379566.31248  20400304.975    20400305.6374   20400310.2514
      -310.671        -242.081
  -5770664.533 9  -4481476.30248  19774247.966    19774248.7524   19774253.1874
      -165.944        -129.307
  -3620949.096 9  -2809566.62147  22375471.658    22375471.7314   22375476.8554
      -769.301        -599.455
 96 11 12 17 42 29.9980000  0  7 25  3 15 23 21  1 31               -0.001901487
 -10033735.010 9  -7803745.08347  22585926.636    22585928.1264   22585934.2314
      3725.705        2903.147
   6358713.671 9   4955192.34347  22699738.872    22699740.0554   22699745.6494
     -2347.879       -1829.516
 -11211278.580 9  -7120700.75246  22959797.407    22959798.2424   22959803.3084
      3980.305        3101.536
   5636720.935 9   4331842.64347  22857022.409    22857023.1324   22857028.5834
     -1570.921       -1224.094
  -1770352.467 9  -1372198.97548  20402104.075    20402104.7934   20402109.4614
      -318.893        -248.488
  -5765466.145 9  -4477425.61048  19775237.185    19775237.9474   19775242.3844
      -180.047        -140.296
  -3597603.215 9  -2791375.05247  22379913.867    22379914.3124   22379919.4884
      -786.406        -612.784
 96 11 12 17 42 59.9980000  0  7 25  3 15 23 21  1 31               -0.001911603
 -10145410.965 9  -7890765.29947  22564675.529    22564676.8954   22564682.9244
      3719.944        2898.658
   6429258.139 9   5010161.99947  22713163.055    22713164.2784   22713169.9524
     -2354.629       -1834.776
 -11330590.750 9  -7213671.24546  22937092.901    22937093.8254   22937098.9474
      3974.340        3096.888
   5683932.526 9   4368630.83947  22866006.472    22866007.2344   22866012.7054
     -1576.073       -1228.109
  -1760640.406 9  -1364631.14848  20403952.131    20403952.8774   20403957.6344
      -328.059        -255.630
  -5759831.067 9  -4473034.64248  19776309.356    19776310.2184   19776314.6944
      -195.187        -152.094
  -3573731.790 9  -2772773.98447  22384456.782    22384456.8774   22384462.0614
      -804.631        -626.985
 96 11 12 17 43 29.9980000  0  7 25  3 15 23 21  1 31               -0.001921684
 -10256908.629 9  -7977646.55047  22543458.743    22543459.5254   22543465.6374
      3713.035        2893.274
   6500000.449 9   5065285.82147  22726624.878    22726626.1454   22726631.8704
     -2361.540       -1840.161
 -11449725.295 9  -7306503.34946  22914422.331    22914423.3774   22914428.5444
      3967.829        3091.815
   5731300.900 9   4405541.18147  22875020.371    22875021.2274   22875026.6754
     -1581.948       -1232.687
  -1750665.788 9  -1356858.72848  20405850.223    20405851.0074   20405855.7014
      -336.961        -262.567
  -5753741.721 9  -4468289.69548  19777467.972    19777468.9734   19777473.4764
      -210.885        -164.326
  -3549313.164 9  -2753746.51047  22389103.174    22389103.5554   22389108.7964
      -823.254        -641.497
 96 11 12 17 43 59.9980000  0  7 25  3 15 23 21  1 31               -0.001931733
 -10368208.837 9  -8064373.96547  22522278.536    22522279.8144   22522285.9304
      3706.896        2888.490
   6570936.973 9   5120560.95747  22740123.530    22740124.9304   22740130.7154
     -2367.838       -1845.069
 -11568671.697 9  -7399188.81546  22891787.503    22891788.5354   22891794.0284
      3961.727        3087.060
   5778833.950 9   4442579.90647  22884065.632    22884066.5334   22884071.9084
     -1586.952       -1236.586
  -1740442.957 9  -1348892.88848  20407795.524    20407796.3934   20407801.0514
      -344.835        -268.702
  -5747191.374 9  -4463185.53248  19778714.333    19778715.4514   19778719.9794
      -225.844        -175.982
  -3524362.782 9  -2734304.69647  22393850.930    22393851.5314   22393856.7324
      -840.180        -654.686
 96 11 12 17 44 29.9980000  0  7 25  3 15 23 21  1 31               -0.001941764
 -10479331.220 9  -8150962.82047  22501132.656    22501133.9904   22501139.9564
      3701.308        2884.136
   6642064.052 9   5175984.59947  22753658.491    22753660.0584   22753665.7704
     -2373.963       -1849.841
 -11687436.739 9  -7491732.97046  22869187.022    22869188.3464   22869193.9564
      3956.027        3082.618
   5826510.086 9   4479730.11256  22893138.143    22893139.0804          0.0005
     -1591.367       -1240.026
  -1729988.525 9  -1340746.57648  20409785.026    20409785.9114   20409790.4774
      -352.082        -274.350
  -5740194.751 9  -4457733.61848  19780045.713    19780046.8704   19780051.3814
      -240.615        -187.492
  -3498920.709 9  -2714479.73147  22398691.922    22398693.0564   22398698.2264
      -855.547        -666.660
 96 11 12 17 44 59.9980000  0  7 25  3 15 23 21  1 31               -0.001951776
 -10590261.769 9  -8237402.20847  22480023.694    22480024.6994   22480030.5744
      3694.700        2878.987
   6713398.941 9   5231570.16247  22767232.990    22767234.6554   22767240.3774
     -2381.053       -1855.366
 -11806008.328 9  -7584126.39546  22846623.546    22846624.6864   22846630.4954
      3949.292        3077.370
   5874342.080 9   4517001.81655  22902240.206           0.0005          0.0005
     -1596.844       -1244.294
  -1719298.407 9  -1332416.62748  20411819.335    20411820.1794   20411824.7224
      -360.053        -280.561
  -5732729.599 9  -4451916.61648  19781466.137    19781467.4714   19781471.9304
      -256.340        -199.745
  -3473013.053 9  -2694291.98447  22403622.095    22403623.1094   22403628.2374
      -871.112        -678.788
 96 11 12 17 45 29.9980000  0  7 25  3 15 23 21  1 31               -0.001961777
 -10700998.541 9  -8323690.59947  22458950.509    22458952.1314   22458958.0244
      3687.996        2873.763
   6784927.059 9   5287306.28947  22780844.515    22780846.0334   22780851.7884
     -2387.268       -1860.209
 -11924385.875 9  -7676368.62246  22824096.825    22824098.0804   22824103.8204
      3942.701        3072.235
   5922327.371 9   4554393.11455  22911371.501           0.0005          0.0005
     -1601.937       -1248.263
  -1708376.951 9  -1323906.41548  20413897.442    20413898.3784   20413902.9784
      -368.013        -286.763
  -5724803.680 9  -4445740.57548  19782974.403    19782975.7474   19782980.1834
      -271.783        -211.779
  -3446653.441 9  -2673752.05547  22408637.711    22408639.1624   22408644.2844
      -886.060        -690.436
 96 11 12 17 45 59.9980000  0  7 25  3 15 23 21  1 31               -0.001971761
 -10811535.462 9  -8409823.23747  22437916.455    22437917.5824   22437923.5884
      3681.318        2868.559
   6856653.678 9   5343197.09047  22794493.675    22794495.1584   22794500.9484
     -2394.415       -1865.778
 -12042555.099 9  -7768448.49846  22801610.001    22801611.2884   22801616.9374
      3935.398        3066.544
   5970469.101 9   4591906.06056  22920532.546           0.0005   22920539.1535
     -1607.333       -1252.467
  -1697196.466 9  -1315194.34448  20416024.898    20416025.9514   20416030.5204
      -377.416        -294.090
  -5716401.777 9  -4439193.63948  19784573.277    19784574.5474   19784579.0194
      -288.231        -224.596
  -3419844.647 9  -2652862.10747  22413738.906    22413740.6704   22413745.9134
      -901.379        -702.373
 96 11 12 17 46 29.9980000  0  7 25  3 15 23 21  1 31               -0.001981741
 -10921890.382 9  -8495814.03647  22416916.586    22416917.6924   22416923.7804
      3675.319        2863.885
   6928572.922 9   5399237.98647  22808179.488    22808180.9094   22808186.7914
     -2400.461       -1870.489
 -12160526.426 9  -7860374.19346  22779161.084    22779162.2634   22779167.7144
      3929.105        3061.640
   6018756.018 9   4629532.20656  22929721.179    22929722.3385   22929728.0575
     -1612.177       -1256.242
  -1685744.664 9  -1306270.86948  20418204.068    20418205.1124   20418209.7084
      -386.276        -300.994
  -5707524.020 9  -4432275.90248  19786262.689    19786264.0014   19786268.4174
      -303.911        -236.814
  -3392588.486 9  -2631623.57247  22418925.975    22418927.4014   22418932.6754
      -916.058        -713.811
 96 11 12 17 46 59.9980000  0  7 25  3 15 23 21  1 31               -0.001991711
 -11032047.775 9  -8581650.92047  22395953.931    22395955.3734   22395961.5014
      3668.397        2858.491
   7000679.727 9   5455425.05447  22821900.568    22821902.4434   22821908.2644
     -2406.899       -1875.506
 -12278298.047 9  -7952144.28046  22756749.830    22756751.0264   22756756.2374
      3922.177        3056.242
   6067197.988 9   4667279.11146  22938939.401    22938940.5204   22938946.3774
     -1617.389       -1260.303
  -1674009.955 9  -1297126.94748  20420437.018    20420438.1474   20420442.7144
      -396.243        -308.761
  -5698169.166 9  -4424986.40348  19788042.872    19788044.1664   19788048.5654
      -319.699        -249.116
  -3364874.101 9  -2610027.97747  22424200.087    22424201.3454   22424206.6174
      -931.908        -726.162
 96 11 12 17 47 29.9980000  0  7 25  3 15 23 21  1 31               -0.002001670
 -11142013.689 9  -8667338.62247  22375028.000    22375029.5824   22375035.6244
      3662.133        2853.610
   7072971.312 9   5511756.08747  22835657.648    22835659.1264   22835664.9374
     -2413.134       -1880.364
 -12395879.155 9  -8043765.90246  22734374.775    22734375.9744   22734381.3854
      3916.043        3051.462
   6115766.019 9   4705124.24146  22948181.568    22948182.7604   22948188.7374
     -1621.046       -1263.153
  -1661987.551 9  -1287758.83848  20422724.734    20422725.9014   20422730.4704
      -405.873        -316.265
  -5688365.363 9  -4417347.07648  19789908.271    19789909.7534   19789914.1314
      -334.384        -260.559
  -3336693.870 9  -2588069.38947  22429563.566    22429563.8954   22429569.1784
      -947.289        -738.147
 96 11 12 17 47 59.9970000  0  7 25  3 15 23 21  1 31               -0.002011604
 -11251758.197 9  -8752853.77547  22354144.310    22354145.9524   22354151.8494
      3653.625        2846.981
   7145481.060 9   5568257.11447  22849455.736    22849457.3504   22849463.2014
     -2421.581       -1886.946
 -12513243.686 9  -8135218.74246  22712040.923    22712042.2254   22712047.7054
      3907.935        3045.144
   6164470.162 8   4743075.44646  22957449.443    22957450.8264   22957456.8824
     -1626.712       -1267.568
  -1649644.993 9  -1278141.26648  20425073.381    20425074.6384   20425079.1574
      -417.479        -325.308
  -5678098.751 9  -4409347.11748  19791861.761    19791863.3744   19791867.7754
      -350.476        -273.098
  -3308022.944 9  -2565728.42447  22435018.639    22435019.8124   22435025.0574
      -964.933        -751.896
 96 11 12 17 48 29.9970000  0  7 25  3 15 23 21  1 31               -0.002021498
 -11361280.795 9  -8838196.02247  22333302.694    22333304.5004   22333310.3224
      3646.887        2841.730
   7218204.532 9   5624924.68547  22863294.834    22863296.1454   22863302.0594
     -2427.480       -1891.543
 -12630407.896 9  -8226515.50346  22689745.436    22689746.6384   22689752.0494
      3902.108        3040.604
   6213311.039 8   4781133.14946  22966743.402    22966744.9474   22966750.9574
     -1630.316       -1270.376
  -1637003.367 9  -1268290.65148  20427479.080    20427480.3644   20427484.7824
      -426.079        -332.010
  -5667408.187 9  -4401016.81048  19793896.170    19793897.7524   19793902.0914
      -363.076        -282.916
  -3278856.130 9  -2543001.07247  22440568.782    22440570.0944   22440575.2684
      -980.385        -763.936
 96 11 12 17 48 59.9970000  0  7 25  3 15 23 21  1 31               -0.002031337
 -11470559.145 9  -8923347.92947  22312507.796    22312509.4644   22312515.3314
      3638.467        2835.169
   7291141.434 9   5681758.56247  22877173.875    22877175.6024   22877181.5714
     -2434.922       -1897.342
 -12747355.661 9  -8317643.62146  22667491.239    22667492.3664   22667497.6804
      3894.344        3034.554
   6262295.249 8   4819302.53846  22976064.965    22976066.3874   22976072.4274
     -1635.312       -1274.269
  -1624070.525 9  -1258213.11448  20429940.030    20429941.3874   20429945.8714
      -436.203        -339.898
  -5656310.408 9  -4392369.18148  19796008.070    19796009.5994   19796013.8974
      -376.713        -293.543
  -3249185.306 9  -2519880.95847  22446214.568    22446216.2804   22446221.4614
      -997.799        -777.506
 96 11 12 17 49 29.9970000  0  7 25  3 15 23 21  1 31               -0.002041123
 -11579611.169 9  -9008323.48847  22291755.848    22291757.5274   22291763.4214
      3630.780        2829.179
   7364267.762 9   5738740.04347  22891089.740    22891091.0944   22891097.1334
     -2440.894       -1901.995
 -12864091.811 9  -8408606.82246  22645276.734    22645278.1604   22645283.5994
      3887.017        3028.844
   6311415.065 9   4857577.58046  22985412.274    22985413.6074   22985419.7024
     -1640.430       -1278.257
  -1610859.025 9  -1247918.46148  20432454.169    20432455.4924   20432460.0404
      -445.532        -347.168
  -5644826.962 9  -4383421.04448  19798193.224    19798194.8264   19798199.1524
      -390.056        -303.940
  -3219014.595 9  -2496371.33847  22451956.471    22451957.6774   22451962.8054
     -1014.611        -790.606
 96 11 12 17 49 59.9970000  0  7 25  3 15 23 21  1 31               -0.002050853
 -11688427.683 9  -9093115.51147  22271049.083    22271050.4474   22271056.1894
      3622.972        2823.095
   7437559.196 9   5795850.17147  22905035.868    22905038.0154   22905044.1124
     -2445.878       -1905.879
 -12980601.545 9  -8499393.63046  22623105.379    22623107.0764   22623112.5114
      3879.519        3023.002
   6360706.359 9   4895986.26747  22994792.198    22994793.5614   22994799.6074
     -1646.480       -1282.971
  -1597364.052 9  -1237402.90448  20435022.234    20435023.5184   20435028.0564
      -454.826        -354.410
  -5632930.391 9  -4374150.98448  19800457.019    19800458.6464   19800462.9894
      -403.889        -314.719
  -3188335.943 9  -2472465.92347  22457794.589    22457795.6734   22457800.8434
     -1031.313        -803.620
 96 11 12 17 50 29.9970000  0  7 25  3 15 23 21  1 31               -0.002060542
 -11797019.715 9  -9177732.63247  22250384.785    22250386.0384   22250391.6724
      3615.897        2817.582
   7510984.990 9   5853065.02947  22919008.557    22919010.5224   22919016.6614
     -2449.970       -1909.068
 -13096891.051 9  -8590008.79846  22600976.323    22600977.8974   22600983.4694
      3872.247        3017.335
   6410171.713 9   4934530.61747  23004205.199    23004206.6134   23004212.5964
     -1651.866       -1287.168
  -1583600.238 9  -1226677.86348  20437641.413    20437642.7394   20437647.2074
      -463.594        -361.242
  -5620612.957 9  -4364552.98148  19802801.038    19802802.5314   19802806.9054
      -418.349        -325.986
  -3157172.931 9  -2448183.06947  22463724.340    22463725.7474   22463730.9444
     -1046.989        -815.836
 96 11 12 17 50 59.9970000  0  7 25  3 15 23 21  1 31               -0.002070200
 -11905380.420 9  -9262169.48547  22229763.842    22229765.5744   22229771.1884
      3608.083        2811.493
   7584551.502 9   5910389.51747  22933007.928    22933009.8234   22933015.9884
     -2454.731       -1912.777
 -13212934.656 9  -8680432.36746  22578894.300    22578895.5794   22578901.2504
      3863.843        3010.787
   6459824.331 9   4973220.86647  23013653.919    23013655.2764   23013661.2404
     -1658.238       -1292.134
  -1569542.114 9  -1215723.49848  20440316.701    20440317.9904   20440322.4284
      -473.708        -369.123
  -5607818.841 9  -4354583.53948  19805235.632    19805237.1774   19805241.5714
      -434.745        -338.762
  -3125521.024 9  -2423519.26447  22469747.717    22469748.9114   22469754.0824
     -1063.340        -828.577
 96 11 12 17 51 29.9970000  0  7 25  3 15 23 21  1 31               -0.002079862
 -12013535.831 9  -9346446.37347  22209182.487    22209184.2484   22209189.8454
      3601.292        2806.202
   7658230.861 9   5967801.93047  22947028.839    22947030.5584   22947036.7864
     -2458.266       -1915.532
 -13328757.757 9  -8770684.11546  22556853.935    22556855.1664   22556860.8504
      3856.848        3005.336
   6509632.779 9   5012032.53947  23023132.281    23023133.6224   23023139.5544
     -1663.100       -1295.922
  -1555215.440 9  -1204559.86548  20443042.989    20443044.2784   20443048.7194
      -482.212        -375.750
  -5594550.775 9  -4344244.78548  19807760.403    19807762.0174   19807766.4264
      -450.645        -351.152
  -3093418.499 9  -2398504.33747  22475856.403    22475857.8694   22475863.0454
     -1077.617        -839.702
 96 11 12 17 51 59.9970000  0  7 25  3 15 23 21  1 31               -0.002089531
 -12121461.262 9  -9430544.05547  22188644.681    22188646.6604   22188652.2944
      3592.741        2799.538
   7732055.571 9   6025327.59247  22961077.101    22961078.9714   22961085.2334
     -2464.479       -1920.373
 -13444349.735 9  -8860755.75947  22534857.073    22534858.6644   22534864.4864
      3848.360        2998.722
   6559597.547 9   5050966.04447  23032640.326    23032641.6624   23032647.6144
     -1668.760       -1300.332
  -1540617.627 9  -1193184.95748  20445820.913    20445822.2094   20445826.6344
      -491.775        -383.201
  -5580786.982 9  -4333519.75348  19810379.556    19810381.1424   19810385.5984
      -467.563        -364.335
  -3060872.886 9  -2373144.14147  22482050.211    22482051.0544   22482056.2904
     -1092.955        -851.653
 96 11 12 17 52 29.9970000  0  7 25  3 15 23 21  1 31               -0.002099195
 -12229139.458 9  -9514449.09147  22168153.987    22168156.0374   22168161.8434
      3585.459        2793.864
   7806069.106 9   6083000.40647  22975161.152    22975163.3214   22975169.6264
     -2470.192       -1924.825
 -13559696.711 9  -8950636.50846  22512907.179    22512908.8344   22512914.6144
      3840.967        2992.961
   6609710.819 9   5090015.26047  23042176.562    23042178.0064   23042183.9454
     -1672.556       -1303.290
  -1525754.197 9  -1181603.09248  20448649.237    20448650.5384   20448655.1124
      -499.566        -389.272
  -5566540.968 9  -4322418.96048  19813090.482    19813092.0664   19813096.5304
      -482.418        -375.910
  -3027879.123 9  -2347434.73247  22488328.385    22488329.5364   22488334.8044
     -1107.312        -862.841
 96 11 12 17 52 59.9970000  0  7 25  3 15 23 21  1 31               -0.002108839
 -12336574.945 9  -9598164.99747  22147709.680    22147711.6844   22147717.5614
      3577.276        2787.488
   7880278.583 9   6140825.91247  22989282.778    22989284.9994   22989291.3104
     -2476.697       -1929.894
 -13674799.854 9  -9040327.25046  22491003.937    22491005.5174   22491010.9934
      3833.088        2986.822
   6659961.985 9   5129171.91747  23051739.102    23051740.5454   23051746.4934
     -1677.121       -1306.848
  -1510639.941 9  -1169825.76648  20451525.303    20451526.7134   20451531.2484
      -507.644        -395.567
  -5551846.687 9  -4310968.87648  19815886.588    19815888.2634   19815892.7594
      -496.609        -386.968
  -2994426.404 9  -2321367.70147  22494694.023    22494695.3844   22494700.6994
     -1122.525        -874.695
 96 11 12 17 53 29.9970000  0  7 25  3 15 23 21  1 31               -0.002118459
 -12443770.789 9  -9681694.17447  22127310.997    22127312.9934   22127318.8244
      3569.373        2781.330
   7954671.729 9   6198794.50747  23003439.388    23003441.5804   23003447.9564
     -2482.470       -1934.392
 -13789675.602 9  -9129840.80546  22469143.966    22469145.4014   22469150.7004
      3825.500        2980.909
   6710339.541 9   5168427.05447  23061325.651    23061327.1584   23061333.1324
     -1681.395       -1310.178
  -1495294.792 9  -1157868.52848  20454445.441    20454446.8164   20454451.3484
      -515.292        -401.526
  -5536749.878 9  -4299205.12048  19818759.385    19818761.1804   19818765.5894
      -509.654        -397.133
  -2960525.595 9  -2294951.50547  22501144.715    22501146.5044   22501151.9014
     -1137.428        -886.308
 96 11 12 17 53 59.9970000  0  7 25  3 15 23 21  1 31               -0.002128036
 -12550716.494 9  -9765028.42447  22106959.734    22106961.8494   22106967.7124
      3560.713        2774.582
   8029242.787 9   6256901.75147  23017630.150    23017631.9624   23017638.4114
     -2488.328       -1938.957
 -13904307.909 9  -9219164.67547  22447330.193    22447331.7114   22447336.7884
      3816.963        2974.257
   6760864.259 9   5207796.87947  23070940.157    23070941.7734   23070947.7404
     -1686.662       -1314.282
  -1479701.183 9  -1145717.68348  20457412.650    20457414.1894   20457418.7004
      -524.146        -408.425
  -5521257.551 9  -4287133.17948  19821707.386    19821709.2434   19821713.7414
      -522.933        -407.480
  -2926159.952 9  -2268173.11247  22507684.826    22507686.0964   22507691.4404
     -1153.445        -898.788
 96 11 12 17 54 29.9970000  0  7 25  3 15 23 21  1 31               -0.002137567
 -12657414.798 9  -9848169.92247  22086655.804    22086657.8464   22086663.6644
      3552.627        2768.281
   8103959.161 9   6315122.22947  23031848.052    23031850.0114   23031856.5114
     -2492.485       -1942.196
 -14018690.075 9  -9308293.59847  22425563.986    22425565.4314   22425570.6124
      3808.675        2967.799
   6811542.733 9   5247286.50047  23080583.856    23080585.6364   23080591.6304
     -1691.838       -1318.315
  -1463840.593 9  -1133358.79748  20460430.820    20460432.3714   20460436.8344
      -533.192        -415.474
  -5505370.066 9  -4274753.32848  19824730.613    19824732.5244   19824737.0204
      -536.230        -417.841
  -2891315.024 9  -2241021.24347  22514314.611    22514316.9174   22514322.1964
     -1169.412        -911.230
 96 11 12 17 54 59.9970000  0  7 25  3 15 23 21  1 31               -0.002147055
 -12763857.428 9  -9931112.19247  22066400.388    22066402.4634   22066408.2344
      3543.062        2760.828
   8178795.599 9   6373436.25647  23046089.623    23046090.9994   23046097.4664
     -2497.046       -1945.750
 -14132815.741 9  -9397222.67047  22403846.441    22403848.0214   22403853.2124
      3799.377        2960.553
   6862391.048 9   5286908.45947  23090260.040    23090261.8374   23090267.8354
     -1698.366       -1323.402
  -1447685.164 9  -1120770.16748  20463504.944    20463506.6264   20463511.0924
      -544.231        -424.076
  -5489063.503 9  -4262046.91648  19827833.511    19827835.5804   19827840.0364
      -551.314        -429.595
  -2855993.072 9  -2213497.66947  22521036.899    22521038.4704   22521043.7274
     -1185.588        -923.835
 96 11 12 17 55 29.9970000  0  7 25  3 15 23 21  1 31               -0.002156507
 -12870029.361 9 -10013843.52147  22046196.347    22046198.5944   22046204.2904
      3535.261        2754.749
   8253756.223 9   6431847.03247  23060353.635    23060355.5864   23060362.0844
     -2500.153       -1948.171
 -14246674.798 9  -9485943.97347  22382179.412    22382181.1294   22382186.5904
      3791.423        2954.356
   6913419.319 9   5326670.64647  23099970.382    23099972.2774   23099978.2454
     -1703.294       -1327.242
  -1431206.093 9  -1107929.34848  20466640.690    20466642.5144   20466647.0454
      -554.200        -431.844
  -5472309.470 9  -4248991.81848  19831021.750    19831023.8284   19831028.1674
      -565.478        -440.632
  -2820206.188 9  -2185611.81047  22527846.784    22527848.4684   22527853.7834
     -1199.968        -935.040
 96 11 12 17 55 59.9970000  0  7 25  3 15 23 21  1 31               -0.002165930
 -12975935.700 9 -10096367.88047  22026042.983    22026045.2174   22026050.9194
      3525.720        2747.314
   8328844.683 9   6490357.45947  23074642.631    23074644.5894   23074650.9964
     -2505.312       -1952.191
 -14360266.820 9  -9574457.24147  22360563.604    22360565.4054   22360570.6224
      3781.989        2947.004
   6964620.816 9   5366567.82747  23109713.770    23109715.6664   23109721.7174
     -1709.526       -1332.098
  -1414395.707 9  -1094830.37448  20469839.546    20469841.4514   20469845.9724
      -565.919        -440.976
  -5455098.418 9  -4235580.61648  19834296.765    19834298.8994   19834303.3774
      -581.243        -452.917
  -2783968.943 9  -2157375.02547  22534742.595    22534744.1394   22534749.5604
     -1215.283        -946.974
 96 11 12 17 56 29.9970000  0  7 25  3 15 23 21  1 31               -0.002175319
 -13081564.182 9 -10178675.77747  22005942.494    22005944.7204   22005950.4104
      3516.450        2740.091
   8404086.656 9   6548987.45947  23088960.633    23088962.7284   23088969.0604
     -2510.611       -1956.320
 -14473587.053 9  -9662758.69147  22338999.360    22339001.1924   22339006.4804
      3772.985        2939.988
   7016001.880 9   5406604.94246  23119491.160    23119493.2164   23119499.3184
     -1715.641       -1336.863
  -1397247.577 9  -1081468.21148  20473102.609    20473104.6354   20473109.1604
      -576.931        -449.557
  -5437431.155 9  -4221813.92148  19837658.681    19837660.9054   19837665.3364
      -596.268        -464.624
  -2747295.558 9  -2128798.39447  22541721.204    22541722.8694   22541728.3404
     -1229.352        -957.937
 96 11 12 17 56 59.9970000  0  7 25  3 15 23 21  1 31               -0.002184677
 -13186921.026 9 -10260771.98447  21985893.646    21985895.9794   21985901.5344
      3507.045        2732.762
   8479488.258 9   6607741.87847  23103308.981    23103311.2444   23103317.6354
     -2516.385       -1960.819
 -14586648.627 9  -9750858.59547  22317484.265    22317486.3424   22317491.5194
      3764.132        2933.090
   7067558.340 9   5446778.70446  23129302.025    23129304.1764   23129310.1974
     -1721.690       -1341.577
  -1379780.924 9  -1067857.85648  20476426.263    20476428.4114   20476433.0034
      -587.686        -457.937
  -5419326.660 9  -4207706.52448  19841103.827    19841106.1024   19841110.4724
      -610.878        -476.009
  -2710215.944 9  -2099905.22147  22548777.140    22548778.9234   22548784.3804
     -1243.169        -968.703
 96 11 12 17 57 29.9970000  0  7 25  3 15 23 21  1 31               -0.002193994
 -13291995.624 9 -10342648.26147  21965897.981    21965900.9084   21965906.3914
      3498.091        2725.785
   8555057.958 9   6666627.27747  23117689.345    23117691.7724   23117698.1394
     -2521.427       -1964.748
 -14699444.247 9  -9838751.27847  22296019.472    22296021.9244   22296027.2224
      3755.654        2926.484
   7119292.637 9   5487091.02446  23139146.739    23139148.9264   23139155.0054
     -1727.193       -1345.865
  -1362001.015 9  -1054003.40248  20479809.554    20479811.7894   20479816.3994
      -597.468        -465.559
  -5400794.670 9  -4193266.01748  19844630.229    19844632.5864   19844637.0414
      -624.475        -486.604
  -2672713.521 9  -2070682.58747  22555913.408    22555915.4634   22555920.8864
     -1257.052        -979.521
 96 11 12 17 57 59.9970000  0  7 25  3 15 23 21  1 31               -0.002203263
 -13396785.430 9 -10424302.63847  21945956.772    21945959.9994   21945965.5284
      3488.318        2718.170
   8630783.164 9   6725633.84146  23132099.206    23132101.8394   23132108.2504
     -2526.466       -1968.675
 -14811968.729 9  -9926432.63847  22274606.664    22274609.1774   22274614.7554
      3746.358        2919.240
   7171211.387 9   5527547.11146  23149026.463    23149028.8084   23149034.9924
     -1733.645       -1350.892
  -1343919.376 9  -1039913.83348  20483250.246    20483252.5494   20483257.2024
      -607.547        -473.413
  -5381845.207 9  -4178500.20548  19848236.082    19848238.5274   19848242.9954
      -638.388        -497.445
  -2634776.103 9  -2041121.01147  22563133.151    22563134.7224   22563140.1924
     -1271.793        -991.008
 96 11 12 17 58 29.9970000  0  7 25  3 15 23 21  1 31               -0.002212479
 -13501281.188 9 -10505727.86547  21926071.779    21926075.0864   21926080.7174
      3477.714        2709.907
   8706650.091 9   6784750.83646  23146536.087    23146538.8574   23146545.2594
     -2531.505       -1972.601
 -14924210.727 9 -10013893.92447  22253247.886    22253250.2114   22253255.7894
      3736.129        2911.269
   7223324.044 9   5568154.26446  23158943.128    23158945.5824   23158951.8204
     -1740.751       -1356.429
  -1325538.746 9  -1025591.29248  20486747.800    20486750.1894   20486754.9474
      -618.097        -481.634
  -5362474.403 9  -4163406.06948  19851922.121    19851924.6944   19851929.1114
      -653.314        -509.076
  -2596387.327 9  -2011207.71147  22570437.815    22570439.8824   22570445.3784
     -1287.840       -1003.512
 96 11 12 17 58 59.9970000  0  7 25  3 15 23 21  1 31               -0.002221657
 -13605484.869 9 -10586925.52547  21906242.500    21906245.7694   21906251.6024
      3468.728        2702.905
   8782631.784 9   6843957.26646  23160995.101    23160997.7914   23161004.2224
     -2534.352       -1974.820
 -15036172.784 9 -10101137.06747  22231942.024    22231944.4634   22231950.1234
      3727.522        2904.562
   7275614.457 9   5608899.95746  23168893.606    23168896.2554   23168902.5174
     -1745.523       -1360.148
  -1306866.106 9  -1011041.20348  20490300.917    20490303.4484   20490308.2854
      -627.125        -488.669
  -5342679.426 9  -4147981.41648  19855688.962    19855691.5454   19855696.0004
      -666.767        -519.559
  -2557539.909 9  -1980937.03647  22577829.930    22577832.2444   22577837.8024
     -1302.585       -1015.001
 96 11 12 17 59 29.9970000  0  7 25  3 15 23 21  1 31               -0.002230814
 -13709407.908 9 -10667904.51347  21886466.748    21886469.8914   21886475.7234
      3459.355        2695.601
   8858713.602 9   6903241.71646  23175473.310    23175475.7904   23175482.1954
     -2537.970       -1977.639
 -15147860.354 9 -10188166.31547  22210688.237    22210690.9314   22210696.7234
      3718.059        2897.189
   7328050.643 9   5649759.22946  23178871.850    23178874.6704   23178880.9224
     -1750.486       -1364.015
  -1287912.785 9   -996272.39548  20493907.588    20493910.1904   20493914.9524
      -636.729        -496.152
  -5322466.026 9  -4132230.71948  19859535.331    19859538.0064   19859542.4744
      -681.080        -530.712
  -2518235.036 9  -1950309.90047  22585308.570    22585311.6794   22585317.2804
     -1317.830       -1026.880
 96 11 12 17 59 59.9970000  0  7 25  3 15 23 21  1 31               -0.002239952
 -13813050.338 9 -10748664.82047  21866744.218    21866747.3524   21866753.1494
      3450.231        2688.492
   8934900.737 9   6962608.22646  23189971.812    23189973.7804   23189980.2174
     -2541.024       -1980.019
 -15259266.050 9 -10274975.93247  22189488.071    22189491.0004   22189496.7594
      3709.141        2890.240
   7380628.909 8   5690729.20446  23188877.088    23188879.9724   23188886.2794
     -1754.569       -1367.197
  -1268669.992 9   -981278.02248  20497569.450    20497572.0814   20497576.6944
      -645.951        -503.338
  -5301825.636 9  -4116147.30048  19863462.942    19863465.7824   19863470.2264
      -694.784        -541.390
  -2478481.850 9  -1919333.43747  22592873.792    22592876.4704   22592882.0624
     -1332.137       -1038.029
 96 11 12 18  0 29.9970000  0  7 25  3 15 23 21  1 31               -0.002249074
 -13916398.709 9 -10829196.00347  21847077.624    21847080.7044   21847086.4744
      3440.416        2680.844
   9011202.590 9   7022064.13546  23204491.248    23204493.6784   23204500.0924
     -2545.009       -1983.124
 -15370387.392 9 -10361563.97547  22168342.527    22168345.4304   22168351.1174
      3699.719        2882.898
   7433346.552 8   5731807.78346  23198908.902    23198911.7804   23198918.2404
     -1759.117       -1370.741
  -1249135.850 9   -966056.62748  20501286.720    20501289.3744   20501293.8624
      -655.561        -510.827
  -5280752.872 9  -4099726.96548  19867472.830    19867475.7924   19867480.2344
      -709.225        -552.643
  -2438282.874 9  -1888009.60447  22600523.414    22600526.1374   22600531.7014
     -1347.015       -1049.622
 96 11 12 18  0 59.9970000  0  7 25  3 15 23 21  1 31               -0.002258198
 -14019472.457 9 -10909513.17847  21827463.316    21827466.3734   21827472.1004
      3431.203        2673.665
   9087606.117 9   7081599.25246  23219030.035    23219032.7874   23219039.2564
     -2548.573       -1985.901
 -15481246.709 9 -10447947.83547  22147246.508    22147249.3194   22147255.1814
      3690.844        2875.982
   7486179.975 8   5772976.59746  23208962.761    23208965.7624   23208972.0514
     -1763.185       -1373.910
  -1229332.219 9   -950625.24748  20505055.134    20505057.9094   20505062.3484
      -664.565        -517.843
  -5259269.833 9  -4082986.94148  19871560.837    19871563.8754   19871568.3204
      -722.923        -563.317
  -2397662.417 9  -1856357.33247  22608253.124    22608255.9274   22608261.5854
     -1361.206       -1060.680
 96 11 12 18  1 29.9970000  0  7 25  3 15 23 21  1 31               -0.002267311
 -14122271.367 9 -10989616.20147  21807901.009    21807904.3664   21807910.0724
      3421.526        2666.124
   9164114.282 9   7141215.92746  23233589.453    23233591.8844   23233598.2494
     -2552.472       -1988.939
 -15591836.384 9 -10534121.58947  22126201.740    22126204.7964   22126210.7554
      3681.304        2868.549
   7539143.672 8   5814246.89045  23219041.488    23219044.5104   23219050.8664
     -1768.433       -1378.000
  -1209261.009 9   -934985.35348  20508874.585    20508877.3664   20508881.8164
      -674.066        -525.246
  -5237381.971 9  -4065931.45948  19875726.065    19875729.0194   19875733.4494
      -736.700        -574.052
  -2356615.824 9  -1824373.01347  22616063.566    22616066.8634   22616072.5764
     -1375.611       -1071.905
 96 11 12 18  1 59.9970000  0  7 25  3 15 23 21  1 31               -0.002276392
 -14224772.401 9 -11069487.10247  21788395.630    21788399.0134   21788404.8124
      3411.054        2657.964
   9240730.398 9   7200916.71946  23248168.569    23248171.5934   23248177.9644
     -2556.178       -1991.827
 -15702142.757 9 -10620074.57547  22105210.957    22105214.1354   22105220.2204
      3671.571        2860.964
   7592273.645 8   5855646.75845  23229151.661    23229154.9564   23229161.1864
     -1774.370       -1382.626
  -1188905.259 9   -919123.74548  20512748.022    20512750.9134   20512755.4384
      -683.819        -532.846
  -5215090.602 9  -4048561.56948  19879967.869    19879970.8644   19879975.3554
      -750.267        -584.624
  -2315149.272 9  -1792061.45147  22623954.580    22623957.7074   22623963.4584
     -1389.743       -1082.917
 96 11 12 18  2 29.9970000  0  7 25  3 15 23 21  1 31               -0.002285432
 -14326961.095 9 -11149114.60947  21768949.580    21768953.0384   21768958.9304
      3402.096        2650.984
   9317461.386 9   7260706.99146  23262769.822    23262773.0624   23262779.5204
     -2558.638       -1993.744
 -15812153.314 9 -10705797.07947  22084276.798    22084279.8954   22084285.8894
      3662.955        2854.251
   7645585.527 8   5897188.43845  23239296.678    23239299.8904   23239306.0664
     -1779.108       -1386.318
  -1168259.371 9   -903036.07148  20516676.778    20516679.6804   20516684.2434
      -692.149        -539.337
  -5192390.000 9  -4030872.79448  19884287.492    19884290.6814   19884295.1794
      -762.487        -594.146
  -2273253.603 9  -1759415.51547  22631927.100    22631930.2124   22631935.9554
     -1402.738       -1093.043
 96 11 12 18  2 59.9970000  0  7 25  3 15 23 21  1 31               -0.002294461
 -14428894.520 9 -11228543.23347  21749552.119    21749555.7584   21749561.6144
      3393.354        2644.172
   9394245.712 9   7320538.85546  23277381.893    23277384.7054   23277391.1394
     -2560.528       -1995.217
 -15921915.253 9 -10791325.82347  22063389.541    22063392.8144   22063398.9704
      3654.335        2847.534
   7699026.804 8   5938830.89545  23249466.236    23249469.4734   23249475.8284
     -1783.649       -1389.856
  -1147372.968 9   -886760.97748  20520651.151    20520654.1424   20520658.8124
      -700.445        -545.801
  -5169345.879 9  -4012916.33448  19888672.642    19888675.8304   19888680.3074
      -773.941        -603.071
  -2230986.834 9  -1726480.39647  22639970.391    22639973.3744   22639979.0874
     -1415.039       -1102.628
 96 11 12 18  3 29.9970000  0  7 25  3 15 23 21  1 31               -0.002303462
 -14530550.465 9 -11307755.60047  21730207.965    21730211.3794   21730217.1164
      3384.104        2636.964
   9471106.240 9   7380430.09446  23292007.940    23292010.8324   23292017.3224
     -2563.080       -1997.205
 -16031404.365 9 -10876642.00547  22042554.614    22042557.8054   22042563.7314
      3645.271        2840.471
   7752611.978 8   5980585.43845  23259663.146    23259666.4724   23259672.9144
     -1788.283       -1393.467
  -1126222.826 9   -870280.37248  20524675.711    20524678.8444   20524683.6144
      -709.326        -552.721
  -5145948.827 9  -3994684.86348  19893124.857    19893128.1434   19893132.6274
      -785.499        -612.077
  -2188349.944 9  -1693256.88647  22648084.665    22648086.9634   22648092.6584
     -1427.030       -1111.971
 96 11 12 18  3 59.9970000  0  7 25  3 15 23 21  1 31               -0.002312447
 -14631938.079 9 -11386758.87047  21710914.496    21710917.9734   21710923.7384
      3375.111        2629.957
   9548030.127 9   7440370.69646  23306645.783    23306648.9334   23306655.4114
     -2565.125       -1998.799
 -16140628.401 9 -10961751.64547  22021770.122    22021773.2794   22021778.9294
      3636.290        2833.473
   7806327.681 8   6022441.75545  23269884.958    23269888.5204   23269894.6704
     -1792.600       -1396.831
  -1104815.818 9   -853599.60148  20528749.364    20528752.5264   20528757.2584
      -717.853        -559.366
  -5122207.116 9  -3976184.83948  19897642.477    19897645.9444   19897650.5684
      -797.224        -621.214
  -2145366.710 9  -1659763.48247  22656263.759    22656266.4654   22656272.0914
     -1438.691       -1121.058
 96 11 12 18  4 29.9970000  0  7 25  3 15 23 21  1 31               -0.002321425
 -14733062.528 9 -11465557.06547  21691671.219    21691674.5394   21691680.3904
      3366.330        2623.114
   9625007.708 9   7500353.12446  23321294.144    23321297.3134   23321303.8674
     -2566.813       -2000.114
 -16249586.019 9 -11046653.66547  22001036.020    22001039.2824   22001044.8744
      3627.392        2826.539
   7860160.969 8   6064389.70545  23280128.963    23280132.7014   23280138.8674
     -1796.447       -1399.829
  -1083159.515 9   -836724.57848  20532870.401    20532873.6124   20532878.3004
      -726.121        -565.808
  -5098119.975 9  -3957415.63248  19902226.199    19902229.6944   19902234.1694
      -808.633        -630.104
  -2102029.433 9  -1625994.20847  22664510.084    22664513.3024   22664518.8944
     -1450.564       -1130.310
 96 11 12 18  4 59.9970000  0  7 25  3 15 23 21  1 31               -0.002330395
 -14833922.530 9 -11544149.20447  21672478.092    21672481.4664   21672487.2694
      3357.837        2616.496
   9702032.330 9   7560372.22646  23335950.905    23335954.7034   23335961.2004
     -2567.976       -2001.020
 -16358275.275 9 -11131346.56047  21980353.056    21980356.4084   21980362.0514
      3618.701        2819.767
   7914110.492 8   6106428.19845  23290395.431    23290398.9814   23290405.3714
     -1799.987       -1402.587
  -1061251.157 9   -819653.15148  20537039.341    20537042.6324   20537047.3084
      -734.336        -572.210
  -5073693.480 9  -3938382.00548  19906874.429    19906877.8924   19906882.3404
      -819.780        -638.790
  -2058349.806 9  -1591958.16847  22672822.322    22672825.2344   22672830.8724
     -1461.360       -1138.722
 96 11 12 18  5 29.9970000  0  7 25  3 15 23 21  1 31               -0.002339351
 -14934505.591 9 -11622525.55347  21653337.986    21653341.1784   21653346.8634
      3348.312        2609.074
   9779107.949 9   7620431.05946  23350617.875    23350621.7774   23350628.2544
     -2569.561       -2002.255
 -16466680.492 9 -11215818.12847  21959724.237    21959727.5444   21959733.1724
      3608.909        2812.137
   7968193.836 8   6148571.00445  23300687.169    23300690.6914   23300697.2544
     -1805.029       -1406.516
  -1039072.510 9   -802371.10348  20541259.812    20541263.1254   20541267.8264
      -743.622        -579.446
  -5048903.904 9  -3919065.45648  19911591.658    19911595.1404   19911599.6294
      -832.184        -648.455
  -2014317.832 9  -1557647.55947  22681201.461    22681204.2264   22681209.8654
     -1473.717       -1148.351
 96 11 12 18  5 59.9970000  0  8 25 29  3 15 23 21  1 31            -0.002348299
 -15034817.239 9 -11700690.38747  21634249.191    21634252.4424   21634258.0864
      3339.317        2602.065
  -2270348.71718  -1748556.38855  24530913.868    24530917.1285   24530924.2155
      3532.160        2752.332
   9856205.815 9   7680507.20846  23365288.928    23365292.9624   23365299.5754
     -2570.154       -2002.717
 -16574804.935 9 -11300070.93847  21939149.077    21939152.2224   21939157.7674
      3599.600        2804.883
   8022413.08817   6190819.68855  23311004.848    23311009.1015   23311014.6335
     -1809.375       -1409.903
  -1016629.693 9   -784883.22148  20545530.520    20545533.8884   20545538.6564
      -752.340        -586.239
  -5023754.788 9  -3899468.74948  19916377.273    19916380.8514   19916385.3614
      -844.081        -657.725
  -1969926.496 9  -1523056.93147  22689649.224    22689651.6444   22689657.2724
     -1485.637       -1157.639
 96 11 12 18  6 29.9970000  0  8 25 29  3 15 23 21  1 31            -0.002357235
 -15134858.858 9 -11778644.80347  21615211.909    21615215.0974   21615220.7394
      3330.496        2595.192
  -2376239.268 9  -1831068.41745  24510763.500    24510766.5644   24510773.9614
      3527.390        2748.616
   9933331.084 9   7740604.73646  23379965.414    23379969.4884   23379976.2074
     -2571.242       -2003.565
 -16682646.536 9 -11384103.33947  21918627.453    21918630.6224   21918636.2314
      3590.158        2797.526
   8076761.97517   6233169.40654  23321347.206    23321351.5745          0.0005
     -1813.708       -1413.279
   -993917.896 9   -767185.74548  20549852.535    20549855.8894   20549860.6154
      -761.440        -593.330
  -4998253.191 9  -3879597.37948  19921230.173    19921233.7024   19921238.1904
      -855.741        -666.811
  -1925171.874 9  -1488183.23647  22698165.678    22698168.2434   22698173.8564
     -1497.591       -1166.954
 96 11 12 18  6 59.9970000  0  7 25 29  3 15 21  1 31               -0.002366072
 -15234632.791 9 -11856390.64148  21596225.399    21596228.6944   21596234.4014
      3321.559        2588.228
  -2481981.708 8  -1913465.02245  24490640.867    24490644.3054   24490651.7294
      3522.494        2744.801
  10010491.591 9   7800729.70146  23394648.686    23394652.6204   23394659.4914
     -2572.298       -2004.388
 -16790200.234 9 -11467911.38047  21898160.711    21898163.7364   21898169.4324
      3580.493        2789.995
   -970927.044 9   -749270.81848  20554227.547    20554230.9354   20554235.6554
      -770.823        -600.641
  -4972392.133 9  -3859445.92148  19926151.301    19926154.8714   19926159.3954
      -867.838        -676.237
  -1880063.738 9  -1453034.07047  22706749.206    22706752.0324   22706757.7444
     -1509.397       -1176.154
 96 11 12 18  7 29.9970000  0  7 25 29  3 15 21  1 31               -0.002374922
 -15334132.111 9 -11933922.49947  21577291.031    21577294.5394   21577300.2624
      3312.009        2580.786
  -2587577.869 8  -1995747.63545  24470546.285    24470549.9004   24470557.3824
      3517.593        2740.982
  10087683.989 9   7860879.53646  23409337.728    23409341.8644   23409348.7954
     -2573.451       -2005.286
 -16897463.345 9 -11551493.03147  21877749.366    21877752.3914   21877757.8004
      3570.809        2782.448
   -947655.634 9   -731137.28448  20558655.965    20558659.3264   20558664.0864
      -780.073        -607.849
  -4946174.634 9  -3839016.70948  19931140.284    19931143.8914   19931148.3844
      -879.458        -685.292
  -1834587.444 9  -1417598.01647  22715402.406    22715405.8804   22715411.6804
     -1521.865       -1185.869
 96 11 12 18  7 59.9970000  0  7 25 29  3 15 21  1 31               -0.002383740
 -15433338.365 9 -12011225.99547  21558412.437    21558416.1084   21558421.8804
      3301.272        2572.420
  -2693023.513 9  -2077912.95245  24450480.363    24450484.0794   24450491.6764
      3511.613        2736.322
  10164915.392 9   7921059.75646  23424034.875    23424038.5024   23424045.5154
     -2575.847       -2007.154
 -17004435.682 9 -11634848.06547  21857392.935    21857396.1284   21857401.6934
      3560.248        2774.219
   -924108.765 9   -712789.09448  20563136.730    20563140.1504   20563144.9014
      -790.120        -615.678
  -4919611.425 9  -3818318.10948  19936194.971    19936198.7214   19936203.1894
      -891.868        -694.962
  -1788744.079 9  -1381875.94147  22724126.498    22724129.5884   22724135.4654
     -1534.788       -1195.939
 96 11 12 18  8 29.9970000  0  7 25 29  3 15 21  1 31               -0.002392525
 -15532231.405 9 -12088285.42748  21539593.420    21539597.3154   21539603.0914
      3291.063        2564.465
  -2798300.820 8  -2159947.07845  24430446.691    24430450.4254   24430457.7764
      3506.520        2732.353
  10242202.591 9   7981283.45646  23438741.815    23438745.7364   23438752.8114
     -2576.997       -2008.050
 -17111107.446 9 -11717968.91347  21837094.092    21837097.1994   21837102.7524
      3550.704        2766.782
   -900279.287 9   -694220.68448  20567671.410    20567674.7554   20567679.4764
      -798.889        -622.511
  -4892689.965 9  -3797340.36548  19941317.925    19941321.6684   19941326.1904
      -903.466        -703.999
  -1742531.856 9  -1345866.44047  22732919.967    22732923.4994   22732929.3654
     -1546.514       -1205.076
 96 11 12 18  8 59.9970000  0  7 25 29  3 15 21  1 31               -0.002401310
 -15630797.763 9 -12165090.30448  21520837.126    21520840.8044   21520846.4324
      3279.802        2555.690
  -2903420.896 9  -2241858.65745  24410442.828    24410446.5144   24410454.0534
      3501.577        2728.502
  10319525.001 9   8041534.58646  23453456.249    23453459.7644   23453466.8684
     -2577.951       -2008.793
 -17217483.896 9 -11800859.63947  21816851.262    21816854.3644   21816860.0344
      3540.899        2759.142
   -876182.806 9   -675444.22548  20572256.871    20572260.1794   20572264.8164
      -807.587        -629.288
  -4865408.221 9  -3776081.87148  19946509.548    19946513.2384   19946517.7844
      -915.387        -713.288
  -1695961.745 9  -1309578.07347  22741782.060    22741785.5484   22741791.4064
     -1558.476       -1214.397
 96 11 12 18  9 29.9970000  0  7 25 29  3 15 21  1 31               -0.002410121
 -15729029.590 9 -12241634.48248  21502144.417    21502147.9164   21502153.4004
      3268.712        2547.048
  -3008407.903 9  -2323666.55345  24390464.447    24390467.9814   24390475.5094
      3497.527        2725.346
  10396867.011 9   8101800.98646  23468173.323    23468177.4934   23468184.7134
     -2578.449       -2009.181
 -17323575.323 9 -11883528.26847  21796662.792    21796665.8624   21796671.6114
      3531.647        2751.933
   -851842.976 9   -656478.13648  20576888.528    20576891.9064   20576896.4894
      -815.148        -635.180
  -4837780.582 9  -3754553.85848  19951766.937    19951770.6064   19951775.1384
      -926.725        -722.123
  -1649042.441 9  -1273017.60347  22750710.360    22750714.0604   22750719.9414
     -1569.478       -1222.970
 96 11 12 18  9 59.9970000  0  7 25 29  3 15 21  1 31               -0.002418977
 -15826908.651 9 -12317903.83748  21483518.272    21483522.0504   21483527.5544
      3257.220        2538.093
  -3113262.580 8  -2405371.29145  24370511.656    24370514.6504   24370522.1674
      3493.226        2721.994
  10474243.818 9   8162094.52446  23482897.420    23482901.8714   23482909.0834
     -2579.632       -2010.103
 -17429365.821 9 -11965962.40647  21776531.462    21776534.5594   21776540.3364
      3521.440        2743.979
   -827257.988 9   -637321.02248  20581567.106    20581570.3434   20581574.8584
      -823.423        -641.628
  -4809782.662 9  -3732737.30048  19957094.983    19957098.4974   19957102.9134
      -939.301        -731.923
  -1601783.543 9  -1236192.51947  22759703.397    22759707.1344   22759713.0304
     -1580.718       -1231.728
 96 11 12 18 10 29.9970000  0  7 25 29  3 15 21  1 31               -0.002427873
 -15924440.600 9 -12393902.70148  21464958.611    21464962.3274   21464967.8584
      3245.708        2529.123
  -3217971.652 8  -2486962.59245  24350584.913    24350589.1554   24350596.5894
      3488.221        2718.094
  10551665.741 9   8222423.18346  23497630.426    23497634.8184   23497642.1864
     -2580.992       -2011.163
 -17534833.251 9 -12048144.79647  21756461.603    21756464.7034   21756470.6304
      3510.487        2735.444
   -802414.723 9   -617962.65948  20586294.631    20586297.8384   20586302.3664
      -832.090        -648.382
  -4781398.095 9  -3710619.47148  19962496.428    19962499.9034   19962504.2974
      -952.147        -741.933
  -1554176.154 9  -1199095.88447  22768763.306    22768766.5524   22768772.4094
     -1592.353       -1240.794
 96 11 12 18 10 59.9970000  0  7 25 29  3 15 21  1 31               -0.002436811
 -16021642.817 9 -12469644.61348  21446461.889    21446465.3674   21446470.8984
      3235.376        2521.072
  -3322549.889 9  -2568451.93345  24330684.092    24330688.5224   24330696.0974
      3484.377        2715.099
  10629107.091 9   8282767.00146  23512366.818    23512371.5034   23512378.9184
     -2580.992       -2011.163
 -17639989.624 9 -12130084.81547  21736451.073    21736454.0934   21736460.0574
      3500.647        2727.777
   -777328.135 9   -598414.69448  20591068.518    20591071.6484   20591076.2584
      -839.695        -654.308
  -4752653.109 9  -3688220.79548  19967966.490    19967969.8824   19967974.3254
      -963.399        -750.701
  -1506243.042 9  -1161745.44047  22777884.691    22777887.8714   22777893.7304
     -1602.562       -1248.750
 96 11 12 18 11 29.9970000  0  7 25 29  3 15 21  1 31               -0.002445785
 -16118558.418 9 -12545163.20548  21428019.419    21428022.8594   21428028.4834
      3225.728        2513.554
  -3427021.126 9  -2649857.90845  24310804.101    24310808.1994   24310815.7474
      3480.202        2711.846
  10706541.538 9   8343105.45446  23527102.578    23527106.8504   23527114.3574
     -2581.203       -2011.327
 -17744855.852 9 -12211798.75147  21716495.769    21716498.7694   21716504.5764
      3490.395        2719.788
   -752013.436 9   -578688.98548  20595885.680    20595888.8274   20595893.5904
      -847.993        -660.774
  -4723581.878 9  -3665567.90349  19973498.575    19973501.9794   19973506.4594
      -974.687        -759.496
  -1458011.373 9  -1124162.35647  22787062.470    22787066.0464   22787071.9024
     -1612.979       -1256.867
 96 11 12 18 11 59.9970000  0  7 25 29  3 15 21  1 31               -0.002454757
 -16215186.039 9 -12620457.39048  21409631.737    21409635.1074   21409640.7184
      3216.613        2506.452
  -3531347.681 9  -2731151.14945  24290951.324    24290955.4074   24290963.2044
      3474.975        2707.773
  10783983.942 9   8403450.07746  23541839.906    23541843.7514   23541851.3074
     -2581.250       -2011.364
 -17849404.728 9 -12293265.39447  21696600.697    21696603.7104   21696609.5014
      3479.845        2711.568
   -726434.005 9   -558756.98848  20600753.159    20600756.3934   20600761.2694
      -857.105        -667.874
  -4694167.044 9  -3642647.26749  19979096.040    19979099.4694   19979103.8894
      -985.857        -768.200
  -1409455.823 9  -1086326.89447  22796302.644    22796305.9564   22796311.8724
     -1623.864       -1265.349
 96 11 12 18 12 29.9970000  0  7 25 29  3 15 21  1 31               -0.002463687
 -16311526.567 9 -12695527.87548  21391298.678    21391302.0814   21391307.5404
      3205.931        2498.128
  -3635489.456 9  -2812300.43045  24271134.018    24271137.7714   24271145.5644
      3468.120        2702.431
  10861435.675 9   8463801.98946  23556578.726    23556582.4264   23556589.9684
     -2582.035       -2011.975
 -17953623.725 9 -12374474.98947  21676768.185    21676771.4654   21676777.2724
      3468.214        2702.504
   -700559.415 9   -538594.99148  20605676.996    20605680.2384   20605685.1094
      -867.739        -676.160
  -4664407.297 9  -3619457.86248  19984759.201    19984762.6404   19984767.0014
      -997.916        -777.597
  -1360555.444 9  -1048222.73847  22805608.081    22805611.4594   22805617.3734
     -1636.074       -1274.863
 96 11 12 18 12 59.9970000  0  7 25 29  3 15 21  1 31               -0.002472565
 -16407557.459 9 -12770357.10048  21373024.419    21373027.9814   21373033.3404
      3196.319        2490.638
  -3739455.979 9  -2893313.15846  24251349.818    24251353.3774   24251361.1664
      3463.113        2698.530
  10938891.703 9   8524157.23246  23571317.996    23571321.9504   23571329.4064
     -2581.677       -2011.696
 -18057515.591 9 -12455429.68647  21656998.312    21657001.5734   21657007.3314
      3457.934        2694.494
   -674380.591 9   -518195.92648  20610658.778    20610661.9864   20610666.8454
      -877.378        -683.671
  -4634306.141 9  -3596002.42748  19990487.165    19990490.6844   19990495.0124
     -1008.682        -785.986
  -1311308.920 9  -1009848.86047  22814979.594    22814982.8074   22814988.6934
     -1647.078       -1283.437
 96 11 12 18 13 29.9970000  0  7 25 29  3 15 21  1 31               -0.002481391
 -16503291.999 9 -12844955.38348  21354806.480    21354810.2344   21354815.6504
      3185.881        2482.505
  -3843262.703 9  -2974201.40546  24231595.619    24231599.4384   24231607.1944
      3457.480        2694.140
  11016352.419 9   8584516.13946  23586058.694    23586062.3274   23586069.8234
     -2582.118       -2012.040
 -18161083.535 9 -12536131.94747  21637290.058    21637293.2184   21637299.0674
      3446.854        2685.860
   -647905.376 9   -497565.91048  20615696.816    20615700.0874   20615704.9874
      -887.407        -691.486
  -4603871.721 9  -3572287.31349  19996278.569    19996282.1854   19996286.5754
     -1019.953        -794.769
  -1261720.400 9   -971208.48347  22824415.897    22824419.2944   22824425.0434
     -1658.563       -1292.387
 96 11 12 18 13 59.9970000  0  7 25 29  3 15 21  1 31               -0.002490153
 -16598686.512 9 -12919288.73548  21336653.597    21336657.2394   21336662.7194
      3174.053        2473.288
  -3946885.842 9  -3054946.60946  24211876.488    24211880.6004   24211888.1004
      3451.235        2689.274
  11093837.352 9   8644893.89946  23600804.231    23600807.3164   23600814.7774
     -2583.277       -2012.943
 -18264306.264 9 -12616565.24747  21617647.574    21617650.6654   21617656.3684
      3435.067        2676.676
   -621117.299 9   -476692.12048  20620794.455    20620797.7614   20620802.7054
      -898.012        -699.750
  -4573092.870 9  -3548303.81248  20002135.629    20002139.1544   20002143.6164
     -1031.619        -803.859
  -1211784.141 9   -932297.15447  22833918.146    22833921.7794   22833927.5984
     -1670.195       -1301.451
 96 11 12 18 14 29.9970000  0  7 25 29  3 15 21  1 31               -0.002498869
 -16693726.504 9 -12993345.82148  21318568.151    21318571.7464   21318577.1854
      3161.742        2463.695
  -4050343.504 9  -3135562.89546  24192188.943    24192193.1184   24192200.5804
      3446.035        2685.222
  11171349.336 9   8705292.76446  23615553.989    23615557.4594   23615564.9914
     -2584.327       -2013.761
 -18367187.935 9 -12696732.76247  21598069.637    21598072.9034   21598078.5414
      3423.541        2667.694
   -594033.542 9   -455587.92148  20625948.354    20625951.6984   20625956.6664
      -907.650        -707.260
  -4541980.408 9  -3524060.33949  20008056.213    20008059.7204   20008064.1254
     -1042.732        -812.518
  -1161508.704 9   -893121.53347  22843485.514    22843488.8834   22843494.7414
     -1681.582       -1310.324
 96 11 12 18 14 59.9970000  0  7 25 29  3 15 21  1 31               -0.002507551
 -16788400.036 9 -13067117.36548  21300552.210    21300555.9364   21300561.3164
      3149.810        2454.397
  -4153657.872 9  -3216067.53646  24172528.395    24172532.8904   24172540.2344
      3441.226        2681.475
  11248890.479 9   8765714.33046  23630309.413    23630313.1524   23630320.7194
     -2585.259       -2014.488
 -18469726.545 9 -12776632.97447  21578557.231    21578560.5154   21578566.0434
      3412.169        2658.833
   -566669.453 9   -434265.27948  20631155.636    20631159.0104   20631163.9014
      -916.759        -714.358
  -4510539.366 9  -3499560.83748  20014039.213    20014042.7304   20014047.1354
     -1053.486        -820.898
  -1110903.183 9   -853688.69147  22853115.345    22853118.8764   22853124.6704
     -1692.284       -1318.663
 96 11 12 18 15 29.9970000  0  7 25 29  3 15 21  1 31               -0.002516217
 -16882725.586 9 -13140617.75748  21282602.529    21282606.3604   21282611.6074
      3138.278        2445.411
  -4256825.957 9  -3296458.19446  24152896.196    24152900.6514   24152907.8864
      3436.395        2677.710
  11326448.342 9   8826148.94046  23645068.337    23645071.9934   23645079.5884
     -2585.177       -2014.424
 -18571929.962 9 -12856271.98647  21559108.647    21559111.8874   21559117.5404
      3401.337        2650.392
   -539046.194 9   -412740.68648  20636412.147    20636415.5654   20636420.5314
      -924.926        -720.721
  -4478784.593 9  -3474816.86549  20020081.923    20020085.4934   20020089.9354
     -1063.602        -828.781
  -1059989.933 9   -814016.08147  22862804.225    22862807.4954   22862813.2184
     -1701.905       -1326.160
 96 11 12 18 15 59.9970000  0  7 25 29  3 15 21  1 31               -0.002524870
 -16976669.902 9 -13213821.08948  21264725.326    21264729.2814   21264734.5004
      3125.587        2435.522
  -4359810.578 9  -3376705.90246  24133298.841    24133303.3514   24133310.4374
      3429.976        2672.709
  11404037.575 9   8886607.96746  23659833.055    23659836.8694   23659844.4954
     -2586.653       -2015.574
 -18673775.453 9 -12935632.10247  21539727.879    21539731.3104   21539736.9774
      3389.111        2640.866
   -511143.820 9   -390998.60148  20641721.710    20641725.2164   20641730.2594
      -934.429        -728.126
  -4446690.947 9  -3449808.84749  20026188.977    20026192.6214   20026197.1454
     -1075.285        -837.884
  -1008760.384 9   -774096.98847  22872552.663    22872556.1764   22872561.9154
     -1712.791       -1334.642
 96 11 12 18 16 29.9970000  0  7 25 29  3 15 21  1 31               -0.002533514
 -17070233.652 9 -13286727.88548  21246920.599    21246924.6424   21246929.9044
      3112.986        2425.703
  -4462601.374 9  -3456802.59646  24113737.854    24113742.7344   24113749.9424
      3423.648        2667.778
  11481658.904 9   8947091.99346  23674603.963    23674607.8984   23674615.5234
     -2586.893       -2015.761
 -18775255.315 9 -13014707.29247  21520416.797    21520420.2264   21520426.0064
      3377.130        2631.530
   -482955.781 9   -369033.92148  20647085.585    20647089.1964   20647094.2764
      -943.913        -735.517
  -4414247.496 9  -3424528.23749  20032362.902    20032366.5024   20032370.9594
     -1086.649        -846.739
   -957202.971 9   -733922.42447  22882363.812    22882367.1634   22882373.0184
     -1723.310       -1342.839
 96 11 12 18 16 59.9970000  0  7 25 29  3 15 21  1 31               -0.002542155
 -17163433.095 9 -13359350.78648  21229185.238    21229189.3914   21229194.6464
      3100.916        2416.298
  -4565199.964 9  -3536749.49246  24094213.721    24094218.7524   24094226.0214
      3416.849        2662.480
  11559268.394 9   9007566.83346  23689372.668    23689376.6774   23689384.2604
     -2586.472       -2015.433
 -18876381.619 9 -13093507.00147  21501172.931    21501176.4744   21501182.2614
      3365.234        2622.260
   -454486.222 9   -346849.87448  20652502.989    20652506.7284   20652511.8434
      -953.366        -742.883
  -4381468.186 9  -3398985.93548  20038600.463    20038604.1224   20038608.6094
     -1098.029        -855.607
   -905351.595 9   -693518.79247  22892230.373    22892234.1014   22892240.0584
     -1732.873       -1350.291
 96 11 12 18 17 29.9970000  0  7 25 29  3 15 21  1 31               -0.002550799
 -17256269.350 9 -13431690.70648  21211519.068    21211523.2464   21211528.4614
      3087.486        2405.833
  -4667596.531 9  -3616538.96246  24074728.056    24074733.1654   24074740.5724
      3409.035        2656.391
  11636857.001 9   9068025.38046  23704137.851    23704141.3584   23704148.9854
     -2586.856       -2015.732
 -18977149.927 9 -13172027.74847  21481997.274    21482000.9104   21482006.6974
      3351.978        2611.931
   -425733.867 9   -324445.46048  20657974.319    20657978.1384   20657983.2004
      -964.174        -751.304
  -4348349.466 9  -3373179.14648  20044902.696    20044906.4684   20044910.9044
     -1110.649        -865.441
   -853216.107 9   -652893.79347  22902151.633    22902155.1604   22902161.1014
     -1743.596       -1358.646
 96 11 12 18 17 59.9970000  0  7 25 29  3 15 21  1 31               -0.002559424
 -17348709.033 9 -13503721.60248  21193928.208    21193932.4734   21193937.6924
      3075.510        2396.501
  -4769766.005 9  -3696151.46246  24055285.853    24055290.7954   24055298.3544
      3402.597        2651.374
  11714453.609 9   9128490.17146  23718903.863    23718907.6864   23718915.2474
     -2585.941       -2015.019
 -19077524.806 9 -13250241.93347  21462896.177    21462900.1524   21462905.8764
      3339.882        2602.505
   -396657.076 9   -301788.24948  20663507.392    20663511.2164   20663516.3134
      -974.071        -759.016
  -4314853.758 9  -3347078.60948  20051276.588    20051280.4474   20051284.9584
     -1122.153        -874.405
   -800754.635 9   -612014.76347  22912134.421    22912138.2864   22912144.1834
     -1753.743       -1366.553
 96 11 12 18 18 29.9970000  0  7 25 29  3 15 21  1 31               -0.002568031
 -17440775.672 9 -13575461.80248  21176408.437    21176412.7414   21176417.9504
      3062.096        2386.049
  -4871739.697 9  -3775611.40246  24035880.540    24035885.8324   24035893.3244
      3395.338        2645.718
  11792024.851 9   9188935.14446  23733665.410    23733669.1064   23733676.7064
     -2585.882       -2014.973
 -19177522.163 9 -13328161.94347  21443866.923    21443871.1914   21443876.8874
      3326.302        2591.924
   -367270.177 9   -278889.39648  20669099.346    20669103.3614   20669108.5074
      -985.305        -767.770
  -4281004.228 9  -3320702.36749  20057717.735    20057721.7674   20057726.3264
     -1134.750        -884.221
   -747972.314 9   -570885.71547  22922178.273    22922182.4274   22922188.3154
     -1765.294       -1375.554
 96 11 12 18 18 59.9970000  0  7 25 29  3 15 21  1 31               -0.002576608
 -17532452.123 9 -13646897.97048  21158962.870    21158967.2754   21158972.5094
      3049.587        2376.302
  -4973503.874 9  -3854908.07546  24016515.820    24016520.6984   24016528.1514
      3388.955        2640.744
  11869601.174 9   9249384.10446  23748427.436    23748431.5004   23748439.0754
     -2586.137       -2015.172
 -19277119.205 9 -13405770.02847  21424914.344    21424918.6214   21424924.2944
      3313.422        2581.887
   -337560.681 9   -255739.16648  20674752.806    20674756.8924   20674762.0344
      -995.370        -775.613
  -4246782.640 9  -3294036.20448  20064229.736    20064233.9564   20064238.4764
     -1146.667        -893.507
   -694852.399 9   -529493.61047  22932286.384    22932290.8514   22932296.7654
     -1776.196       -1384.049
 96 11 12 18 19 29.9970000  0  7 25 29  3 15 21  1 31               -0.002585154
 -17623750.948 9 -13718039.88748  21141589.247    21141593.7604   21141598.9184
      3037.432        2366.830
  -5075079.979 9  -3934058.20646  23997186.274    23997191.4554   23997198.7804
      3383.033        2636.130
  11947195.886 9   9309847.38046  23763193.298    23763197.3954   23763204.9884
     -2586.470       -2015.431
 -19376324.836 9 -13483073.09647  21406036.038    21406040.3884   21406046.0974
      3300.604        2571.899
   -307546.103 9   -232351.20748  20680464.305    20680468.5094   20680473.5894
     -1005.310        -783.358
  -4212205.055 9  -3267092.64049  20070809.635    20070813.9234   20070818.4314
     -1158.130        -902.439
   -641393.600 9   -487837.46547  22942459.036    22942463.8124   22942469.7284
     -1787.535       -1392.884
 96 11 12 18 19 59.9970000  0  7 25 29  3 15 21  1 31               -0.002593655
 -17714671.220 9 -13788886.82248  21124287.561    21124292.2344   21124297.4234
      3024.148        2356.479
  -5176457.280 9  -4013053.42246  23977895.024    23977899.9014   23977907.2344
      3375.689        2630.407
  12024808.716 9   9370324.78046  23777962.840    23777966.7194   23777974.3494
     -2587.437       -2016.185
 -19475130.054 9 -13560064.16247  21387233.822    21387238.2804   21387244.0774
      3286.620        2561.003
   -277224.845 9   -208724.27648  20686234.313    20686238.5264   20686243.5544
     -1015.924        -791.629
  -4177272.950 9  -3239872.83848  20077456.892    20077461.1844   20077465.7844
     -1170.376        -911.981
   -587578.182 9   -445903.41147  22952699.902    22952704.5674   22952710.5154
     -1799.773       -1402.421
 96 11 12 18 20 29.9970000  0  7 25 29  3 15 21  1 31               -0.002602113
 -17805194.441 9 -13859424.37048  21107061.375    21107066.1664   21107071.3634
      3010.349        2345.726
  -5277621.361 9  -4091882.49946  23958643.908    23958648.9494   23958656.2424
      3367.961        2624.385
  12102444.149 9   9430819.81546  23792735.763    23792740.3274   23792748.0794
     -2588.832       -2017.272
 -19573521.426 9 -13636732.73847  21368510.578    21368514.9964   21368520.8324
      3272.302        2549.846
   -246590.253 9   -184853.19648  20692063.871    20692068.1044   20692073.2054
     -1026.924        -800.201
  -4141984.912 9  -3212375.67249  20084171.707    20084176.2804   20084180.8404
     -1182.533        -921.454
   -533420.143 9   -403702.38247  22963005.546    22963010.4824   22963016.4724
     -1811.199       -1411.324
 96 11 12 18 20 59.9970000  0  7 25 29  3 15 21  1 31               -0.002610532
 -17895341.722 9 -13929668.96748  21089906.710    21089911.6304   21089916.8314
      2998.410        2336.423
  -5378580.153 9  -4170551.61546  23939431.790    23939437.0734   23939444.2664
      3361.820        2619.600
  12180091.567 9   9491324.15446  23807511.876    23807516.1874   23807524.0284
     -2588.428       -2016.957
 -19671515.869 9 -13713092.04347  21349862.908    21349867.3284   21349873.0054
      3259.694        2540.021
   -215653.963 9   -160747.03548  20697950.674    20697955.0704   20697960.2874
     -1036.437        -807.613
  -4106371.935 9  -3184625.30949  20090948.607    20090953.2554   20090957.8064
     -1192.627        -929.320
   -478959.379 9   -361265.46847  22973369.211    22973374.0414   22973380.0704
     -1820.515       -1418.583
 96 11 12 18 21 29.9970000  0  7 25 29  3 15 21  1 31               -0.002618868
 -17985094.176 9 -13999605.92448  21072827.564    21072832.2834   21072837.4374
      2984.727        2325.761
  -5479322.595 9  -4249052.15146  23920261.076    23920266.4454   23920273.5714
      3353.984        2613.494
  12257743.692 9   9551832.17446  23822288.573    23822292.9894   23822300.8834
     -2588.513       -2017.023
 -19769096.084 9 -13789128.54447  21331293.917    21331298.3484   21331304.1484
      3245.354        2528.847
   -184393.891 9   -136388.56148  20703899.247    20703903.7384   20703908.8604
     -1047.907        -816.551
  -4070424.111 9  -3156614.03849  20097789.068    20097793.8914   20097798.5324
     -1204.175        -938.318
   -424191.846 9   -318589.52347  22983791.418    22983796.0454   22983802.0584
     -1830.976       -1426.735
 96 11 12 18 21 59.9970000  0  7 25 29  3 15 21  1 31               -0.002627125
 -18074426.465 9 -14069215.46748  21055828.348    21055833.0004   21055838.0224
      2970.689        2314.823
  -5579821.531 9  -4327362.94746  23901136.843    23901142.0694   23901149.1464
      3346.056        2607.316
  12335394.269 9   9612338.99346  23837064.692    23837069.4514   23837077.4374
     -2588.338       -2016.887
 -19866244.992 9 -13864828.98647  21312806.865    21312811.4824   21312817.2844
      3231.237        2517.847
   -152783.797 9   -111757.33348  20709914.425    20709918.9904   20709924.0134
     -1059.466        -825.558
  -4034130.547 9  -3128333.35348  20104695.450    20104700.3454   20104704.9364
     -1215.457        -947.109
   -369117.763 9   -275674.69947  22994271.662    22994276.3454   22994282.3134
     -1840.530       -1434.179
 96 11 12 18 22 29.9970000  0  7 25 29  3 15 21  1 31               -0.002635395
 -18163331.907 9 -14138492.40348  21038910.189    21038914.8454   21038919.8804
      2956.833        2304.026
  -5680085.310 9  -4405490.50346  23882057.576    23882062.4934   23882069.5204
      3338.540        2601.460
  12413052.360 9   9672851.64946  23851842.593    23851847.3034   23851855.4544
     -2588.442       -2016.968
 -19962968.799 9 -13940198.17847  21294400.836    21294405.5324   21294411.3374
      3217.345        2507.022
   -120820.225 9    -86850.68248  20715996.816    20716001.4344   20716006.4884
     -1070.975        -834.526
  -3997500.006 9  -3099790.08048  20111665.968    20111670.9404   20111675.4634
     -1226.179        -955.464
   -313755.933 9   -232535.65747  23004806.756    23004811.3984   23004817.3614
     -1850.033       -1441.584
 96 11 12 18 22 59.9970000  0  7 25 29  3 15 21  1 31               -0.002643495
 -18251816.688 9 -14207441.55348  21022071.467    21022076.6424   21022081.8074
      2941.959        2292.436
  -5780122.231 9  -4483441.28446  23863021.053    23863026.0934   23863033.0584
      3330.693        2595.345
  12490711.907 9   9733365.45246  23866620.087    23866625.4454   23866633.6604
     -2588.836       -2017.275
 -20059270.571 9 -14015238.51347  21276075.107    21276079.8984   21276085.7204
      3202.674        2495.590
    -88514.842 9    -61677.68448  20722144.130    20722148.9084   20722153.9884
     -1082.625        -843.604
  -3960544.268 9  -3070993.41849  20118698.300    20118703.3424   20118707.8674
     -1237.739        -964.472
   -258100.964 9   -189168.18247  23015397.253    23015402.1734   23015408.2094
     -1860.422       -1449.679
 96 11 12 18 23 29.9970000  0  7 25 29  3 15 21  1 31               -0.002651564
 -18339871.628 9 -14276055.77048  21005315.340    21005320.2504   21005325.4724
      2928.234        2281.741
  -5879949.030 9  -4561228.31846  23844024.679    23844029.5824   23844036.5724
      3324.244        2590.320
  12568350.180 9   9793862.68546  23881394.563    23881399.6154   23881407.9824
     -2587.259       -2016.046
 -20155153.403 9 -14089952.38847  21257829.003    21257833.9444   21257839.8404
      3189.365        2485.219
    -55890.393 9    -36256.05948  20728352.339    20728357.1764   20728362.2564
     -1092.499        -851.298
  -3923259.440 9  -3041940.31449  20125793.493    20125798.5024   20125803.0284
     -1247.989        -972.459
   -202151.863 9   -145571.52847  23026044.320    23026048.8934   23026054.8994
     -1869.822       -1457.004
 96 11 12 18 23 59.9970000  0  7 25 29  3 15 21  1 31               -0.002659618
 -18427507.310 9 -14344343.28848  20988638.576    20988643.6764   20988648.8964
      2914.562        2271.087
  -5979582.928 9  -4638865.02746  23825064.889    23825069.7874   23825076.7394
      3318.454        2585.808
  12645948.115 9   9854328.46046  23896161.303    23896165.9644   23896174.4454
     -2585.683       -2014.818
 -20250633.916 9 -14164352.77647  21239659.795    21239664.6434   21239670.5044
      3176.292        2475.033
    -22971.838 9    -10605.26048  20734616.612    20734621.4184   20734626.4914
     -1101.706        -858.472
  -3885666.639 9  -3012647.24649  20132947.159    20132952.1794   20132956.7524
     -1257.977        -980.242
   -145910.762 9   -101747.33347  23036746.273    23036751.1744   23036757.2504
     -1879.322       -1464.407
 96 11 12 18 24 29.9970000  0  7 25 29  3 15 21  1 31               -0.002667690
 -18514732.017 9 -14412310.56448  20972040.400    20972045.4364   20972050.5664
      2900.400        2260.052
  -6079045.365 9  -4716368.11646  23806137.880    23806142.6594   23806149.6484
      3312.222        2580.952
  12723502.491 9   9914760.29746  23910919.023    23910924.2584   23910932.6244
     -2584.496       -2013.893
 -20345717.766 9 -14238444.07947  21221566.131    21221570.7434   21221576.5724
      3162.508        2464.292
     10220.864 9     15259.16248  20740932.959    20740937.8594   20740942.9124
     -1111.248        -865.908
  -3847769.538 9  -2983117.04848  20140158.786    20140163.7664   20140168.2674
     -1268.549        -988.480
    -89375.353 9    -57693.81047  23047504.966    23047509.4734   23047515.6104
     -1889.847       -1472.608
 96 11 12 18 24 59.9970000  0  7 25 29  3 15 21  1 31               -0.002675763
 -18601530.998 9 -14479946.09848  20955523.155    20955528.1754   20955533.2624
      2885.969        2248.807
  -6178317.643 9  -4793723.01246  23787246.663    23787251.6584   23787258.6694
      3305.759        2575.916
  12801011.754 9   9975156.99746  23925668.483    23925673.9154   23925682.2724
     -2583.063       -2012.776
 -20440385.060 9 -14312210.78947  21203551.663    21203556.2364   21203561.9444
      3148.432        2453.324
     43705.173 9     41350.80448  20747304.942    20747309.7784   20747314.8604
     -1121.294        -873.736
  -3809551.007 9  -2953336.39149  20147431.434    20147436.4614   20147441.0414
     -1279.613        -997.101
    -32521.316 9    -13391.99547  23058323.456    23058328.3714   23058334.6194
     -1900.650       -1481.026
 96 11 12 18 25 29.9970000  0  7 25 29  3 15 21  1 31               -0.002683828
 -18687904.370 9 -14547249.99448  20939086.477    20939091.8244   20939096.9554
      2871.808        2237.772
  -6277398.490 9  -4870928.74946  23768392.057    23768397.0954   23768404.0864
      3298.997        2570.647
  12878475.159 8  10035517.97746  23940410.361    23940414.8764   23940423.2314
     -2581.708       -2011.721
 -20534635.334 9 -14385652.56647  21185616.387    21185621.0534   21185626.7334
      3134.382        2442.376
     77489.344 9     67676.10548  20753733.899    20753738.7334   20753743.8454
     -1131.615        -881.778
  -3771004.529 9  -2923300.18949  20154766.635    20154771.6494   20154776.2354
     -1290.575       -1005.643
     24651.651 9     31158.33647  23069203.100    23069208.0914   23069214.2834
     -1911.379       -1489.386
 96 11 12 18 25 59.9970000  0  7 25 29  3 15 21  1 31               -0.002691864
 -18773871.944 9 -14614237.68448  20922727.388    20922732.6334   20922737.8384
      2858.621        2227.497
  -6376284.194 9  -4947982.41946  23749574.755    23749579.7414   23749586.6664
      3292.558        2565.630
  12955886.815 8  10095838.61246  23955140.895    23955145.8354   23955154.2484
     -2579.855       -2010.277
 -20628478.946 9 -14458777.45147  21167758.310    21167763.1514   21167768.8404
      3121.012        2431.957
    111572.921 9     94234.71248  20760219.745    20760224.6574   20760229.7424
     -1141.435        -889.430
  -3732151.056 9  -2893024.77148  20162160.206    20162165.2184   20162169.8174
     -1300.443       -1013.332
     82119.389 9     75938.34847  23080138.888    23080143.8624   23080150.0964
     -1920.385       -1496.404
 96 11 12 18 26 29.9970000  0  7 25 29  3 15 21  1 31               -0.002699863
 -18859446.686 9 -14680919.27748  20906443.019    20906448.2484   20906453.4214
      2845.939        2217.615
  -6474969.974 9  -5024880.32146  23730795.006    23730800.4254   23730807.3224
      3286.098        2560.596
  13033237.791 9  10156111.94545  23969860.370    23969865.3164   23969873.8494
     -2577.227       -2008.229
 -20721922.145 9 -14531590.32147  21149976.504    21149981.4844   21149987.2134
      3108.020        2421.834
    145951.680 9    121023.32748  20766761.873    20766766.7164   20766771.8384
     -1150.994        -896.878
  -3693004.731 9  -2862521.15849  20169609.276    20169614.4894   20169619.1154
     -1309.784       -1020.611
    139843.434 9    120918.07747  23091124.133    23091128.4524   23091134.6734
     -1928.318       -1502.585
 96 11 12 18 26 59.9970000  0  7 25 29  3 15 21  1 31               -0.002707814
 -18944614.850 9 -14747284.03648  20890236.102    20890241.2714   20890246.3734
      2831.587        2206.431
  -6573439.846 9  -5101609.99146  23712056.653    23712062.2234   23712069.0064
      3278.249        2554.480
  13110527.868 8  10216337.86945  23984567.606    23984573.1974   23984581.8084
     -2575.812       -2007.126
 -20814946.583 9 -14604076.88047  21132274.503    21132279.5214   21132285.2554
      3093.311        2410.372
    180646.304 9    148058.05748  20773363.964    20773368.8824   20773374.0564
     -1162.099        -905.532
  -3653551.502 9  -2831778.39149  20177117.105    20177122.2794   20177126.8734
     -1320.754       -1029.159
    197827.755 9    166100.64147  23102157.740    23102162.5444   23102168.8014
     -1937.588       -1509.809
 96 11 12 18 27 29.9970000  0  7 25 29  3 15 21  1 31               -0.002715735
 -19029364.779 9 -14813322.90848  20874108.514    20874113.9044   20874119.0024
      2817.507        2195.460
  -6671688.819 9  -5178167.54446  23693360.365    23693366.0524   23693372.6614
      3270.733        2548.623
  13187756.080 8  10276515.59245  23999264.107    23999269.3874   23999277.9174
     -2573.720       -2005.496
 -20907541.655 9 -14676228.87347  21114654.332    21114659.3164   21114665.0074
      3078.754        2399.029
    215648.652 9    175332.57748  20780024.704    20780029.6474   20780034.8234
     -1172.350        -913.519
  -3613783.021 9  -2800789.97949  20184684.801    20184689.9724   20184694.5944
     -1331.306       -1037.381
    256065.358 9    211480.55547  23113239.764    23113244.8214   23113251.1254
     -1946.007       -1516.369
 96 11 12 18 27 59.9970000  0  7 25 29  3 15 21  1 31               -0.002723636
 -19113695.718 9 -14879035.30048  20858060.778    20858066.2034   20858071.3694
      2803.751        2184.741
  -6769722.475 9  -5254557.33246  23674705.070    23674710.8024   23674717.4034
      3264.278        2543.593
  13264911.795 8  10336636.79745  24013946.426    24013951.5404   24013960.3394
     -2570.842       -2003.254
 -20999707.395 9 -14748046.31847  21097115.725    21097120.7304   21097126.4824
      3064.855        2388.199
    250950.642 9    202840.59548  20786742.376    20786747.3874   20786752.6124
     -1181.887        -920.951
  -3573709.142 9  -2769563.58449  20192310.567    20192315.8184   20192320.4094
     -1341.113       -1045.023
    314544.313 9    257048.53047  23124368.021    23124373.0624   23124379.3974
     -1953.524       -1522.226
 96 11 12 18 28 29.9970000  0  7 25 29  3 15 21  1 31               -0.002731529
 -19197597.924 9 -14944413.61248  20842094.729    20842100.1094   20842105.3004
      2789.497        2173.634
  -6867555.542 9  -5330790.83146  23656087.896    23656093.7394   23656100.3114
      3257.757        2538.512
  13341997.178 8  10396703.21145  24028614.771    24028620.5634   24028629.3454
     -2568.498       -2001.427
 -21091435.806 9 -14819522.99047  21079660.216    21079665.3434   21079671.0804
      3050.125        2376.721
    286560.155 9    230588.23348  20793518.588    20793523.6774   20793528.9064
     -1192.247        -929.024
  -3533307.689 9  -2738081.94749  20199998.561    20200003.9064   20200008.5134
     -1352.541       -1053.928
    373276.407 9    302813.76047  23135544.438    23135549.4634   23135555.9134
     -1962.235       -1529.014
 96 11 12 18 28 59.9970000  0  8 25 29  3 15 21  1 31 14            -0.002739425
 -19281077.450 9 -15009462.55248  20826208.964    20826214.4534   20826219.6244
      2775.423        2162.667
  -6965202.991 9  -5406879.70546  23637506.072    23637511.9264   23637518.5164
      3251.501        2533.637
  13419018.170 8  10456719.42045  24043271.874    24043277.1394   24043286.1114
     -2566.756       -2000.070
 -21182730.402 9 -14890661.62347  21062287.249    21062292.5034   21062298.3534
      3035.780        2365.543
    322469.166 9    258569.25648  20800351.686    20800356.9264   20800362.1494
     -1201.981        -936.609
  -3492572.792 9  -2706340.47349  20207750.282    20207755.5594   20207760.1504
     -1363.353       -1062.353
    432263.655 9    348777.81247  23146768.935    23146774.3934   23146780.8284
     -1970.618       -1535.546
  -1335264.02919  -1020932.27255  24446523.549    24446528.7445   24446535.9095
      3193.569        2488.495
 96 11 12 18 29 29.9970000  0  8 25 29  3 15 21  1 31 14            -0.002747322
 -19364128.518 9 -15074177.63648  20810404.816    20810410.3494   20810415.4544
      2761.496        2151.815
  -7062656.402 9  -5482817.40846  23618960.970    23618967.0064   23618973.6104
      3245.608        2529.045
  13495997.691 8  10516703.35845  24057920.233    24057925.9854   24057934.9204
     -2565.169       -1998.833
 -21273588.352 9 -14961460.03147  21044997.494    21045002.8234   21045008.4534
      3021.580        2354.478
    358673.145 9    286780.11648  20807240.926    20807246.2714   20807251.5164
     -1211.646        -944.140
  -3451517.283 9  -2674349.18449  20215562.832    20215568.1264   20215572.7634
     -1373.433       -1070.207
    491496.301 9    394933.07247  23158040.918    23158046.0354   23158052.4584
     -1978.186       -1541.444
  -1431084.971 9  -1095597.93145  24428289.107    24428294.5934   24428301.7534
      3194.318        2489.079
 96 11 12 18 29 59.9970000  0  8 25 29  3 15 21  1 31 14            -0.002755213
 -19446764.744 9 -15138569.46548  20794679.561    20794685.1714   20794690.2114
      2747.412        2140.841
  -7159941.206 9  -5558623.73746  23600447.802    23600454.2904   23600460.9144
      3239.720        2524.457
  13572929.920 8  10576650.39145  24072559.272    24072565.7194   24072574.6854
     -2563.953       -1997.885
 -21364025.944 9 -15031930.85648  21027787.857    21027793.1134   21027798.8144
      3007.296        2343.348
    395169.972 9    315219.18548  20814186.101    20814191.4004   20814196.6294
     -1221.684        -951.962
  -3410168.917 9  -2642129.68349  20223431.086    20223436.4984   20223441.0724
     -1383.289       -1077.888
    550950.142 9    441260.70247  23169354.473    23169359.7274   23169366.1264
     -1985.721       -1547.315
  -1526947.090 8  -1170295.63645  24410047.506    24410052.5144   24410059.8954
      3196.120        2490.483
 96 11 12 18 30 29.9970000  0  8 25 29  3 15 21  1 31 14            -0.002763081
 -19528985.757 9 -15202637.75048  20779033.440    20779039.0324   20779044.0264
      2733.657        2130.122
  -7257047.942 9  -5634291.29946  23581969.465    23581975.4134   23581982.0304
      3233.607        2519.694
  13649829.989 8  10636572.43145  24087192.707    24087199.5274   24087208.2654
     -2563.116       -1997.233
 -21454032.878 9 -15102066.12848  21010660.110    21010665.4264   21010671.1124
      2992.764        2332.024
    431965.836 9    343891.25148  20821188.186    20821193.4834   20821198.6084
     -1231.725        -959.786
  -3368533.718 9  -2609686.69549  20231353.819    20231359.3574   20231364.0314
     -1392.555       -1085.108
    610627.465 9    487762.48347  23180710.426    23180715.9004   23180722.2884
     -1993.152       -1553.105
  -1622865.804 8  -1245037.50045  24391795.031    24391799.9464   24391807.2384
      3197.891        2491.863
 96 11 12 18 30 59.9970000  0  8 25 29  3 15 21  1 31 14            -0.002770917
 -19610787.282 9 -15266379.15948  20763466.948    20763472.7254   20763477.6474
      2719.486        2119.080
  -7353963.523 9  -5709809.90146  23563527.052    23563532.9784   23563539.5084
      3227.076        2514.605
  13726711.818 8  10696480.20945  24101824.077    24101829.6494   24101838.5204
     -2562.415       -1996.687
 -21543598.181 9 -15171857.25148  20993616.274    20993621.6544   20993627.5174
      2977.852        2320.404
    469059.952 9    372795.72448  20828246.867    20828252.2504   20828257.3844
     -1241.646        -967.516
  -3326636.853 9  -2577039.78949  20239326.563    20239332.1444   20239336.7394
     -1400.924       -1091.629
    670530.186 9    534439.89547  23192109.145    23192114.9844   23192121.4534
     -2000.985       -1559.209
  -1718823.371 8  -1319809.69145  24373534.866    24373539.9564   24373546.7294
      3198.467        2492.312
 96 11 12 18 31 29.9970000  0  8 25 29  3 15 21  1 31 14            -0.002778722
 -19692190.032 9 -15329809.83748  20747976.450    20747982.2544   20747987.1744
      2706.838        2109.224
  -7450713.032 9  -5785199.10046  23545116.195    23545122.1744   23545128.6564
      3222.463        2511.010
  13803531.261 8  10756339.39445  24116441.913    24116447.9564   24116456.8934
     -2559.331       -1994.284
 -21632736.794 9 -15241315.90748  20976653.782    20976659.1304   20976665.0434
      2964.179        2309.750
    506435.534 9    401919.52148  20835359.133    20835364.6064   20835369.7184
     -1250.707        -974.577
  -3284510.728 9  -2544214.24849  20247342.979    20247348.5524   20247353.0804
     -1408.137       -1097.250
    730651.973 9    581287.99247  23203549.688    23203555.8964   23203562.3244
     -2007.842       -1564.552
  -1814810.008 8  -1394604.44345  24355268.239    24355274.1604   24355281.0924
      3199.889        2493.420
 96 11 12 18 31 59.9970000  0  8 25 29  3 15 21  1 31 14            -0.002786482
 -19773193.976 9 -15392929.75848  20732561.793    20732567.6914   20732572.6204
      2693.734        2099.014
  -7547298.883 9  -5860460.76646  23526736.115    23526742.5134   23526748.9274
      3216.821        2506.614
  13880272.078 8  10816137.31445  24131045.709    24131051.3494   24131060.2624
     -2556.432       -1992.025
 -21721442.984 9 -15310437.61148  20959773.435    20959778.9034   20959784.7424
      2949.804        2298.549
    544107.529 9    431274.29648  20842527.837    20842533.3524   20842538.4724
     -1260.414        -982.141
  -3242139.525 9  -2511197.73948  20255406.000    20255411.4824   20255415.9864
     -1416.350       -1103.649
    791005.110 9    628316.36547  23215034.510    23215040.8164   23215047.2684
     -2015.547       -1570.556
  -1910815.425 8  -1469413.82945  24336998.316    24337004.8474   24337012.2014
      3200.649        2494.012
 96 11 12 18 32 29.9970000  0  8 25 29  3 15 21  1 31 14            -0.002794204
 -19853813.648 9 -15455750.24048  20717220.370    20717226.2214   20717231.2074
      2680.335        2088.573
  -7643723.355 9  -5935596.68346  23508387.128    23508393.5174   23508400.0094
      3210.965        2502.051
  13956908.884 8  10875854.13745  24145629.490    24145634.9694   24145643.8384
     -2553.102       -1989.430
 -21809724.872 9 -15379228.68348  20942973.958    20942979.4614   20942985.2254
      2935.194        2287.164
    582060.377 9    460847.92748  20849749.872    20849755.4964   20849760.6544
     -1270.224        -989.785
  -3199528.663 9  -2477994.46949  20263514.655    20263520.1224   20263524.5644
     -1424.938       -1110.341
    851586.990 9    675522.97447  23226562.660    23226569.1934   23226575.6334
     -2023.607       -1576.837
  -2006834.673 8  -1544234.00845  24318727.071    24318733.2004   24318740.4564
      3200.297        2493.738
 96 11 12 18 32 59.9970000  0  8 25 29  3 15 21  1 31 14            -0.002801902
 -19934035.442 9 -15518260.70348  20701954.206    20701960.4114   20701965.4364
      2667.208        2078.344
  -7739983.544 9  -6010604.57746  23490069.687    23490075.7414   23490082.3324
      3206.009        2498.189
  14033424.817 8  10935476.78145  24160190.073    24160195.6864   24160204.3224
     -2548.101       -1985.533
 -21897582.369 9 -15447689.06648  20926255.037    20926260.7164   20926266.3974
      2921.622        2276.589
    620288.269 9    490635.86948  20857024.338    20857029.9974   20857035.1654
     -1278.597        -996.309
  -3156665.777 9  -2444594.83949  20271671.041    20271676.6404   20271681.1774
     -1433.094       -1116.697
    912394.434 9    722905.34547  23238134.349    23238140.4954   23238146.9364
     -2030.381       -1582.115
  -2102849.015 8  -1619050.36345  24300456.536    24300462.3824   24300469.6014
      3200.546        2493.932
 96 11 12 18 33 29.9970000  0  8 25 29  3 15 21  1 31 14            -0.002809605
 -20013824.157 9 -15580433.69148  20686770.875    20686777.0994   20686782.0714
      2652.376        2066.786
  -7836062.920 9  -6085471.59046  23471786.314    23471792.4444   23471799.0374
      3199.676        2493.254
  14109811.099 8  10994998.45145  24174725.170    24174731.5094   24174740.3054
     -2544.109       -1982.423
 -21985007.998 9 -15515812.91848  20909618.313    20909624.1284   20909629.8974
      2907.097        2265.270
    658798.616 9    520643.91148  20864352.658    20864358.2894   20864363.4514
     -1288.456       -1003.992
  -3113524.430 9  -2410978.21748  20279880.486    20279886.1584   20279890.6894
     -1442.645       -1124.139
    973416.199 9    770454.72447  23249746.090    23249752.6364   23249759.1114
     -2037.174       -1587.408
  -2198862.631 8  -1693866.15545  24282185.510    24282191.4054   24282198.7854
      3200.862        2494.178
 96 11 12 18 33 59.9970000  0  8 25 29  3 15 21  1 31 14            -0.002817311
 -20093156.152 9 -15642250.79148  20671674.598    20671680.7004   20671685.7234
      2636.521        2054.432
  -7931937.816 9  -6160179.25846  23453541.796    23453548.0284   23453554.6564
      3191.993        2487.267
  14186083.057 8  11054430.96545  24189239.154    24189245.5564   24189254.6644
     -2540.751       -1979.806
 -22071987.510 9 -15583589.15248  20893066.618    20893072.4614   20893078.2124
      2891.566        2253.168
    697608.425 9    550885.30148  20871737.955    20871743.6284   20871748.7284
     -1298.727       -1011.995
  -3070086.214 9  -2377130.26049  20288146.330    20288152.1734   20288156.6784
     -1453.062       -1132.256
   1034632.997 9    818156.06346  23261395.531    23261401.8084   23261408.3244
     -2043.847       -1592.608
  -2294889.541 8  -1768692.29645  24263912.203    24263917.9164   24263925.4454
      3200.895        2494.204
 96 11 12 18 34 29.9970000  0  8 25 29  3 15 21  1 31 14            -0.002825036
 -20172022.286 9 -15703704.88348  20656666.851    20656672.9674   20656677.9754
      2621.344        2042.606
  -8027594.672 9  -6234717.01546  23435338.412    23435345.0164   23435351.6984
      3185.241        2482.006
  14262237.487 8  11113771.89545  24203730.657    24203737.3814   24203746.4084
     -2536.218       -1976.274
 -22158513.386 9 -15651011.90048  20876601.329    20876607.1164   20876612.8614
      2876.881        2241.725
    736704.861 9    581350.03548  20879177.769    20879183.4374   20879188.5554
     -1307.670       -1018.964
  -3026356.700 9  -2343055.31848  20296467.730    20296473.6204   20296478.1284
     -1462.230       -1139.400
   1096032.618 9    865999.87546  23273079.684    23273085.7514   23273092.2854
     -2049.265       -1596.830
  -2390938.765 8  -1843535.83346  24245634.563    24245640.5204   24245648.2094
      3202.370        2495.353
 96 11 12 18 34 59.9970000  0  8 25 29  3 15 21  1 31 14            -0.002832791
 -20250429.493 9 -15764801.37848  20641746.308    20641752.5064   20641757.5074
      2605.849        2030.532
  -8123043.360 9  -6309092.53746  23417175.083    23417181.7614   23417188.3164
      3178.072        2476.420
  14338263.253 8  11173012.60345  24218197.939    24218204.8724   24218213.7374
     -2532.064       -1973.037
 -22244595.438 9 -15718088.82148  20860220.469    20860226.2934   20860232.0304
      2861.958        2230.097
    776076.639 9    612029.31648  20886669.827    20886675.6614   20886680.7784
     -1317.109       -1026.319
  -2982347.320 9  -2308762.29949  20304842.340    20304848.3204   20304852.8374
     -1471.578       -1146.684
   1157589.360 9    913966.10046  23284793.765    23284799.5784   23284806.1694
     -2054.648       -1601.024
  -2487047.332 8  -1918425.64045  24227345.591    24227351.9484   24227359.6394
      3204.654        2497.133
 96 11 12 18 35 29.9970000  0  8 25 29  3 15 21  1 31 14            -0.002840546
 -20328385.728 9 -15825546.47148  20626911.467    20626917.8944   20626922.8574
      2591.403        2019.275
  -8218281.688 9  -6383304.14046  23399052.167    23399058.5624   23399065.0144
      3171.104        2470.990
  14414158.732 8  11232151.79645  24232640.939    24232647.3364   24232656.2144
     -2527.896       -1969.789
 -22330233.330 9 -15784819.64548  20843924.048    20843929.9584   20843935.6764
      2847.104        2218.523
    815739.635 9    642935.51448  20894217.453    20894223.3004   20894228.4084
     -1327.140       -1034.135
  -2938071.851 9  -2274261.95049  20313267.547    20313273.6424   20313278.2634
     -1480.169       -1153.378
   1219301.398 9    962053.35046  23296537.125    23296542.9844   23296549.6304
     -2059.875       -1605.097
  -2583231.666 8  -1993374.40045  24209042.480    24209048.1094   24209055.8984
      3207.211        2499.125
 96 11 12 18 35 59.9970000  0  8 25 29  3 15 21  1 31 14            -0.002848282
 -20405916.361 9 -15885959.91848  20612158.136    20612164.2824   20612169.2754
      2577.174        2008.188
  -8313310.493 9  -6457352.49446  23380967.761    23380975.1224   23380981.5314
      3164.119        2465.547
  14489928.570 8  11291193.03545  24247060.158    24247065.9824   24247075.2804
     -2523.511       -1966.372
 -22415421.623 9 -15851200.12048  20827713.317    20827719.1624   20827724.9114
      2832.089        2206.823
    855692.260 9    674067.39248  20901820.106    20901826.0854   20901831.1244
     -1336.345       -1041.308
  -2893539.365 9  -2239561.32048  20321741.805    20321747.8624   20321752.4964
     -1488.601       -1159.949
   1281187.382 9   1010276.14246  23308313.307    23308319.5664   23308326.2274
     -2066.125       -1609.967
  -2679481.513 8  -2068374.27745  24190727.244    24190732.6214   24190739.8324
      3209.415        2500.843
 96 11 12 18 36 29.9970000  0  8 25 29  3 15 21  1 31 14            -0.002855990
 -20483011.322 9 -15946033.89048  20597487.260    20597493.5774   20597498.5854
      2563.195        1997.295
  -8408129.769 9  -6531237.56446  23362924.388    23362931.5564   23362938.0394
      3157.821        2460.640
  14565576.049 8  11350138.87945  24261456.030    24261461.2154   24261470.5764
     -2519.117       -1962.948
 -22500155.861 9 -15917226.79448  20811588.890    20811594.7954   20811600.5224
      2817.451        2195.416
    895924.804 9    705417.39748  20909476.198    20909482.1684   20909487.1534
     -1345.221       -1048.224
  -2848757.865 9  -2204666.64748  20330263.340    20330269.5334   20330274.0964
     -1496.277       -1165.930
   1343273.805 9   1058655.10646  23320128.133    23320134.2464   23320140.8504
     -2072.428       -1614.879
  -2775780.620 9  -2143412.55146  24172401.920    24172407.8754   24172414.6134
      3211.300        2502.312
 96 11 12 18 36 59.9970000  0  8 25 29  3 15 21  1 31 14            -0.002863669
 -20559678.681 9 -16005774.65948  20582897.913    20582904.2484   20582909.2254
      2548.049        1985.493
  -8502750.028 9  -6604967.56046  23344919.105    23344925.9054   23344932.3354
      3150.342        2454.812
  14641104.536 8  11408992.04145  24275828.855    24275834.0414   24275843.2184
     -2516.113       -1960.608
 -22584438.723 9 -15982901.74248  20795550.411    20795556.3054   20795562.0984
      2801.410        2182.917
    936438.089 9    736986.17148  20917185.679    20917191.6664   20917196.6494
     -1355.514       -1056.245
  -2803734.149 9  -2169583.23248  20338830.929    20338837.2334   20338841.8034
     -1505.178       -1172.866
   1405569.192 9   1107196.90646  23331982.602    23331988.8134   23331995.3304
     -2080.530       -1621.192
  -2872119.584 9  -2218481.87046  24154069.592    24154075.5454   24154082.0344
      3211.298        2502.310
 96 11 12 18 37 29.9970000  0  8 25 29  3 15 21  1 31 14            -0.002871317
 -20635923.580 9 -16065186.25148  20568388.909    20568395.2684   20568400.2604
      2533.982        1974.531
  -8597178.841 9  -6678548.36746  23326950.377    23326956.6534   23326963.0944
      3144.058        2449.915
  14716505.034 8  11467745.47245  24290177.605    24290182.3084   24290191.6794
     -2511.708       -1957.175
 -22668265.043 9 -16048220.94148  20779598.632    20779604.5874   20779610.4914
      2786.020        2170.925
    977225.610 9    768768.63948  20924947.351    20924953.3054   20924958.3674
     -1364.575       -1063.305
  -2758473.071 9  -2134314.85948  20347443.753    20347450.0964   20347454.6624
     -1513.222       -1179.134
   1468074.459 9   1155902.24546  23343877.580    23343883.3214   23343889.8594
     -2087.389       -1626.537
  -2968482.203 8  -2293569.64045  24135732.582    24135738.1644   24135744.5754
      3211.914        2502.790
 96 11 12 18 37 59.9970000  0  8 25 29  3 15 21  1 31 14            -0.002878956
 -20711744.025 9 -16124267.08348  20553960.737    20553967.0854   20553972.1254
      2520.206        1963.797
  -8691426.990 9  -6751988.41246  23309015.531    23309021.7614   23309028.2494
      3138.904        2445.899
  14791772.395 8  11526395.14945  24304500.368    24304505.2254   24304514.7614
     -2506.503       -1953.119
 -22751627.902 9 -16113179.00448  20763735.032    20763741.1444   20763747.0314
      2771.148        2159.336
   1018282.186 9    800760.74448  20932760.077    20932766.1414   20932771.2254
     -1373.083       -1069.935
  -2712967.283 9  -2098855.81749  20356103.164    20356109.5464   20356114.1764
     -1520.867       -1185.091
   1530775.837 9   1204760.38646  23355809.369    23355815.0704   23355821.6384
     -2093.026       -1630.929
  -3064862.808 8  -2368671.36245  24117390.290    24117397.2264   24117404.0884
      3213.096        2503.711
 96 11 12 18 38 29.9970000  0  7 25 29 15 21  1 31 14               -0.002886572
 -20787134.030 9 -16183012.51848  20539614.450    20539620.7944   20539625.9124
      2505.960        1952.696
  -8785504.133 9  -6825295.19746  23291113.066    23291119.4314   23291125.8634
      3132.971        2441.276
 -22834523.641 9 -16177773.08448  20747960.377    20747966.6384   20747972.4234
      2755.322        2147.004
   1059632.401 9    832981.66248  20940628.747    20940634.7994   20940640.0234
     -1383.428       -1077.996
  -2667211.301 9  -2063201.81748  20364810.247    20364816.6094   20364821.3344
     -1529.418       -1191.754
   1593658.488 9   1253759.80746  23367774.753    23367781.2534   23367787.8874
     -2098.909       -1635.514
  -3161260.885 8  -2443786.72846  24099045.997    24099053.2224   24099060.4294
      3213.476        2504.007
 96 11 12 18 38 59.9970000  0  7 25 29 15 21  1 31 14               -0.002894155
 -20862098.753 9 -16241426.57048  20525348.825    20525355.4524   20525360.5594
      2491.945        1941.775
  -8879414.039 9  -6898471.69346  23273242.537    23273248.9014   23273255.4344
      3128.113        2437.491
 -22916952.764 9 -16242003.57348  20732274.744    20732280.9244   20732286.6764
      2740.403        2135.379
   1101284.643 9    865437.93448  20948554.916    20948560.9524   20948566.2354
     -1392.940       -1085.408
  -2621211.689 9  -2027357.96448  20373563.763    20373570.1174   20373574.7234
     -1536.748       -1197.466
   1656696.622 9   1302880.36246  23379771.141    23379777.0314   23379783.7254
     -2103.098       -1638.778
  -3257683.534 9  -2518921.26646  24080698.819    24080704.9484   24080711.8554
      3214.977        2505.177
 96 11 12 18 39 29.9970000  0  7 25 29 15 21  1 31 14               -0.002901729
 -20936611.380 9 -16299488.33248  20511169.791    20511176.2244   20511181.2304
      2476.755        1929.939
  -8973158.471 9  -6971519.23046  23255403.314    23255409.8354   23255416.4604
      3122.766        2433.324
 -22998913.722 9 -16305869.24648  20716677.988    20716684.2624   20716689.9754
      2724.971        2123.354
   1143251.156 9    898139.09848  20956540.862    20956546.9324   20956552.2564
     -1403.499       -1093.636
  -2574974.996 9  -1991329.37048  20382362.239    20382368.6694   20382373.2104
     -1544.329       -1203.373
   1719866.843 9   1352103.84546  23391791.889    23391797.9974   23391804.6734
     -2107.104       -1641.899
  -3354126.566 8  -2594071.65046  24062346.775    24062352.4774   24062359.3864
      3215.839        2505.849
 96 11 12 18 39 59.9970000  0  7 25 29 15 21  1 31 14               -0.002909280
 -21010650.087 9 -16357180.80548  20497080.636    20497087.1274   20497092.1304
      2460.164        1917.011
  -9066726.239 9  -7044429.11346  23237598.214    23237604.5314   23237611.0444
      3115.977        2428.034
 -23080400.865 9 -16369365.70948  20701171.476    20701177.7234   20701183.5094
      2708.499        2110.519
   1185549.006 9    931098.45048  20964589.796    20964595.9794   20964601.2524
     -1415.146       -1102.711
  -2528503.343 9  -1955117.69748  20391205.430    20391211.8724   20391216.4474
     -1552.791       -1209.967
   1783180.083 9   1401438.76946  23403840.133    23403846.1644   23403852.9174
     -2113.011       -1646.502
  -3450574.914 8  -2669226.20646  24043991.529    24043998.6774   24044005.8024
      3215.064        2505.245
 96 11 12 18 40 29.9970000  0  7 25 29 15 21  1 31 14               -0.002916814
 -21084193.349 9 -16414487.22548  20483085.840    20483092.2954   20483097.3594
      2443.182        1903.778
  -9160089.719 9  -7117179.81046  23219831.861    23219838.0454   23219844.4344
      3108.541        2422.240
 -23161402.304 9 -16432483.70348  20685757.422    20685763.6784   20685769.4994
      2692.011        2097.671
   1228169.836 9    964309.48048  20972700.427    20972706.4444   20972711.7684
     -1425.609       -1110.864
  -2481795.830 9  -1918722.23448  20400093.668    20400100.0404   20400104.6034
     -1560.521       -1215.990
   1846668.697 9   1450910.34946  23415921.474    23415927.7054   23415934.4824
     -2119.099       -1651.246
  -3547012.858 9  -2744372.65046  24025640.034    24025647.4004   24025654.1734
      3214.591        2504.876
 96 11 12 18 40 59.9970000  0  7 25 29 15 21  1 31 14               -0.002924370
 -21157229.617 9 -16471398.58448  20469187.528    20469193.9324   20469199.0174
      2426.366        1890.675
  -9253241.286 9  -7189765.38446  23202105.507    23202111.8734   23202118.1834
      3101.820        2417.003
 -23241921.909 9 -16495226.24648  20670435.225    20670441.3294   20670447.1844
      2676.186        2085.340
   1271080.915 9    997746.66748  20980865.986    20980872.1624   20980877.4704
     -1434.947       -1118.140
  -2434879.635 9  -1882164.17048  20409021.373    20409027.8774   20409032.5164
     -1567.171       -1221.172
   1910322.443 9   1500510.60346  23428033.952    23428040.6004   23428047.4004
     -2124.418       -1655.391
  -3643447.466 8  -2819516.46145  24007288.883    24007296.1604   24007303.2484
      3214.789        2505.030
 96 11 12 18 41 29.9970000  0  7 25 29 15 21  1 31 14               -0.002931940
 -21229774.854 9 -16527927.31648  20455382.588    20455389.0254   20455394.0594
      2410.396        1878.231
  -9346184.557 9  -7262188.65047  23184418.687    23184425.2774   23184431.5664
      3094.506        2411.303
 -23321964.322 9 -16557596.95148  20655203.703    20655209.7804   20655215.6264
      2660.116        2072.818
   1314267.559 9   1031398.58648  20989084.151    20989090.3444   20989095.6334
     -1443.951       -1125.157
  -2387754.209 9  -1845443.06648  20417989.091    20417995.5724   20418000.2174
     -1574.455       -1226.848
   1974146.059 9   1550243.22446  23440179.162    23440185.9084   23440192.6874
     -2130.470       -1660.106
  -3739892.249 8  -2894668.22645  23988936.545    23988943.2984   23988950.0304
      3215.241        2505.383
 96 11 12 18 41 59.9970000  0  7 25 29 15 21  1 31 14               -0.002939510
 -21301861.703 9 -16584098.86048  20441665.008    20441671.3814   20441676.3174
      2394.380        1865.751
  -9438910.427 9  -7334442.50247  23166773.455    23166780.0394   23166786.3854
      3086.128        2404.775
 -23401528.990 9 -16619595.38748  20640063.017    20640069.1384   20640074.9174
      2643.153        2059.600
   1357706.641 9   1065247.18148  20997350.325    20997356.5154   20997361.8484
     -1452.981       -1132.193
  -2340410.438 9  -1808551.81748  20426998.404    20427004.8144   20427009.4614
     -1582.858       -1233.396
   2038154.338 9   1600119.72646  23452360.117    23452366.4704   23452373.1424
     -2137.651       -1665.702
  -3836368.948 9  -2969844.85146  23970577.328    23970584.2644   23970591.1004
      3215.618        2505.676
 96 11 12 18 42 29.9970000  0  7 25 29 15 21  1 31 14               -0.002947066
 -21373470.175 9 -16639897.65648  20428038.273    20428044.7034   20428049.5944
      2379.314        1854.011
  -9531386.253 9  -7406501.53146  23149175.568    23149182.4334   23149188.7544
      3078.795        2399.061
 -23480589.176 9 -16681200.70948  20625018.307    20625024.4054   20625030.3044
      2627.295        2047.243
   1401414.195 9   1099304.97148  21005667.617    21005673.8284   21005679.2084
     -1461.233       -1138.623
  -2292815.714 9  -1771465.04148  20436055.214    20436061.7294   20436066.4734
     -1590.271       -1239.172
   2102360.539 9   1650150.45546  23464578.449    23464584.5304   23464591.1684
     -2142.888       -1669.783
  -3932867.420 9  -3045038.40246  23952214.440    23952221.2214   23952228.3554
      3217.501        2507.144
 96 11 12 18 42 59.9970000  0  7 25 29 15 21  1 31 14               -0.002954601
 -21444607.372 9 -16695329.22048  20414501.288    20414507.7254   20414512.6074
      2363.466        1841.662
  -9623628.046 9  -7478378.18547  23131622.705    23131629.3954   23131635.6194
      3070.972        2392.965
 -23559148.292 9 -16742415.60048  20610068.969    20610075.1174   20610080.9734
      2610.226        2033.942
   1445403.199 9   1133582.08348  21014038.441    21014044.6904   21014050.0424
     -1471.178       -1146.372
  -2244969.124 9  -1734181.97748  20445160.292    20445166.7124   20445171.3724
     -1599.396       -1246.283
   2166741.689 9   1700317.51546  23476829.313    23476835.8974   23476842.4784
     -2149.053       -1674.587
  -4029397.190 8  -3120256.41446  23933845.667    23933852.3784   23933859.3964
      3218.195        2507.684
 96 11 12 18 43 29.9970000  0  7 25 29 15 21  1 31 14               -0.002962101
 -21515289.810 9 -16750406.42848  20401051.015    20401057.3064   20401062.2154
      2348.860        1830.281
  -9715652.687 9  -7550085.62047  23114111.031    23114117.7154   23114123.8594
      3064.292        2387.760
 -23637212.210 9 -16803244.61348  20595213.966    20595220.0284   20595225.8924
      2594.271        2021.510
   1489678.036 9   1168081.93848  21022463.753    21022469.9224   21022475.1884
     -1480.299       -1153.480
  -2196858.067 9  -1696692.84648  20454315.629    20454321.9384   20454326.5944
     -1607.515       -1252.609
   2231288.010 9   1750613.28346  23489112.612    23489118.7934   23489125.2654
     -2153.721       -1678.224
  -4125964.777 8  -3195503.85146  23915469.737    23915476.0604   23915482.9344
      3219.879        2508.997
 96 11 12 18 43 59.9970000  0  7 25 29 15 21  1 31 14               -0.002969589
 -21585531.125 9 -16805139.89848  20387684.680    20387690.8844   20387695.7354
      2333.496        1818.309
  -9807490.383 9  -7621647.39647  23096635.274    23096641.6414   23096647.6274
      3057.962        2382.828
 -23714803.750 9 -16863705.55148  20580448.828    20580454.8604   20580460.7014
      2578.123        2008.927
   1534223.584 9   1202792.73948  21030940.768    21030946.7254   21030951.9004
     -1489.880       -1160.945
  -2148520.308 9  -1659027.07048  20463514.074    20463520.2844   20463524.9994
     -1615.215       -1258.609
   2295958.646 9   1801005.89746  23501419.272    23501425.2964   23501431.6734
     -2157.984       -1681.546
  -4222583.987 8  -3270791.53746  23897083.492    23897089.9994   23897097.1274
      3220.901        2509.793
 96 11 12 18 44 29.9970000  0  7 25 29 15 21  1 31 14               -0.002977064
 -21655302.264 9 -16859506.99748  20374407.725    20374413.8774   20374418.7444
      2317.954        1806.198
  -9899140.116 9  -7693062.71047  23079194.758    23079201.1634   23079207.2344
      3052.193        2378.332
 -23791904.074 9 -16923783.72048  20565777.250    20565783.1854   20565788.9734
      2561.826        1996.228
   1579069.667 9   1237737.72847  21039474.741    21039480.7124   21039485.8004
     -1499.859       -1168.721
  -2099958.021 9  -1621186.32648  20472755.200    20472761.3884   20472766.1214
     -1622.164       -1264.024
   2360755.371 9   1851496.77246  23513749.640    23513755.7134   23513762.1834
     -2161.809       -1684.526
  -4319223.316 8  -3346094.86446  23878693.464    23878700.0194   23878707.6494
      3221.632        2510.363
 96 11 12 18 44 59.9970000  0  7 25 29 15 21  1 31 14               -0.002984527
 -21724611.210 9 -16913513.94748  20361218.588    20361224.7484   20361229.7094
      2302.767        1794.364
  -9990625.461 9  -7764349.92947  23061785.861    23061791.9814   23061798.0844
      3046.827        2374.151
 -23868509.798 9 -16983476.48148  20551199.652    20551205.5904   20551211.3834
      2545.286        1983.340
   1624217.642 9   1272917.94747  21048066.240    21048072.0964   21048077.2384
     -1509.943       -1176.579
  -2051187.211 9  -1583183.09848  20482036.159    20482042.2354   20482046.9434
     -1629.227       -1269.528
   2425669.089 9   1902078.83146  23526102.226    23526108.3954   23526114.9254
     -2165.721       -1687.575
  -4415876.801 8  -3421409.23346  23860300.901    23860307.2514   23860314.9604
      3222.074        2510.707
 96 11 12 18 45 29.9970000  0  7 25 29 15 21  1 31 14               -0.002991969
 -21793466.079 9 -16967167.06148  20348116.161    20348122.0874   20348127.0184
      2287.725        1782.643
 -10081944.923 9  -7835507.89547  23044408.073    23044414.3564   23044420.4824
      3041.265        2369.817
 -23944615.454 9 -17042779.58648  20536717.209    20536723.0984   20536728.9524
      2528.546        1970.296
   1669672.491 9   1308337.26448  21056715.975    21056721.8624   21056727.0344
     -1520.138       -1184.523
  -2002201.991 9  -1545012.79648  20491357.744    20491363.7944   20491368.4834
     -1636.228       -1274.983
   2490701.915 9   1952753.67246  23538478.013    23538483.7404   23538490.3644
     -2169.712       -1690.685
  -4512537.331 9  -3496729.07946  23841907.016    23841913.4434   23841920.3794
      3222.235        2510.832
 96 11 12 18 45 59.9970000  0  7 25 29 15 21  1 31 14               -0.002999369
 -21861873.747 9 -17020471.70548  20335098.570    20335104.5584   20335109.4074
      2272.863        1771.062
 -10173101.317 9  -7906538.78147  23027061.824    23027067.8574   23027073.8864
      3035.954        2365.678
 -24020223.242 9 -17101694.73448  20522329.643    20522335.4104   20522341.2404
      2512.020        1957.418
   1715423.171 9   1343987.10348  21065422.146    21065427.9824   21065433.1634
     -1529.743       -1192.008
  -1953012.508 9  -1506683.33248  20500718.193    20500724.1624   20500728.9124
     -1643.027       -1280.281
   2555849.885 9   2003518.25546  23550874.586    23550881.0034   23550887.6274
     -2173.447       -1693.595
  -4609210.794 8  -3572059.07846  23823511.403    23823517.5464   23823523.9304
      3222.666        2511.168
 96 11 12 18 46 29.9970000  0  7 25 29 15 21  1 31 14               -0.003006766
 -21929815.115 9 -17073412.99248  20322170.073    20322175.7514   20322180.5464
      2257.096        1758.776
 -10264077.971 9  -7977429.63047  23009749.221    23009755.5204   23009761.5294
      3029.585        2360.716
 -24095314.852 9 -17160207.67248  20508040.423    20508045.9544   20508051.8114
      2494.634        1943.871
   1761477.671 9   1379873.68848  21074186.335    21074191.9434   21074197.1604
     -1540.049       -1200.038
  -1903599.215 9  -1468179.46348  20510121.641    20510127.3004   20510131.9654
     -1650.844       -1286.372
   2621127.846 9   2054384.13146  23563296.001    23563302.9914   23563309.6484
     -2177.794       -1696.982
  -4705875.516 8  -3647382.19546  23805116.850    23805122.9974   23805129.3994
      3222.396        2510.958
 96 11 12 18 46 59.9960000  0  7 25 29 15 21  1 31 14               -0.003014143
 -21997300.400 9 -17125998.89748  20309328.013    20309333.7214   20309338.5634
      2242.205        1747.173
 -10354871.205 9  -8048177.55447  22992472.066    22992478.0754   22992484.1484
      3023.542        2356.007
 -24169904.999 9 -17218329.85148  20493846.471    20493851.9104   20493857.7814
      2478.401        1931.222
   1807821.714 9   1415985.91448  21083005.371    21083010.9724   21083016.2234
     -1549.520       -1207.418
  -1853961.295 9  -1429500.56048  20519567.820    20519573.1824   20519577.7834
     -1658.246       -1292.140
   2686508.378 9   2105329.91746  23575737.339    23575744.4844   23575751.2514
     -2180.910       -1699.410
  -4802555.492 8  -3722717.20046  23786719.201    23786725.0584   23786731.9964
      3223.474        2511.798
 96 11 12 18 47 29.9960000  0  7 25 29 15 21  1 31 14               -0.003021495
 -22064307.935 9 -17178212.53148  20296577.045    20296582.5644   20296587.4774
      2225.176        1733.903
 -10445450.500 9  -8118758.77447  22975235.638    22975241.4094   22975247.4964
      3015.363        2349.633
 -24243988.255 9 -17276057.05248  20479749.065    20479754.2804   20479760.1864
      2460.841        1917.538
   1854469.283 9   1452334.64147  21091882.264    21091887.7114   21091892.9754
     -1559.936       -1215.534
  -1804087.765 9  -1390638.07648  20529058.545    20529063.7714   20529068.3714
     -1666.202       -1298.339
   2752007.536 9   2156368.14946  23588201.816    23588208.5614   23588215.3524
     -2185.297       -1702.829
  -4899251.900 9  -3798064.98546  23768318.221    23768324.0794   23768331.6364
      3223.512        2511.828
 96 11 12 18 47 59.9960000  0  7 25 29 15 21  1 31 14               -0.003028838
 -22130815.911 9 -17230036.88748  20283921.190    20283926.5544   20283931.4404
      2207.879        1720.425
 -10535795.694 9  -8189157.58147  22958043.755    22958049.3774   22958055.3154
      3006.883        2343.026
 -24317566.109 9 -17333390.44348  20465747.853    20465752.9254   20465758.7864
      2443.492        1904.020
   1901407.121 9   1488909.55647  21100814.287    21100819.6364   21100824.9624
     -1570.114       -1223.465
  -1754000.080 9  -1351608.71448  20538590.018    20538595.1874   20538599.7494
     -1673.890       -1304.330
   2817607.320 9   2207484.78646  23600685.241    23600691.7474   23600698.6184
     -2189.046       -1705.750
  -4995973.416 9  -3873432.41746  23749913.329    23749918.9894   23749926.0474
      3223.808        2512.058
 96 11 12 18 48 29.9960000  0  7 25 29 15 21  1 31 14               -0.003036165
 -22196809.455 9 -17281460.38348  20271363.148    20271368.3814   20271373.2674
      2191.209        1707.436
 -10625886.541 9  -8259358.18847  22940900.312    22940905.7114   22940911.5664
      2998.735        2336.677
 -24390624.365 9 -17390318.94348  20451845.477    20451850.4404   20451856.2204
      2426.546        1890.815
   1948648.402 9   1525720.91847  21109804.263    21109809.2864   21109814.7294
     -1579.866       -1231.064
  -1703686.930 9  -1312403.66748  20548164.401    20548169.5014   20548174.0734
     -1680.861       -1309.762
   2883320.592 9   2258689.84546  23613190.579    23613196.6734   23613203.4084
     -2192.541       -1708.474
  -5092719.303 8  -3948818.79146  23731503.166    23731508.7544   23731515.6394
      3225.552        2513.417
 96 11 12 18 48 59.9960000  0  7 25 29 15 21  1 31 14               -0.003043489
 -22262303.722 9 -17332494.83348  20258899.934    20258905.1844   20258910.1004
      2174.772        1694.628
 -10715736.790 9  -8329371.32747  22923802.327    22923807.7164   22923813.6154
      2991.184        2330.793
 -24463173.670 9 -17446850.86848  20438039.978    20438044.8294   20438050.5044
      2409.784        1877.754
   1996178.260 9   1562757.13047  21118848.783    21118853.8164   21118859.3614
     -1589.055       -1238.225
  -1653171.695 9  -1273041.14848  20557777.128    20557782.2414   20557786.7774
     -1686.959       -1314.514
   2949140.709 9   2309978.17446  23625715.415    23625721.9794   23625728.6144
     -2195.844       -1711.047
  -5189523.201 9  -4024250.34546  23713082.072    23713087.6944   23713094.6584
      3227.614        2515.024
 96 11 12 18 49 29.9960000  0  7 25 29 15 21  1 31 14               -0.003050809
 -22327276.606 9 -17383123.02148  20246535.739    20246541.1914   20246546.1204
      2157.278        1680.996
 -10805344.655 9  -8399195.59247  22906750.079    22906755.8034   22906761.7844
      2983.138        2324.523
 -24535190.312 9 -17502967.72648  20424335.627    20424340.5524   20424346.1584
      2391.750        1863.701
   2044001.377 9   1600021.82447  21127949.242    21127954.2874   21127959.8764
     -1598.768       -1245.793
  -1602452.454 9  -1233519.67548  20567428.573    20567433.7574   20567438.2794
     -1694.022       -1320.017
   3015081.671 9   2361360.65146  23638263.472    23638270.1814   23638276.8244
     -2199.922       -1714.225
  -5286353.098 8  -4099702.22046  23694655.830    23694661.5724   23694668.5334
      3228.125        2515.422
 96 11 12 18 49 59.9960000  0  7 25 29 15 21  1 31 14               -0.003058138
 -22391768.409 9 -17433376.33448  20234263.234    20234268.7784   20234273.6774
      2142.139        1669.199
 -10894757.694 9  -8468868.04547  22889735.423    22889741.0574   22889746.9634
      2977.735        2320.313
 -24606693.981 9 -17558684.85648  20410728.754    20410733.7744   20410739.4404
      2374.977        1850.631
   2092084.171 9   1637488.89447  21137098.892    21137104.2124   21137109.8294
     -1606.982       -1252.194
  -1551537.621 9  -1193845.79048  20577117.090    20577122.5114   20577127.0104
     -1700.425       -1325.006
   3081121.803 9   2412820.40446  23650830.986    23650837.2914   23650843.9564
     -2203.094       -1716.697
  -5383227.140 8  -4175188.44846  23676221.478    23676226.7964   23676233.9384
      3229.886        2516.794
 96 11 12 18 50 29.9960000  0  7 25 29 15 21  1 31 14               -0.003065461
 -22455786.222 9 -17483260.30648  20222080.885    20222086.5814   20222091.4384
      2126.006        1656.628
 -10983995.384 9  -8538403.87047  22872753.999    22872759.6894   22872765.5544
      2971.729        2315.633
 -24677666.535 9 -17613988.14048  20397222.767    20397228.1424   20397233.8104
      2356.888        1836.536
   2140444.951 9   1675172.59448  21146301.581    21146307.0834   21146312.6524
     -1616.780       -1259.829
  -1500411.180 9  -1154007.00048  20586846.036    20586851.5684   20586856.0244
     -1707.537       -1330.548
   3147281.086 9   2464373.00746  23663420.778    23663427.0374   23663433.7444
     -2207.131       -1719.842
  -5480123.495 9  -4250692.04546  23657782.032    23657787.8044   23657795.1684
      3230.046        2516.919
 96 11 12 18 50 59.9960000  0  7 25 29 15 21  1 31 14               -0.003072766
 -22519320.519 9 -17532767.50548  20209990.514    20209996.3554   20210001.2694
      2110.137        1644.263
 -11073058.163 9  -8607803.39247  22855805.527    22855811.5994   22855817.4024
      2966.239        2311.355
 -24748101.521 9 -17668872.52748  20383819.233    20383824.7374   20383830.4754
      2339.333        1822.857
   2189102.393 9   1713087.43848  21155560.740    21155566.3724   21155571.9364
     -1626.398       -1267.323
  -1449075.644 9  -1114005.30048  20596614.718    20596620.3564   20596624.9194
     -1714.318       -1335.832
   3213545.723 9   2516007.70646  23676030.307    23676036.8384   23676043.5294
     -2209.921       -1722.016
  -5577014.162 9  -4326191.28046  23639344.748    23639350.6534   23639357.5994
      3229.769        2516.703
 96 11 12 18 51 29.9960000  0  7 25 29 15 21  1 31 14               -0.003080052
 -22582378.209 9 -17581903.33048  20197990.782    20197996.8264   20198001.7804
      2094.140        1631.797
 -11161945.412 9  -8677066.15247  22838890.540    22838896.8714   22838902.6704
      2959.785        2306.326
 -24818006.507 9 -17723343.94148  20370516.717    20370522.2534   20370528.0384
      2321.309        1808.812
   2238049.453 9   1751227.94848  21164875.067    21164880.7934   21164886.2894
     -1636.419       -1275.132
  -1397526.877 9  -1073837.45248  20606423.902    20606429.7534   20606434.3524
     -1721.870       -1341.717
   3279897.118 9   2567710.01046  23688656.318    23688663.0634   23688669.8344
     -2213.298       -1724.648
  -5673891.148 9  -4401679.77246  23620909.621    23620915.3314   23620922.1544
      3229.199        2516.259
 96 11 12 18 51 59.9960000  0  7 25 29 15 21  1 31 14               -0.003087301
 -22644962.577 9 -17630670.34148  20186081.238    20186087.3684   20186092.3274
      2078.621        1619.705
 -11250641.817 9  -8746180.19247  22822011.833    22822018.4274   22822024.2124
      2953.848        2301.700
 -24887374.319 9 -17777396.77548  20357316.146    20357322.0144   20357327.7704
      2303.848        1795.206
   2287304.180 9   1789608.21748  21174247.967    21174253.7284   21174259.2414
     -1646.615       -1283.077
  -1345755.056 9  -1033495.77448  20616275.666    20616281.6404   20616286.1134
     -1728.822       -1347.134
   3346353.663 9   2619494.24646  23701302.362    23701309.3804   23701316.1884
     -2216.391       -1727.058
  -5770760.928 9  -4477162.71246  23602475.406    23602481.7144   23602488.0714
      3229.358        2516.383
 96 11 12 18 52 29.9960000  0  7 25 29 15 21  1 31 14               -0.003094511
 -22707048.168 9 -17679048.68848  20174266.587    20174272.8344   20174277.7394
      2060.439        1605.537
 -11339127.976 9  -8815130.40747  22805172.744    22805179.9674   22805185.8564
      2945.307        2295.044
 -24956200.560 9 -17831027.59848  20344218.776    20344224.8304   20344230.5554
      2284.697        1780.283
   2336883.022 9   1828241.05047  21183682.336    21183688.2674   21183693.8454
     -1658.408       -1292.266
  -1293771.643 9   -992989.22348  20626167.753    20626173.7744   20626178.1794
     -1736.652       -1353.235
   3412903.799 9   2671351.42046  23713966.312    23713973.4384   23713980.3424
     -2220.217       -1730.039
  -5867612.073 8  -4552631.09146  23584045.022    23584051.4314   23584058.0184
      3227.590        2515.005
 96 11 12 18 52 59.9960000  0  7 25 29 15 21  1 31 14               -0.003101684
 -22768598.332 9 -17727009.82748  20162553.812    20162560.2174   20162565.0274
      2042.117        1591.260
 -11427368.216 9  -8883888.98647  22788381.292    22788388.3764   22788394.2944
      2936.581        2288.245
 -25024468.201 9 -17884223.15548  20331227.800    20331233.9494   20331239.5994
      2265.591        1765.396
   2386786.237 9   1867126.61947  21193178.586    21193184.5534   21193190.1694
     -1669.163       -1300.646
  -1241566.628 9   -952310.01148  20636101.932    20636107.9994   20636112.4974
     -1744.473       -1359.330
   3479557.663 9   2723289.40746  23726649.805    23726657.2734   23726664.2354
     -2224.217       -1733.156
  -5964427.202 9  -4628071.42446  23565621.602    23565628.1374   23565634.8034
      3226.106        2513.849
 96 11 12 18 53 29.9960000  0  7 25 29 15 21  1 31 14               -0.003108839
 -22829621.995 9 -17774560.70148  20150941.310    20150947.7954   20150952.5494
      2026.034        1578.728
 -11515372.880 9  -8952463.99447  22771635.228    22771641.6404   22771647.5214
      2930.261        2283.320
 -25092182.425 9 -17936987.48148  20318342.186    20318348.3644   20318354.0154
      2248.465        1752.051
   2436982.442 9   1906240.49547  21202730.491    21202736.6024   21202742.1994
     -1677.507       -1307.148
  -1189154.202 9   -911469.18148  20646075.551    20646081.7284   20646086.3164
     -1749.760       -1363.449
   3546311.257 9   2775305.11246  23739352.551    23739360.1034   23739367.0194
     -2226.215       -1734.713
  -6061227.826 9  -4703500.46546  23547200.931    23547207.4054   23547214.1124
      3227.185        2514.690
 96 11 12 18 53 59.9960000  0  7 25 29 15 21  1 31 14               -0.003115986
 -22890122.235 9 -17821703.71548  20139428.391    20139434.9604   20139439.7254
      2006.978        1563.879
 -11603157.912 9  -9020867.87047  22754930.117    22754936.6814   22754942.5614
      2921.894        2276.801
 -25159348.521 9 -17989324.69648  20305560.851    20305567.1024   20305572.6784
      2229.045        1736.918
   2487466.303 9   1945578.51547  21212337.201    21212343.3064   21212348.9284
     -1688.354       -1315.601
  -1136554.738 9   -870482.59848  20656084.841    20656091.1194   20656095.6804
     -1757.007       -1369.096
   3613155.813 9   2827391.68646  23752073.132    23752080.4094   23752087.2084
     -2230.227       -1737.839
  -6158021.899 9  -4778924.38446  23528781.391    23528787.9844   23528794.8234
      3225.452        2513.339
 96 11 12 18 54 29.9960000  0  7 25 29 15 21  1 31 14               -0.003123137
 -22950080.017 9 -17868424.04348  20128018.720    20128025.3004   20128030.1134
      1989.668        1550.391
 -11690719.594 9  -9089097.71147  22738267.341    22738274.1934   22738280.0924
      2914.899        2271.350
 -25225962.891 9 -18041231.98848  20292884.569    20292890.8154   20292896.3854
      2211.188        1723.004
   2538233.019 9   1985136.96547  21221997.493    21222003.8284   21222009.5204
     -1696.829       -1322.204
  -1083781.320 9   -829360.47048  20666127.180    20666133.5794   20666138.1124
     -1762.153       -1373.106
   3680078.999 9   2879539.53046  23764808.411    23764815.5034   23764822.2254
     -2232.170       -1739.353
  -6254799.377 9  -4854335.40646  23510364.782    23510371.7844   23510378.6004
      3225.856        2513.654
 96 11 12 18 54 59.9960000  0  7 25 29 15 21  1 31 14               -0.003130284
 -23009507.795 9 -17914731.38148  20116709.791    20116716.5174   20116721.3914
      1972.553        1537.054
 -11778055.873 9  -9157151.89747  22721647.562    22721654.6254   22721660.5534
      2908.004        2265.977
 -25292023.856 9 -18092708.06048  20280313.485    20280319.8304   20280325.3354
      2193.215        1708.999
   2589276.177 9   2024910.82747  21231710.680    21231717.0434   21231722.7714
     -1705.854       -1329.237
  -1030822.117 9   -788093.58348  20676204.909    20676211.3564   20676215.9234
     -1768.040       -1377.694
   3747086.036 9   2931752.72346  23777559.867    23777566.6384   23777573.3264
     -2234.550       -1741.208
  -6351577.484 9  -4929746.85446  23491948.806    23491955.4874   23491962.6364
      3226.488        2514.146
 96 11 12 18 55 29.9960000  0  7 25 29 15 21  1 31 14               -0.003137415
 -23068399.510 9 -17960620.99948  20105503.036    20105509.8074   20105514.7014
      1954.041        1522.629
 -11865167.026 9  -9225030.67047  22705070.954    22705077.8714   22705083.7574
      2900.015        2259.752
 -25357521.139 9 -18143744.89048  20267849.648    20267856.1044   20267861.6044
      2173.853        1693.911
   2640626.802 9   2064924.26847  21241482.254    21241488.7334   21241494.5194
     -1716.934       -1337.871
   -977660.948 9   -746669.30648  20686321.047    20686327.6044   20686332.1694
     -1775.455       -1383.471
   3814182.993 9   2984035.97546  23790327.793    23790334.8094   23790341.5894
     -2238.173       -1744.031
  -6448353.695 8  -5005156.86646  23473532.615    23473539.5764   23473547.0364
      3225.891        2513.681
 96 11 12 18 55 59.9960000  0  7 25 29 15 21  1 31 14               -0.003144525
 -23126753.273 9 -18006091.42448  20094398.717    20094405.5424   20094410.3014
      1936.154        1508.691
 -11952060.984 9  -9292740.19547  22688535.530    22688542.4254   22688548.3074
      2892.893        2254.202
 -25422460.963 9 -18194347.34348  20255491.941    20255498.4254   20255503.9424
      2155.361        1679.502
   2692289.860 9   2105181.15647  21251313.417    21251319.9074   21251325.7214
     -1727.233       -1345.896
   -924298.956 9   -705088.55948  20696475.367    20696482.0024   20696486.6554
     -1782.102       -1388.651
   3881371.080 9   3036390.24746  23803113.510    23803120.3634   23803127.1794
     -2241.051       -1746.274
  -6545136.239 9  -5080571.84046  23455115.780    23455122.6554   23455129.3694
      3226.236        2513.950
 96 11 12 18 56 29.9960000  0  7 25 29 15 21  1 31 14               -0.003151621
 -23184586.330 9 -18051156.10948  20083393.502    20083400.2854   20083404.9514
      1919.011        1495.333
 -12038753.966 9  -9360293.11647  22672038.183    22672045.2154   22672051.1464
      2886.305        2249.069
 -25486852.017 9 -18244522.17948  20243238.620    20243245.1954   20243250.7194
      2136.968        1665.170
   2744251.985 9   2145671.06947  21261201.518    21261208.0284   21261213.8884
     -1737.405       -1353.822
   -870740.083 9   -663354.39548  20706667.362    20706673.9934   20706678.6984
     -1788.916       -1393.961
   3948637.442 9   3088805.50746  23815914.207    23815920.8964   23815927.6674
     -2243.772       -1748.394
  -6641941.820 9  -5156004.73146  23436694.262    23436701.1864   23436708.0644
      3227.011        2514.554
 96 11 12 18 56 59.9960000  0  7 25 29 15 21  1 31 14               -0.003158687
 -23241893.946 9 -18095811.36748  20072487.934    20072494.8914   20072499.6674
      1901.127        1481.398
 -12125254.407 9  -9427696.00147  22655577.650    22655584.6664   22655590.6184
      2879.954        2244.120
 -25550684.459 9 -18294261.73148  20231091.655    20231098.2344   20231103.7974
      2118.102        1650.469
   2796542.220 9   2186416.65547  21271152.168    21271158.5904   21271164.4444
     -1748.930       -1362.803
   -816972.127 9   -621457.29248  20716899.136    20716905.7904   20716910.4194
     -1795.759       -1399.293
   4015990.670 9   3141288.45046  23828731.420    23828737.8604   23828744.6284
     -2246.898       -1750.830
  -6738764.031 9  -5231450.57746  23418269.393    23418276.4644   23418283.4704
      3227.322        2514.796
 96 11 12 18 57 29.9960000  0  7 25 29 15 21  1 31 14               -0.003165728
 -23298676.043 9 -18140057.13148  20061682.753    20061689.5944   20061694.3744
      1883.605        1467.744
 -12211571.551 9  -9494956.06847  22639152.273    22639158.9994   22639164.9964
      2873.439        2239.043
 -25613959.227 9 -18343566.72948  20219050.831    20219057.4444   20219063.0234
      2099.266        1635.792
   2849163.388 9   2227420.10947  21281165.671    21281172.1164   21281177.9334
     -1759.876       -1371.332
   -763015.277 9   -579413.00748  20727166.709    20727173.3894   20727178.0174
     -1802.247       -1404.348
   4083427.471 9   3193836.52746  23841564.439    23841570.6814   23841577.5734
     -2249.730       -1753.036
  -6835606.542 9  -5306912.24246  23399841.303    23399848.0664   23399854.9884
      3227.892        2515.241
 96 11 12 18 57 59.9960000  0  7 25 29 15 21  1 31 14               -0.003172750
 -23354951.094 9 -18183907.79648  20050973.861    20050980.8154   20050985.5674
      1867.561        1455.242
 -12297700.160 9  -9562069.22547  22622762.311    22622769.2394   22622775.1934
      2867.723        2234.589
 -25676677.473 9 -18392438.07448  20207115.832    20207122.5304   20207128.1694
      2081.314        1621.803
   2902097.100 9   2268667.10647  21291238.628    21291245.1084   21291250.8934
     -1769.705       -1378.991
   -708881.964 9   -537231.23048  20737467.854    20737474.5554   20737479.3024
     -1807.298       -1408.284
   4150932.422 9   3246437.71446  23854410.079    23854416.4164   23854423.4564
     -2251.092       -1754.098
  -6932475.153 8  -5382394.28146  23381407.791    23381414.6394   23381421.1914
      3229.283        2516.324
 96 11 12 18 58 29.9960000  0  7 25 29 15 21  1 31 14               -0.003179740
 -23410717.845 9 -18227362.37448  20040361.945    20040368.8044   20040373.4994
      1850.843        1442.215
 -12383613.757 9  -9629014.84047  22606413.223    22606420.3854   22606426.2884
      2860.384        2228.871
 -25738823.525 9 -18440863.55648  20195289.980    20195296.5984   20195302.1444
      2062.407        1607.070
   2955358.339 9   2310169.32247  21301373.846    21301380.4404   21301386.2324
     -1780.323       -1387.265
   -654564.985 9   -494906.33648  20747803.992    20747810.7674   20747815.5784
     -1813.145       -1412.840
   4218501.154 9   3299088.60446  23867267.545    23867274.3404   23867281.5114
     -2252.861       -1755.476
  -7029344.479 9  -5457876.83646  23362973.471    23362980.7664   23362987.3674
      3229.332        2516.363
 96 11 12 18 58 59.9960000  0  7 25 29 15 21  1 31 14               -0.003186698
 -23465981.453 9 -18270424.89848  20029845.521    20029852.4614   20029857.1644
      1833.764        1428.907
 -12469294.675 9  -9695779.15547  22590108.953    22590115.8174   22590121.7254
      2851.844        2222.216
 -25800399.951 9 -18488845.18148  20183572.449    20183578.9874   20183584.4444
      2042.953        1591.911
   3008928.062 9   2351911.93047  21311567.820    21311574.4514   21311580.2294
     -1790.430       -1395.140
   -600072.881 9   -452444.96448  20758173.504    20758180.3374   20758185.1294
     -1819.391       -1417.707
   4286119.217 9   3351777.94246  23880134.716    23880141.6784   23880148.9094
     -2254.815       -1756.999
  -7126218.132 9  -5533362.74146  23344539.267    23344546.1044   23344553.0274
      3229.187        2516.250
 96 11 12 18 59 29.9960000  0  7 25 29 15 21  1 31 14               -0.003193634
 -23520745.488 9 -18313098.13548  20019424.343    20019431.2624   20019435.8524
      1817.243        1416.034
 -12554717.875 9  -9762342.66447  22573853.141    22573860.2934   22573866.2474
      2843.178        2215.463
 -25861397.655 9 -18536375.84348  20171964.843    20171971.4674   20171976.9294
      2023.648        1576.869
   3062775.882 9   2393871.22047  21321814.743    21321821.3894   21321827.1604
     -1799.321       -1402.068
   -545394.164 9   -409838.19648  20768578.448    20768585.2934   20768590.1334
     -1825.745       -1422.658
   4353785.179 9   3404504.57046  23893011.299    23893018.1714   23893025.4184
     -2256.113       -1758.010
  -7223087.563 9  -5608845.41846  23326106.375    23326112.9644   23326119.4554
      3228.670        2515.847
 96 11 12 18 59 59.9960000  0  7 25 29 15 21  1 31 14               -0.003200565
 -23575014.049 9 -18355385.30148  20009097.387    20009104.2704   20009108.8774
      1799.670        1402.340
 -12639894.674 9  -9828714.17247  22557644.645    22557651.7114   22557657.5904
      2834.505        2208.705
 -25921822.742 9 -18583460.31648  20160466.295    20160472.9504   20160478.3834
      2003.834        1561.429
   3116880.131 9   2436030.35147  21332110.477    21332117.1294   21332122.9054
     -1808.627       -1409.320
   -490537.986 9   -367093.14548  20779017.202    20779024.1014   20779028.8494
     -1832.250       -1427.727
   4421483.017 9   3457256.05346  23905894.497    23905900.7574   23905907.9264
     -2258.031       -1759.505
  -7319934.166 8  -5684310.25546  23307676.024    23307683.3364   23307690.1254
      3226.954        2514.510
 96 11 12 19  0 29.9960000  0  7 25 29 15 21  1 31 14               -0.003207457
 -23628753.507 9 -18397260.17748  19998871.014    19998877.9124   19998882.5794
      1782.768        1389.170
 -12724823.694 9  -9894892.59747  22541483.033    22541490.1894   22541496.0884
      2827.581        2203.310
 -25981657.425 9 -18630084.73448  20149080.193    20149086.8084   20149092.1834
      1985.067        1546.805
   3171256.918 9   2478401.84347  21342458.069    21342464.7224   21342470.4534
     -1816.618       -1415.546
   -435488.002 9   -324197.04748  20789493.029    20789499.8774   20789504.4064
     -1837.692       -1431.968
   4489229.999 9   3510045.84746  23918786.363    23918792.6584   23918799.8464
     -2258.699       -1760.025
  -7416732.243 9  -5759737.31246  23289255.950    23289263.1884   23289269.8554
      3226.547        2514.192
 96 11 12 19  0 59.9960000  0  7 25 29 15 21  1 31 14               -0.003214359
 -23681965.580 9 -18438724.10248  19988745.021    19988752.0434   19988756.6934
      1764.890        1375.239
 -12809547.490 9  -9960911.12547  22525360.096    22525367.7454   22525373.6074
      2821.026        2198.202
 -26040911.723 9 -18676256.90848  20137804.451    20137811.0884   20137816.4534
      1965.507        1531.564
   3225891.092 9   2520973.88247  21352854.608    21352861.2864   21352867.0294
     -1825.549       -1422.506
   -380263.626 9   -281165.08248  20800001.871    20800008.7134   20800013.2814
     -1843.620       -1436.587
   4557019.646 9   3562868.87446  23931686.384    23931692.6334   23931699.9264
     -2260.426       -1761.371
  -7513517.210 9  -5835154.11146  23270837.538    23270845.2464   23270852.4474
      3225.929        2513.711
 96 11 12 19  1 29.9960000  0  7 25 29 15 21  1 31 14               -0.003221267
 -23734643.560 9 -18479771.85048  19978720.893    19978727.7934   19978732.4184
      1746.955        1361.264
 -12894091.614 9 -10026789.65447  22509271.950    22509279.5314   22509285.3264
      2815.342        2193.773
 -26099590.076 9 -18721980.29748  20126638.437    20126644.9994   20126650.2774
      1946.368        1516.650
   3280799.623 9   2563759.69247  21363303.282    21363310.0034   21363315.8134
     -1835.130       -1429.971
   -324876.585 9   -238006.39448  20810541.440    20810548.4714   20810553.1884
     -1848.885       -1440.690
   4624850.111 9   3615723.71646  23944593.375    23944600.3744   23944607.6834
     -2261.647       -1762.322
  -7610285.193 9  -5910557.70446  23252423.229    23252430.9184   23252438.0614
      3225.291        2513.214
 96 11 12 19  1 59.9960000  0  7 25 29 15 21  1 31 14               -0.003228170
 -23786771.798 9 -18520391.22648  19968801.047    19968808.0494   19968812.6804
      1728.117        1346.585
 -12978457.271 9 -10092529.10647  22493218.049    22493225.3084   22493231.0124
      2808.777        2188.657
 -26157682.799 9 -18767247.34448  20115583.704    20115590.2894   20115595.6054
      1926.372        1501.069
   3336014.124 9   2606783.92247  21373810.301    21373816.9944   21373822.8554
     -1846.151       -1438.559
   -269321.703 9   -194716.88348  20821113.252    20821120.3044   20821124.9254
     -1854.938       -1445.406
   4692728.012 9   3668615.52746  23957510.347    23957517.1444   23957524.4064
     -2263.760       -1763.969
  -7707036.115 9  -5985948.00646  23234012.118    23234019.8374   23234027.0774
      3224.822        2512.848
 96 11 12 19  2 29.9960000  0  7 25 29 15 21  1 31 14               -0.003235072
 -23838353.690 9 -18560584.87548  19958985.283    19958992.3104   19958996.9274
      1710.523        1332.875
 -13062629.536 9 -10158117.87147  22477200.493    22477207.8724   22477213.5634
      2802.389        2183.680
 -26215186.279 9 -18812055.24648  20104641.102    20104647.7604   20104653.0324
      1907.044        1486.008
   3391556.621 9   2650063.71847  21384379.633    21384386.3844   21384392.2834
     -1856.726       -1446.799
   -213589.969 9   -151289.56148  20831718.783    20831725.7124   20831730.2944
     -1860.611       -1449.827
   4760657.974 9   3721547.90046  23970436.965    23970443.7334   23970451.0754
     -2265.159       -1765.059
  -7803796.311 9  -6061345.51946  23215600.057    23215607.2974   23215614.0994
      3225.701        2513.533
 96 11 12 19  2 59.9960000  0  7 25 29 15 21  1 31 14               -0.003241940
 -23889402.145 9 -18600362.86448  19949271.015    19949278.0874   19949282.7394
      1693.052        1319.261
 -13146590.390 9 -10223541.90547  22461222.803    22461230.6324   22461236.3224
      2795.074        2177.980
 -26272101.713 9 -18856404.93048  20093810.436    20093817.1004   20093822.3954
      1887.623        1470.875
   3447423.423 9   2693596.21747  21395010.880    21395017.5644   21395023.4424
     -1867.370       -1455.094
   -157672.618 9   -107717.63748  20842359.257    20842366.2704   20842371.0364
     -1866.899       -1454.726
   4828638.099 8   3774519.36246  23983373.171    23983379.9464   23983387.1644
     -2266.527       -1766.125
  -7900569.669 9  -6136753.29246  23197184.240    23197191.8104   23197198.6814
      3225.903        2513.691
 96 11 12 19  3 29.9960000  0  7 25 29 15 21  1 31 14               -0.003248758
 -23939910.317 9 -18639719.85448  19939659.630    19939666.6254   19939671.3024
      1675.519        1305.599
 -13230301.145 9 -10288771.06347  22445293.245    22445300.9274   22445306.7074
      2787.003        2171.691
 -26328418.641 9 -18900288.24748  20083093.683    20083100.3444   20083105.6784
      1868.113        1455.672
   3503621.008 9   2737386.49647  21405704.919    21405711.6924   21405717.5624
     -1877.707       -1463.148
   -101548.281 9    -63984.41348  20853039.413    20853046.4164   20853051.2004
     -1873.420       -1459.808
   4896670.753 8   3827531.73546  23996319.448    23996326.2914   23996333.2844
     -2267.644       -1766.995
  -7997329.607 9  -6212150.64646  23178771.717    23178779.2154   23178785.5464
      3226.155        2513.887
 96 11 12 19  3 59.9960000  0  7 25 29 15 21  1 31 14               -0.003255546
 -23989900.311 9 -18678673.06648  19930146.772    19930153.8284   19930158.4714
      1657.558        1291.604
 -13313773.218 9 -10353814.23147  22429409.220    22429416.6634   22429422.4684
      2778.357        2164.954
 -26384151.550 9 -18943716.48148  20072487.932    20072494.6954   20072500.0244
      1847.984        1439.988
   3560120.510 9   2781412.04347  21416456.587    21416463.2864   21416469.1354
     -1888.398       -1471.479
    -45227.194 9    -20097.85148  20863757.151    20863764.0774   20863768.7794
     -1880.573       -1465.381
   4964731.477 9   3880565.99046  24009271.461    24009277.9234   24009284.8794
     -2269.330       -1768.309
  -8094104.688 9  -6287559.73446  23160356.062    23160363.3554   23160370.0414
      3225.853        2513.652
 96 11 12 19  4 29.9960000  0  7 25 29 15 21  1 31 14               -0.003262291
 -24039349.106 9 -18717204.56248  19920737.027    19920744.0474   19920748.5984
      1639.836        1277.794
 -13396990.194 9 -10418658.62947  22413573.416    22413580.9764   22413586.8014
      2770.365        2158.726
 -26439283.601 9 -18986676.52148  20061996.786    20062003.4514   20062008.7974
      1828.295        1424.645
   3616937.646 9   2825685.09847  21427268.677    21427275.2994   21427281.1444
     -1898.310       -1479.203
     11302.260 9     23951.04748  20874514.332    20874521.2404   20874526.0264
     -1887.073       -1470.446
   5032833.470 9   3933632.40045  24022231.247    24022237.4564   24022244.2154
     -2270.014       -1768.842
  -8190858.747 9  -6362952.45746  23141943.595    23141951.5844   23141958.4364
      3225.208        2513.149
 96 11 12 19  4 59.9960000  0  7 25 29 15 21  1 31 14               -0.003269002
 -24088245.584 9 -18755305.67948  19911432.405    19911439.3504   19911443.9024
      1620.213        1262.504
 -13479961.797 9 -10483311.79647  22397785.431    22397792.0594   22397797.8074
      2761.445        2151.775
 -26493814.337 9 -19029167.99848  20051619.946    20051626.5784   20051631.9814
      1807.359        1408.332
   3674052.104 9   2870189.80847  21438137.196    21438143.8594   21438149.7114
     -1909.124       -1487.629
     68026.585 9     68151.79348  20885308.544    20885315.5004   20885320.3514
     -1894.101       -1475.923
   5100963.322 8   3986720.50145  24035196.368    24035202.2804   24035209.1834
     -2271.669       -1770.132
  -8287581.734 9  -6438321.01046  23123538.698    23123546.1534   23123552.4264
      3223.262        2511.633
 96 11 12 19  5 29.9960000  0  7 25 29 15 21  1 31 14               -0.003275701
 -24136581.374 9 -18792969.90948  19902234.258    19902241.2774   19902245.9124
      1601.728        1248.100
 -13562706.806 9 -10547788.42047  22382039.528    22382046.2214   22382051.8934
      2754.550        2146.403
 -26547748.846 9 -19071194.89348  20041356.538    20041363.1594   20041368.5794
      1787.757        1393.057
   3731459.652 9   2914922.91647  21449061.594    21449068.2294   21449074.0074
     -1918.770       -1495.145
    124915.262 9    112480.62548  20896134.253    20896141.1514   20896145.9484
     -1898.923       -1479.680
   5169101.800 8   4039815.35345  24048163.122    24048168.6464   24048175.5354
     -2271.489       -1769.991
  -8384284.802 9  -6513674.01046  23105136.721    23105144.2384   23105150.0674
      3223.126        2511.527
 96 11 12 19  5 59.9960000  0  7 25 29 15 21  1 31 14               -0.003282380
 -24184337.639 9 -18830182.55648  19893146.462    19893153.5124   19893158.1544
      1582.245        1232.918
 -13645227.258 9 -10612090.05947  22366336.164    22366343.0644   22366348.7134
      2746.919        2140.456
 -26601071.156 9 -19112744.74748  20031209.534    20031216.2444   20031221.6934
      1767.260        1377.086
   3789184.945 9   2959903.61547  21460046.351    21460052.9904   21460058.7514
     -1929.395       -1503.425
    181959.633 9    156930.76148  20906989.344    20906996.2764   20907001.0924
     -1903.765       -1483.453
   5237254.985 8   4092921.61245  24061131.814    24061137.8104   24061144.9514
     -2272.111       -1770.476
  -8480954.056 9  -6589000.67646  23086741.353    23086748.6894   23086754.6364
      3221.626        2510.358
 96 11 12 19  6 29.9960000  0  7 25 29 15 21  1 31 14               -0.003289053
 -24231529.413 9 -18866955.33748  19884166.106    19884173.1514   19884177.8254
      1563.070        1217.977
 -13727535.190 9 -10676226.09147  22350672.897    22350680.3914   22350686.0504
      2739.275        2134.500
 -26653795.164 9 -19153828.38948  20021176.439    20021183.1594   20021188.6004
      1746.745        1361.100
   3847205.132 9   3005114.10747  21471087.061    21471093.8144   21471099.6024
     -1939.482       -1511.285
    239125.131 9    201475.28148  20917867.718    20917874.5354   20917879.3434
     -1908.277       -1486.969
   5305400.476 8   4146021.92045  24074099.075    24074105.4554   24074112.5844
     -2272.250       -1770.584
  -8577597.681 9  -6664307.32546  23068350.089    23068357.6334   23068364.1474
      3220.558        2509.526
 96 11 12 19  6 59.9960000  0  7 25 29 15 21  1 31 14               -0.003295720
 -24278156.387 9 -18903288.02848  19875293.202    19875300.2854   19875305.0084
      1545.129        1203.997
 -13809621.985 9 -10740189.80947  22335052.296    22335059.7974   22335065.4374
      2732.721        2129.393
 -26705915.704 9 -19194441.79048  20011258.269    20011264.9274   20011270.4274
      1727.417        1346.039
   3905515.146 9   3050550.42747  21482183.220    21482189.8164   21482195.7004
     -1948.463       -1518.283
    296411.487 9    246113.98748  20928769.060    20928775.8624   20928780.6734
     -1911.506       -1489.485
   5373546.536 8   4199122.64245  24087066.689    24087073.2904   24087080.6804
     -2271.431       -1769.946
  -8674234.648 9  -6739608.82146  23049960.651    23049968.1424   23049974.6434
      3221.366        2510.155
 96 11 12 19  7 29.9960000  0  7 25 29 15 21  1 31 14               -0.003302381
 -24324244.286 9 -18939200.65048  19866523.075    19866530.0764   19866534.6784
      1527.010        1189.878
 -13891498.727 9 -10803989.82947  22319472.005    22319479.1874   22319484.7894
      2725.186        2123.522
 -26757439.286 9 -19234590.03448  20001453.544    20001460.3114   20001465.8364
      1706.947        1330.089
   3964117.172 9   3096214.28547  21493334.823    21493341.4874   21493347.3444
     -1958.882       -1526.402
    353817.608 9    290846.00448  20939693.169    20939699.9124   20939704.7614
     -1916.277       -1493.203
   5441679.600 8   4252213.27045  24100031.880    24100038.4924   24100045.8704
     -2271.546       -1770.036
  -8770877.858 9  -6814915.17046  23031570.057    23031577.5094   23031584.0934
      3220.925        2509.812
 96 11 12 19  7 59.9960000  0  7 25 29 15 21  1 31 14               -0.003309007
 -24369784.295 9 -18974686.34748  19857857.065    19857864.0944   19857868.6394
      1509.022        1175.861
 -13973134.238 9 -10867601.89347  22303937.308    22303944.4844   22303950.0524
      2717.103        2117.223
 -26808338.027 9 -19274251.39848  19991767.860    19991774.6124   19991780.1204
      1686.233        1313.948
   4023035.625 9   3142124.71147  21504546.553    21504553.3484   21504559.2064
     -1968.895       -1534.204
    411387.516 9    335705.65148  20950648.394    20950655.0914   20950659.9104
     -1921.859       -1497.552
   5509834.904 9   4305321.17845  24113001.345    24113008.1024   24113015.4234
     -2272.337       -1770.652
  -8867491.820 9  -6890198.74246  23013185.137    23013192.6864   23013199.2904
      3219.986        2509.080
 96 11 12 19  8 29.9960000  0  7 25 29 15 21  1 31 14               -0.003315610
 -24414790.585 9 -19009756.16348  19849292.579    19849299.6884   19849304.2064
      1491.341        1162.084
 -14054533.675 9 -10931029.98647  22288447.089    22288454.6614   22288460.2584
      2709.476        2111.280
 -26858619.615 9 -19313431.85548  19982199.601    19982206.2894   19982211.8144
      1665.899        1298.103
   4082245.465 9   3188262.19747  21515814.043    21515820.7474   21515826.5854
     -1978.426       -1541.631
    469132.605 9    380701.78748  20961636.763    20961643.5974   20961648.3994
     -1927.901       -1502.261
   5578017.906 8   4358450.71345  24125975.234    24125983.0784   24125990.2564
     -2273.207       -1771.330
  -8964085.686 9  -6965466.62446  22994804.267    22994811.4264   22994818.1714
      3219.597        2508.777
 96 11 12 19  8 59.9960000  0  7 25 29 15 21  1 31 14               -0.003322195
 -24459271.102 9 -19044416.28748  19840828.256    19840835.3204   19840839.8794
      1473.761        1148.385
 -14135714.655 9 -10994287.83947  22272998.643    22273006.4484   22273012.0814
      2702.351        2105.728
 -26908298.224 9 -19352142.45848  19972746.012    19972752.7604   19972758.2744
      1645.686        1282.353
   4141740.539 9   3234621.94148  21527135.634    21527142.3904   21527148.2174
     -1988.235       -1549.274
    527057.467 9    425838.01448  20972659.745    20972666.4334   20972671.1574
     -1934.052       -1507.053
   5646216.498 8   4411592.40845  24138953.419    24138960.8534   24138968.2154
     -2273.618       -1771.650
  -9060676.472 9  -7040732.13546  22976423.652    22976430.8254   22976437.5344
      3219.265        2508.518
 96 11 12 19  9 29.9960000  0  7 25 29 15 21  1 31 14               -0.003328751
 -24503222.272 9 -19078663.94148  19832464.547    19832471.6494   19832476.2574
      1455.958        1134.513
 -14216683.090 9 -11057380.08247  22257591.165    22257598.6634   22257604.2644
      2695.342        2100.266
 -26957365.117 9 -19390376.40848  19963408.949    19963415.6604   19963421.1004
      1625.267        1266.442
   4201533.147 9   3281213.51248  21538513.921    21538520.6524   21538526.4444
     -1997.930       -1556.829
    585172.397 9    471122.36248  20983718.803    20983725.4754   20983730.0394
     -1940.248       -1511.881
   5714427.591 8   4464743.82945  24151933.498    24151941.0134   24151948.6324
     -2273.994       -1771.943
  -9157236.524 9  -7115973.67246  22958048.583    22958055.9224   22958062.5464
      3217.896        2507.451
 96 11 12 19  9 59.9960000  0  7 25 29 15 21  1 31 14               -0.003335296
 -24546628.328 9 -19112486.82648  19824204.687    19824211.7514   19824216.3594
      1437.182        1119.882
 -14297443.542 9 -11120310.26147  22242222.657    22242230.3664   22242235.9964
      2688.212        2094.711
 -27005824.354 9 -19428136.85948  19954187.524    19954194.1764   19954199.5754
      1604.778        1250.476
   4261602.823 9   3328020.98248  21549944.831    21549951.6134   21549957.4424
     -2007.309       -1564.137
    643460.169 9    516541.39748  20994810.539    20994817.2984   20994821.7594
     -1945.937       -1516.315
   5782644.556 8   4517899.83445  24164915.356    24164922.2264   24164930.0154
     -2274.314       -1772.193
  -9253758.436 9  -7191185.50346  22939681.136    22939688.3104   22939694.8004
      3216.477        2506.346
 96 11 12 19 10 29.9960000  0  7 25 29 15 21  1 31 14               -0.003341833
 -24589471.253 9 -19145870.90548  19816052.003    19816059.0764   19816063.5424
      1418.682        1105.466
 -14377995.652 9 -11183078.08847  22226894.278    22226901.7464   22226907.3684
      2681.668        2089.611
 -27053672.196 9 -19465420.89148  19945082.377    19945089.0304   19945094.4244
      1584.789        1234.900
   4321956.230 9   3375049.55147  21561429.807    21561436.5104   21561442.3894
     -2016.714       -1571.465
    701905.639 9    562083.29648  21005932.167    21005939.0234   21005943.5784
     -1950.747       -1520.062
   5850858.989 8   4571053.86645  24177896.529    24177903.0064   24177910.8714
     -2273.618       -1771.650
  -9350249.075 9  -7266372.97347  22921319.809    22921326.9014   22921333.3064
      3216.002        2505.976
